[[{"header":{"parameterUnit":"m.s-1","parameterCategory":1,"la1":30.6,"la2":28.766,"lo1":-90.7593,"lo2":-88.6598,"dy":0.0162,"dx":0.0183,"nx":116,"ny":114,"refTime":"2023-04-23T06:00:00:Z","depth":0,"parameterNumber":2,"parameterNumberName":"U-component_of_WINDS"},"data":[0.0,0.0,0.0,0.0,0.0,0.0,0.0,0.0,0.0,0.0,0.0,0.0,0.0,0.0,0.0,0.0,0.0,0.0,0.0,0.0,0.0,0.0,0.0,0.0,0.0,0.0,0.0,0.0,0.0,0.0,0.0,0.0,0.0,0.0,0.0,0.0,0.0,0.0,0.0,0.0,0.0,0.0,0.0,0.0,0.0,0.0,0.0,0.0,0.0,0.0,0.0,0.0,0.0,0.0,0.0,0.0,0.0,0.0,0.0,0.0,0.0,0.0,0.0,0.0,0.0,0.0,0.0,0.0,0.0,0.0,0.0,0.0,0.0,0.0,0.0,0.0,0.0,0.0,0.0,0.0,0.0,0.0,0.0,0.0,0.0,0.0,0.0,0.0,0.0,0.0,0.0,0.0,0.0,0.0,0.0,0.0,0.0,0.0,0.0,0.0,0.0,0.0,0.0,0.0,0.0,0.0,0.0,0.0,0.0,0.0,0.0,0.0,0.0,0.0,0.0,0.0,0.0,0.0,0.0,0.0,0.0,0.0,0.0,0.0,0.0,0.0,0.0,0.0,0.0,0.0,0.0,0.0,0.0,0.0,0.0,0.0,0.0,0.0,0.0,0.0,0.0,0.0,0.0,0.0,0.0,0.0,0.0,0.0,0.0,0.0,0.0,0.0,0.0,0.0,0.0,0.0,0.0,0.0,0.0,0.0,0.0,0.0,0.0,0.0,0.0,0.0,0.0,0.0,0.0,0.0,0.0,0.0,0.0,0.0,0.0,0.0,0.0,0.0,0.0,0.0,0.0,0.0,0.0,0.0,0.0,0.0,0.0,0.0,0.0,0.0,0.0,0.0,0.0,0.0,0.0,0.0,0.0,0.0,0.0,0.0,0.0,0.0,0.0,0.0,0.0,0.0,0.0,0.0,0.0,0.0,0.0,0.0,0.0,0.0,0.0,0.0,0.0,0.0,0.0,0.0,0.0,0.0,0.0,0.0,0.0,0.0,0.0,0.0,0.0,0.0,0.0,0.0,0.0,0.0,0.0,0.0,0.0,0.0,0.0,0.0,0.0,0.0,0.0,0.0,0.0,0.0,0.0,0.0,0.0,0.0,0.0,0.0,0.0,0.0,0.0,0.0,0.0,0.0,0.0,0.0,0.0,0.0,0.0,0.0,0.0,0.0,0.0,0.0,0.0,0.0,0.0,0.0,0.0,0.0,0.0,0.0,0.0,0.0,0.0,0.0,0.0,0.0,0.0,0.0,0.0,0.0,0.0,0.0,0.0,0.0,0.0,0.0,0.0,0.0,0.0,0.0,0.0,0.0,0.0,0.0,0.0,0.0,0.0,0.0,0.0,0.0,0.0,0.0,0.0,0.0,0.0,0.0,0.0,0.0,0.0,0.0,0.0,0.0,0.0,0.0,0.0,0.0,0.0,0.0,0.0,0.0,0.0,0.0,0.0,0.0,0.0,0.0,0.0,0.0,0.0,0.0,0.0,0.0,0.0,0.0,0.0,0.0,0.0,0.0,0.0,0.0,0.0,0.0,0.0,0.0,0.0,0.0,0.0,0.0,0.0,0.0,0.0,0.0,0.0,0.0,0.0,0.0,0.0,0.0,0.0,0.0,0.0,0.0,0.0,0.0,0.0,0.0,0.0,0.0,0.0,0.0,0.0,0.0,0.0,0.0,0.0,0.0,0.0,0.0,0.0,0.0,0.0,0.0,0.0,0.0,0.0,0.0,0.0,0.0,0.0,0.0,0.0,0.0,0.0,0.0,0.0,0.0,0.0,0.0,0.0,0.0,0.0,0.0,0.0,0.0,0.0,0.0,0.0,0.0,0.0,0.0,0.0,0.0,0.0,0.0,0.0,0.0,0.0,0.0,0.0,0.0,0.0,0.0,0.0,0.0,0.0,0.0,0.0,0.0,0.0,0.0,0.0,0.0,0.0,0.0,0.0,0.0,0.0,0.0,0.0,0.0,0.0,0.0,0.0,0.0,0.0,0.0,0.0,0.0,0.0,0.0,0.0,0.0,0.0,0.0,0.0,0.0,0.0,0.0,0.0,0.0,0.0,0.0,0.0,0.0,0.0,0.0,0.0,0.0,0.0,0.0,0.0,0.0,0.0,0.0,0.0,0.0,0.0,0.0,0.0,0.0,0.0,0.0,0.0,0.0,0.0,0.0,0.0,0.0,0.0,0.0,0.0,0.0,0.0,0.0,0.0,0.0,0.0,0.0,0.0,0.0,0.0,0.0,0.0,0.0,0.0,0.0,0.0,0.0,0.0,0.0,0.0,0.0,0.0,0.0,0.0,0.0,0.0,0.0,0.0,0.0,0.0,0.0,0.0,0.0,0.0,0.0,0.0,0.0,0.0,0.0,0.0,0.0,0.0,0.0,0.0,0.0,0.0,0.0,0.0,0.0,0.0,0.0,0.0,0.0,0.0,0.0,0.0,0.0,0.0,0.0,0.0,0.0,0.0,0.0,0.0,0.0,0.0,0.0,0.0,0.0,0.0,0.0,0.0,0.0,0.0,0.0,0.0,0.0,0.0,0.0,0.0,0.0,0.0,0.0,0.0,0.0,0.0,0.0,0.0,0.0,0.0,0.0,0.0,0.0,0.0,0.0,0.0,0.0,0.0,0.0,0.0,0.0,0.0,0.0,0.0,0.0,0.0,0.0,0.0,0.0,0.0,0.0,0.0,0.0,0.0,0.0,0.0,0.0,0.0,0.0,0.0,0.0,0.0,0.0,0.0,0.0,0.0,0.0,0.0,0.0,0.0,0.0,0.0,0.0,0.0,0.0,0.0,0.0,0.0,0.0,0.0,0.0,0.0,0.0,0.0,0.0,0.0,0.0,0.0,0.0,0.0,0.0,0.0,0.0,0.0,0.0,0.0,0.0,0.0,0.0,0.0,0.0,0.0,0.0,0.0,0.0,0.0,0.0,0.0,0.0,0.0,0.0,0.0,0.0,0.0,0.0,0.0,0.0,0.0,0.0,0.0,0.0,0.0,0.0,0.0,0.0,0.0,0.0,0.0,0.0,0.0,0.0,0.0,0.0,0.0,0.0,0.0,0.0,0.0,0.0,0.0,0.0,0.0,0.0,0.0,0.0,0.0,0.0,0.0,0.0,0.0,0.0,0.0,0.0,0.0,0.0,0.0,0.0,0.0,0.0,0.0,0.0,0.0,0.0,0.0,0.0,0.0,0.0,0.0,0.0,0.0,0.0,0.0,0.0,0.0,0.0,0.0,0.0,0.0,0.0,0.0,0.0,0.0,0.0,0.0,0.0,0.0,0.0,0.0,0.0,0.0,0.0,0.0,0.0,0.0,0.0,0.0,0.0,0.0,0.0,0.0,0.0,0.0,0.0,0.0,0.0,0.0,0.0,0.0,0.0,0.0,0.0,0.0,0.0,0.0,0.0,0.0,0.0,0.0,0.0,0.0,0.0,0.0,0.0,0.0,0.0,0.0,0.0,0.0,0.0,0.0,0.0,0.0,0.0,0.0,0.0,0.0,0.0,0.0,0.0,0.0,0.0,0.0,0.0,0.0,0.0,0.0,0.0,0.0,0.0,0.0,0.0,0.0,0.0,0.0,0.0,0.0,0.0,0.0,0.0,0.0,0.0,0.0,0.0,0.0,0.0,0.0,0.0,0.0,0.0,0.0,0.0,0.0,0.0,0.0,0.0,0.0,0.0,0.0,0.0,0.0,0.0,0.0,0.0,0.0,0.0,0.0,0.0,0.0,0.0,0.0,0.0,0.0,0.0,0.0,0.0,0.0,0.0,0.0,0.0,0.0,0.0,0.0,0.0,0.0,0.0,0.0,0.0,0.0,0.0,0.0,0.0,0.0,0.0,0.0,0.0,0.0,0.0,0.0,0.0,0.0,0.0,0.0,0.0,0.0,0.0,0.0,0.0,0.0,0.0,0.0,0.0,0.0,0.0,0.0,0.0,0.0,0.0,0.0,0.0,0.0,0.0,0.0,0.0,0.0,0.0,0.0,0.0,0.0,0.0,0.0,0.0,0.0,0.0,0.0,0.0,0.0,0.0,0.0,0.0,0.0,0.0,0.0,0.0,0.0,0.0,0.0,0.0,0.0,0.0,0.0,0.0,0.0,0.0,0.0,0.0,0.0,0.0,0.0,0.0,0.0,0.0,0.0,0.0,0.0,0.0,0.0,0.0,0.0,0.0,0.0,0.0,0.0,0.0,0.0,0.0,0.0,0.0,0.0,0.0,0.0,0.0,0.0,0.0,0.0,0.0,0.0,0.0,0.0,0.0,0.0,0.0,0.0,0.0,0.0,0.0,0.0,0.0,0.0,0.0,0.0,0.0,0.0,0.0,0.0,0.0,0.0,0.0,0.0,0.0,0.0,0.0,0.0,0.0,0.0,0.0,0.0,0.0,0.0,0.0,0.0,0.0,0.0,0.0,0.0,0.0,0.0,0.0,0.0,0.0,0.0,0.0,0.0,0.0,0.0,0.0,0.0,0.0,0.0,0.0,0.0,0.0,0.0,0.0,0.0,0.0,0.0,0.0,0.0,0.0,0.0,0.0,0.0,0.0,0.0,0.0,0.0,0.0,0.0,0.0,0.0,0.0,0.0,0.0,0.0,0.0,0.0,0.0,0.0,0.0,0.0,0.0,0.0,0.0,0.0,0.0,0.0,0.0,0.0,0.0,0.0,0.0,0.0,0.0,0.0,0.0,0.0,0.0,0.0,0.0,0.0,0.0,0.0,0.0,0.0,0.0,0.0,0.0,0.0,0.0,0.0,0.0,0.0,0.0,0.0,0.0,0.0,0.0,0.0,0.0,0.0,0.0,0.0,0.0,0.0,0.0,0.0,0.0,0.0,0.0,0.0,0.0,0.0,0.0,0.0,0.0,0.0,0.0,0.0,0.0,0.0,0.0,0.0,0.0,0.0,0.0,0.0,0.0,0.0,0.0,0.0,0.0,0.0,0.0,0.0,0.0,0.0,0.0,0.0,0.0,0.0,0.0,0.0,0.0,0.0,0.0,0.0,0.0,0.0,0.0,0.0,0.0,0.0,0.0,0.0,0.0,0.0,0.0,0.0,0.0,0.0,0.0,0.0,0.0,0.0,0.0,0.0,0.0,0.0,0.0,0.0,0.0,0.0,0.0,0.0,0.0,0.0,0.0,0.0,0.0,0.0,0.0,0.0,0.0,0.0,0.0,0.0,0.0,0.0,0.0,0.0,0.0,0.0,0.0,0.0,0.0,0.0,0.0,0.0,0.0,0.0,0.0,0.0,0.0,0.0,0.0,0.0,0.0,0.0,0.0,0.0,0.0,0.0,0.0,0.0,0.0,0.0,0.0,0.0,0.0,0.0,0.0,0.0,0.0,0.0,0.0,0.0,0.0,0.0,0.0,0.0,0.0,0.0,0.0,0.0,0.0,0.0,0.0,0.0,0.0,0.0,0.0,0.0,0.0,0.0,0.0,0.0,0.0,0.0,0.0,0.0,0.0,0.0,0.0,0.0,0.0,0.0,0.0,0.0,0.0,0.0,0.0,0.0,0.0,0.0,0.0,0.0,0.0,0.0,0.0,0.0,0.0,0.0,0.0,0.0,0.0,0.0,0.0,0.0,0.0,0.0,0.0,0.0,0.0,0.0,0.0,0.0,0.0,0.0,0.0,0.0,0.0,0.0,0.0,0.0,0.0,0.0,0.0,0.0,0.0,0.0,0.0,0.0,0.0,0.0,0.0,0.0,0.0,0.0,0.0,0.0,0.0,0.0,0.0,0.0,0.0,0.0,0.0,0.0,0.0,0.0,0.0,0.0,0.0,0.0,0.0,0.0,0.0,0.0,0.0,0.0,0.0,0.0,0.0,0.0,0.0,0.0,0.0,0.0,0.0,0.0,0.0,0.0,0.0,0.0,0.0,0.0,0.0,0.0,0.0,0.0,0.0,0.0,0.0,0.0,0.0,0.0,0.0,0.0,0.0,0.0,0.0,0.0,0.0,0.0,0.0,0.0,0.0,0.0,0.0,0.0,0.0,0.0,0.0,0.0,0.0,0.0,0.0,0.0,0.0,0.0,0.0,0.0,0.0,0.0,0.0,0.0,0.0,0.0,0.0,0.0,0.0,0.0,0.0,-0.93,-0.9356,0.0,0.0,0.0,0.0,0.0,0.0,0.0,0.0,0.0,0.0,0.0,0.0,0.0,0.0,0.0,0.0,0.0,0.0,0.0,0.0,0.0,0.0,0.0,0.0,0.0,0.0,0.0,0.0,0.0,0.0,0.0,0.0,0.0,0.0,0.0,0.0,0.0,0.0,2.9303,2.9589,3.0152,2.9061,2.8603,2.8505,0.0,0.0,0.0,0.0,0.0,0.0,0.0,0.0,0.0,0.0,0.0,0.0,0.0,0.0,0.0,0.0,0.0,0.0,0.0,0.0,0.0,0.0,0.0,0.0,0.0,0.0,0.0,0.0,0.0,0.0,0.0,0.0,0.0,0.0,0.0,0.0,0.0,0.0,0.0,0.0,0.0,0.0,0.0,0.0,0.0,0.0,0.0,0.0,0.0,0.0,0.0,0.0,0.0,0.0,0.0,0.0,0.0,0.0,0.0,0.0,0.0,0.0,0.0,0.0,0.0,0.0,0.0,0.0,0.0,0.0,-1.036,-1.0835,0.0,0.0,0.0,0.0,0.0,0.0,0.0,0.0,0.0,0.0,0.0,0.0,0.0,0.0,0.0,0.0,0.0,0.0,0.0,0.0,0.0,0.0,0.0,0.0,3.0986,3.0986,3.0986,3.0986,0.0,0.0,0.0,0.0,0.0,0.0,0.0,2.904,2.8937,2.9394,2.9782,3.0227,3.082,3.0628,3.054,3.043,2.9303,0.0,0.0,0.0,0.0,0.0,0.0,0.0,0.0,0.0,0.0,0.0,0.0,0.0,0.0,0.0,0.0,0.0,0.0,0.0,0.0,0.0,0.0,0.0,0.0,0.0,0.0,0.0,0.0,0.0,0.0,0.0,0.0,0.0,0.0,0.0,0.0,0.0,0.0,0.0,0.0,0.0,0.0,0.0,0.0,0.0,0.0,0.0,0.0,0.0,0.0,0.0,0.0,0.0,0.0,0.0,0.0,0.0,0.0,0.0,0.0,0.0,0.0,0.0,-0.5977,-0.663,-0.6632,-0.7734,-0.9667,-1.1923,-1.0809,-1.2081,-1.5102,-1.5449,0.0,0.0,0.0,0.0,0.0,0.0,0.0,0.0,0.0,0.0,0.0,0.0,0.0,0.0,0.0,0.0,0.0,0.0,0.0,0.0,0.0,3.1272,3.0986,3.0986,3.0986,3.0986,0.0,0.0,0.0,0.0,0.0,0.0,2.8712,2.93,2.9509,2.9332,3.1422,3.255,3.2777,3.2621,3.255,3.242,3.0677,3.01,3.0519,0.0,0.0,0.0,0.0,0.0,0.0,0.0,0.0,0.0,0.0,0.0,0.0,0.0,0.0,0.0,0.0,0.0,0.0,0.0,0.0,0.0,0.0,0.0,0.0,0.0,0.0,0.0,0.0,0.0,0.0,0.0,0.0,0.0,0.0,0.0,0.0,0.0,0.0,0.0,0.0,0.0,1.0748,1.1555,0.0,0.0,0.0,0.0,0.0,0.0,0.0,0.0,0.0,0.0,0.0,0.0,0.0,0.0733,-0.1953,-0.3299,-0.5133,-0.7464,-0.8705,-0.9329,-0.9329,-0.9451,-1.102,-1.3416,-1.3241,0.0,-1.5595,-1.7026,0.0,0.0,0.0,0.0,0.0,0.0,0.0,0.0,0.0,0.0,0.0,0.0,0.0,0.0,0.0,0.0,0.0,0.0,0.0,0.0,0.0,3.1896,3.1955,3.1809,3.2173,3.2245,3.1809,3.1603,0.0,0.0,0.0,2.9908,2.9287,2.9561,3.0037,3.0777,3.2307,3.3073,3.3213,3.3589,3.352,3.3073,3.265,3.2006,3.1031,3.0594,0.0,0.0,0.0,0.0,0.0,0.0,0.0,0.0,0.0,0.0,0.0,0.0,0.0,0.0,0.0,0.0,0.0,0.0,0.0,0.0,0.0,0.0,0.0,0.0,0.0,0.0,0.0,0.0,0.0,0.0,0.0,0.0,0.0,0.0,0.0,0.0,0.0,0.0,0.0,1.1946,1.1568,1.0576,1.2036,1.2677,0.0,0.0,0.0,0.0,0.0,0.0,0.0,0.0,0.0,0.0609,-0.0734,-0.2454,-0.5033,-0.6499,-0.7847,-0.8961,-0.9576,-0.9822,-0.9822,-0.9822,-1.1265,-1.3665,-1.3665,-1.4857,-1.6767,-1.7485,-1.8046,-1.8809,0.0,0.0,0.0,0.0,-2.7892,-2.8116,0.0,0.0,0.0,0.0,0.0,0.0,0.0,0.0,0.0,0.0,0.0,0.0,3.2114,3.2662,3.2932,3.272,3.3143,3.3073,3.2362,3.2146,0.0,0.0,3.0203,2.9896,2.9546,2.982,3.0641,3.2253,3.3129,3.352,3.352,3.4113,3.4113,3.352,3.4113,3.3465,3.1856,3.1489,3.0467,2.8971,0.0,0.0,0.0,0.0,0.0,0.0,0.0,0.0,0.0,0.0,0.0,0.0,0.0,0.0,0.0,0.0,0.0,0.0,0.0,0.0,0.0,0.0,0.0,0.0,0.0,0.0,0.0,0.0,0.0,0.0,0.0,0.0,0.0,0.0,0.0,0.0,0.0,1.201,1.155,1.0231,1.1189,1.1868,0.0,0.0,0.0,0.0,0.0,0.0,0.2906,0.1591,0.0123,-0.1601,-0.2828,-0.4544,-0.7004,-0.8227,-0.9086,-0.9822,-0.9822,-0.9842,-0.988,-0.988,-1.1355,-1.3825,-1.3825,-1.5272,-1.7678,-1.7539,-1.8402,-1.989,-2.0787,-2.2047,-2.376,-2.6045,-2.6924,-2.714,0.0,0.0,0.0,0.0,0.0,0.0,0.0,0.0,0.0,0.0,0.0,3.3437,3.3437,3.3437,3.3437,3.3437,3.3297,3.2932,3.2146,3.2074,3.1663,3.0698,2.9729,2.9094,2.887,3.0088,3.1556,3.3143,3.3962,3.4346,3.4332,3.4414,3.4414,3.4332,3.4414,3.4142,3.3744,3.2931,3.1974,3.0777,2.9049,0.0,0.0,0.0,0.0,0.0,0.0,0.0,0.0,0.0,0.0,0.0,0.0,0.0,0.0,0.0,0.0,0.0,0.0,0.0,0.0,0.0,0.0,0.0,0.0,0.0,0.0,0.0,0.0,0.0,0.0,0.0,0.0,0.0,0.0,0.0,0.0,0.0,0.0,1.1505,0.9953,0.0,0.0,0.0,0.0,0.6503,0.3316,0.1722,0.2094,0.0739,-0.0617,-0.1976,-0.2099,-0.3328,-0.5896,-0.6018,-0.7365,-0.9822,-0.9822,-0.9897,-1.0036,-1.0036,-1.16,-1.4255,-1.4255,-1.5752,-1.8215,-1.7696,-1.8848,-2.1016,-2.113,-2.2605,-2.4889,-2.6391,-2.6924,-2.714,0.0,0.0,0.0,0.0,0.0,0.0,0.0,0.0,3.3241,3.2931,3.3465,3.3713,3.3143,3.363,3.3905,3.3685,3.3492,3.3073,3.2362,3.2146,3.1663,3.0773,3.0216,3.0254,3.0882,3.196,3.2975,3.3962,3.41,3.4228,3.4228,3.4597,3.4796,3.4782,3.5394,3.5493,3.5153,3.4001,3.2818,3.1669,3.0566,2.9312,0.0,0.0,0.0,0.0,0.0,0.0,0.0,0.0,0.0,0.0,0.0,0.0,0.0,0.0,0.0,0.0,0.0,0.0,0.0,0.0,0.0,0.0,0.0,0.0,0.0,0.0,0.0,0.0,0.0,0.0,0.0,0.0,0.0,0.0,0.0,0.0,0.0,0.9052,0.9742,0.0,0.5929,0.8043,0.8323,0.5273,0.1722,-0.0247,-0.0617,-0.0987,-0.1482,-0.1977,-0.2836,-0.4081,-0.5984,-0.6855,-0.8265,-1.0117,-1.0117,-1.0148,-1.0198,-1.1188,-1.2591,-1.4288,-1.5281,-1.6657,-1.8398,-1.9253,-2.0461,-2.1752,-2.2462,-2.3865,-2.5734,-2.7185,-2.7409,-2.7194,0.0,0.0,0.0,0.0,0.0,0.0,0.0,0.0,3.3241,3.3185,3.3728,3.3934,3.3422,3.3905,3.4041,3.3685,3.3492,3.3073,3.2362,3.1842,3.1355,3.0836,3.081,3.1132,3.1729,3.2828,3.3536,3.3916,3.3952,3.4112,3.4419,3.4797,3.5142,3.5449,3.6072,3.6229,3.6028,3.4995,3.4044,3.3138,3.232,3.141,3.0331,0.0,0.0,0.0,0.0,0.0,0.0,0.0,0.0,0.0,0.0,0.0,0.0,0.0,0.0,0.0,0.0,0.0,0.0,0.0,0.0,0.0,0.0,0.0,0.0,0.0,0.0,0.0,0.0,0.0,0.0,0.0,0.0,0.0,0.0,1.358,1.2449,0.7652,0.7363,0.6563,0.3907,0.38,0.3438,0.2331,-0.0,-0.1482,-0.1977,-0.1986,-0.199,-0.199,-0.287,-0.4018,-0.532,-0.671,-0.8141,-0.9506,-1.0022,-1.0304,-1.0479,-1.1861,-1.316,-1.4623,-1.6008,-1.74,-1.8678,-2.0733,-2.2054,-2.2879,-2.3613,-2.4836,-2.6149,-2.729,-2.7413,-2.7203,0.0,0.0,0.0,0.0,0.0,0.0,0.0,3.3241,3.3437,3.3948,3.407,3.4138,3.4245,3.4124,3.3865,3.3506,3.3297,3.2804,3.2074,3.1066,3.0644,3.0986,3.1542,3.1623,3.1074,3.2482,3.3131,3.2922,3.3441,3.4093,3.4934,3.5022,3.5506,3.6287,3.6373,3.6373,3.6287,3.5913,3.5709,3.543,3.4183,3.3788,3.3634,0.0,0.0,0.0,0.0,0.0,0.0,0.0,0.0,0.0,0.0,0.0,0.0,0.0,0.0,0.0,0.0,0.0,0.0,0.0,0.0,0.0,0.0,0.0,0.0,0.0,0.0,0.0,0.0,0.0,0.0,0.0,0.0,0.0,0.9961,1.2233,1.2005,0.7404,0.2797,0.1725,0.6139,0.1353,-0.1977,-0.1977,-0.1977,-0.1978,-0.1978,-0.2005,-0.202,-0.202,-0.2048,-0.2708,-0.3993,-0.5533,-0.6816,-0.8103,-0.9646,-1.0368,-1.05,-1.204,-1.3552,-1.5038,-1.6462,-1.7893,-1.9328,-2.2076,-2.3427,-2.4078,-2.4515,-2.5219,-2.6183,-2.6778,-2.7018,-2.7009,0.0,0.0,0.0,0.0,0.0,0.0,0.0,3.239,3.2461,3.2648,3.3213,3.3713,3.3713,3.3213,3.2791,3.272,3.2028,3.1542,3.1334,3.1022,3.081,3.0761,3.203,3.238,3.1827,3.3219,3.3834,3.3455,3.3515,3.3568,3.3887,3.4923,3.5521,3.5848,3.7114,3.762,3.7411,3.7171,3.6945,3.6722,3.5339,3.4539,3.4086,0.0,0.0,0.0,0.0,0.0,0.0,0.0,0.0,0.0,0.0,0.0,0.0,0.0,0.0,0.0,0.0,0.0,0.0,0.0,0.0,0.0,0.0,0.0,0.0,0.0,0.0,0.0,0.0,0.0,0.0,0.0,0.9724,0.8129,1.0421,0.6846,0.3263,0.146,-0.0368,-0.0987,0.0246,-0.0987,-0.1977,-0.1977,-0.1995,-0.2007,-0.2007,-0.2035,-0.2051,-0.2051,-0.206,-0.2721,-0.4184,-0.5619,-0.7087,-0.8475,-0.9936,-1.0619,-1.0788,-1.3383,-1.4841,-1.5419,-1.815,-1.9456,-2.0094,-2.293,-2.4155,-2.4501,-2.6413,-2.7564,-2.8174,-2.841,-2.8419,-2.8419,0.0,0.0,0.0,0.0,0.0,0.0,0.0,3.1623,3.1769,3.2046,3.2577,3.296,3.3003,3.2448,3.2028,3.1809,3.1334,3.0986,3.0986,3.0986,3.1003,3.097,3.2284,3.2831,3.2537,3.3624,3.3829,3.3053,3.3178,3.3475,3.3806,3.4696,3.5318,3.5615,3.6922,3.7491,3.7366,3.7457,3.738,3.7246,3.6296,3.5955,3.5757,3.463,3.3844,3.3122,3.1314,3.0278,2.9818,2.9468,0.0,0.0,0.0,0.0,0.0,0.0,0.0,0.0,0.0,0.0,0.0,0.0,0.0,0.0,0.0,0.0,0.0,0.0,0.0,0.0,0.0,0.0,0.0,0.0,0.7193,0.5223,0.6933,0.4993,0.2078,-0.0985,-0.1728,-0.1977,-0.1977,-0.1987,-0.1994,-0.1994,-0.2021,-0.2037,-0.2037,-0.2066,-0.2082,-0.2082,-0.2095,-0.2899,-0.4248,-0.5699,-0.7181,-0.8573,-1.0047,-1.0721,-1.085,-1.3857,-1.5289,-1.5544,-1.8536,-2.0348,-2.1089,-2.3544,-2.477,0.0,0.0,0.0,0.0,0.0,-2.8984,-2.8984,0.0,0.0,0.0,0.0,0.0,0.0,0.0,3.0807,3.1228,3.1702,3.1928,3.2114,3.2304,3.1823,3.1421,3.1061,3.0986,3.0986,3.0986,3.1052,3.1185,3.1435,3.2488,3.3078,3.3184,3.3688,3.3424,3.2303,3.283,3.3484,3.423,3.4468,3.4937,3.5615,3.636,3.6702,3.6702,3.7134,3.7303,3.7226,3.707,3.7316,3.7658,3.6823,3.6157,3.5385,3.3379,3.1997,3.0955,3.026,0.0,0.0,0.0,0.0,0.0,0.0,0.0,0.0,0.0,0.0,0.0,0.0,0.0,0.0,0.0,0.0,0.0,0.0,0.0,0.0,0.0,0.0,0.0,0.0,0.4436,0.1234,0.1727,0.47,0.4702,-0.0864,-0.1853,-0.1978,-0.1981,-0.2004,-0.202,-0.2023,-0.2052,-0.2069,-0.2069,-0.2097,0.0,0.0,0.0,-0.3095,-0.43,-0.59,-0.7369,-0.8573,-1.0047,-1.0721,-1.0853,-1.36,-1.5163,-1.5544,-1.8402,-2.0576,-2.232,-2.3915,-2.5399,-2.6883,-2.837,-2.8984,-2.8984,-2.8984,-2.8984,-2.8984,0.0,0.0,0.0,0.0,0.0,0.0,0.0,2.9833,3.0279,3.0342,3.1132,3.169,3.1763,3.1334,3.1061,3.0986,3.0986,3.0986,3.0986,3.1418,3.1641,3.172,3.2883,3.3287,3.2985,3.3514,3.3462,3.2918,3.3018,3.3167,3.3411,3.4759,3.5467,3.5615,3.7028,3.7534,3.7366,3.7303,3.7226,3.707,3.6978,3.7063,3.7147,3.6957,3.6814,3.6526,3.5413,3.4927,3.4571,3.4033,3.2897,3.1707,3.2087,3.1058,0.0,0.0,0.0,0.0,0.0,0.0,0.0,0.0,0.0,0.0,0.0,0.0,0.0,0.0,0.0,0.0,0.0,0.0,0.0,1.0125,0.5072,0.0863,0.0494,0.0123,0.0247,0.1109,-0.074,-0.1986,-0.2008,-0.2016,-0.2029,-0.2053,-0.2083,-0.2101,-0.2101,-0.2129,-0.2146,-0.2146,-0.3358,-0.4033,-0.43,-0.6838,-0.8307,-0.8573,0.0,0.0,-1.085,-1.3853,-1.5284,-1.5544,-1.892,-2.1215,-2.2577,-2.4178,-2.6269,-2.8489,-2.8856,-2.8984,-2.8984,-2.8984,-2.8984,-2.8984,0.0,0.0,0.0,0.0,0.0,0.0,0.0,2.8767,2.9081,2.9081,2.9858,3.0317,3.0317,3.0177,3.0037,3.0037,3.0355,3.0636,3.0907,3.1512,3.2097,3.2685,3.3273,3.3472,3.3315,3.3585,3.3471,3.3081,3.3081,3.3081,3.3154,3.4358,3.4924,3.4937,3.6466,3.6964,3.6822,3.707,3.707,3.6978,3.6978,3.6978,3.6978,3.6978,3.6978,3.69,3.6031,3.571,3.5602,3.4905,3.4016,3.336,3.3467,3.2561,3.1086,0.0,0.0,0.0,0.0,0.0,0.0,0.0,0.0,0.0,0.0,0.0,0.0,0.0,0.0,1.446,1.2865,0.0,0.9757,0.8467,0.4452,0.111,0.0123,-0.1243,-0.1499,0.0249,-0.0998,-0.2009,-0.2038,-0.2055,-0.207,-0.2086,-0.2115,-0.2132,-0.2132,-0.2146,-0.2155,-0.2155,-0.3631,-0.4701,-0.5367,-0.7505,-0.8975,-0.9646,-1.0316,-1.1115,-1.1769,-1.4119,-1.5679,-1.6586,-1.9188,-2.1587,-2.3668,-2.6026,-2.7753,-2.8984,-2.8984,-2.8984,-2.8984,-2.8984,-2.8984,-2.8984,0.0,0.0,0.0,0.0,0.0,0.0,0.0,2.7846,2.8179,2.8179,2.87,2.9081,2.8991,2.9081,2.9081,2.9081,2.9561,3.0188,3.0823,3.1539,3.2476,3.3548,3.3692,3.3706,3.37,3.3628,3.3484,3.3081,3.3081,3.3081,3.3167,3.3992,3.4314,3.4147,3.5494,3.591,3.5763,3.6494,3.673,3.673,3.69,3.6978,3.6978,3.6978,3.6993,3.6758,3.5951,3.5642,3.5467,3.4647,3.4397,3.4397,3.4397,3.3687,3.2624,3.1021,2.9852,0.0,0.0,0.0,0.0,0.0,0.0,0.0,0.0,2.1262,2.0316,1.6982,1.5359,1.3729,1.1221,1.0482,0.9224,0.6177,0.4444,0.272,0.0372,-0.1129,-0.1773,-0.14,-0.1778,-0.2039,-0.207,-0.2095,-0.2112,-0.2118,-0.2141,-0.2155,-0.2155,-0.2155,-0.2289,-0.2558,-0.4031,-0.5367,-0.6833,-0.8304,-0.9513,-1.0721,-1.0721,-1.1376,-1.2816,-1.4254,-1.5819,-1.7501,-1.9814,-2.2194,-2.4763,-2.7744,-2.8984,-2.8993,-2.9067,-2.9094,-2.9094,-2.9012,-2.8984,-2.8984,0.0,0.0,0.0,0.0,0.0,0.0,0.0,0.0,2.8179,2.8179,2.87,2.8912,2.8505,2.8834,2.9081,2.9081,2.9303,2.9852,3.0823,3.1979,3.2894,3.3561,3.3892,3.3927,3.3713,3.3556,3.3313,3.3081,3.3081,3.3081,3.3167,3.3992,3.4288,3.4082,3.4815,3.4979,3.4802,3.5575,3.583,3.591,3.6652,3.6978,3.6978,3.6978,3.6772,3.6391,3.5884,3.548,3.5072,3.4564,3.4397,3.4397,3.4397,3.4314,3.3771,3.144,3.0563,2.9863,2.762,2.642,2.5541,2.4473,2.4559,2.3457,0.0,1.7848,1.7565,1.325,1.1801,1.1198,1.0815,1.0225,0.8754,0.5535,0.7168,0.6841,0.088,-0.0757,-0.1403,-0.1963,-0.2076,-0.2071,-0.2101,-0.2107,-0.2121,-0.2148,-0.2153,-0.2155,-0.2155,-0.2155,-0.2827,-0.4033,-0.5366,-0.6836,-0.8304,-0.9779,-1.0585,-1.0721,-1.0721,-1.1376,-1.2816,-1.4254,-1.5684,-1.7361,-2.1644,-2.39,-2.4763,-2.7744,-2.8984,-2.9021,-2.9369,-2.9507,-2.9461,-2.9113,-2.8984,-2.8984,0.0,0.0,0.0,0.0,0.0,0.0,0.0,0.0,0.0,0.0,2.7592,2.7487,2.7325,2.7244,2.7255,2.7255,2.8554,2.9665,3.038,3.2213,3.3388,3.3879,3.4043,3.3907,3.3556,3.3484,3.3313,3.3081,3.3081,3.3081,3.3167,3.3992,3.4217,3.3856,3.4664,3.4815,3.4459,3.5318,3.54,3.4979,3.6401,3.673,3.6322,3.6822,3.6601,3.5884,3.4979,3.4402,0.0,3.3505,3.3335,3.3518,3.4217,3.3953,3.298,3.1187,3.0228,2.9266,2.6953,2.6107,2.5654,2.4419,2.4081,2.2807,1.8358,1.7817,1.7132,1.2733,1.1281,1.0789,1.0789,1.0218,0.876,0.541,0.447,0.2883,-0.0757,-0.1153,-0.1431,-0.2106,-0.2114,-0.2122,-0.2134,-0.2136,-0.2141,-0.2154,-0.2155,-0.2155,-0.2155,-0.2155,-0.2826,-0.43,-0.5633,-0.71,-0.8573,-1.0047,-1.0721,-1.0721,-1.0721,-1.1901,-1.3993,-1.4646,-1.6203,-1.867,-2.1731,-2.3828,-2.5093,-2.7446,-2.893,-2.9709,-2.9874,-2.9938,-2.992,-2.9755,-2.969,-2.9654,0.0,0.0,0.0,0.0,0.0,0.0,0.0,0.0,0.0,0.0,2.6704,2.6445,2.6373,2.5801,2.5644,2.5895,2.7527,2.9,3.0037,3.1958,3.3302,3.405,3.3992,3.3738,3.3398,3.3313,3.324,3.3081,3.3081,3.3081,3.3081,3.3654,3.3725,3.3386,3.3927,3.3985,3.3649,3.4568,3.4568,3.4056,3.5896,3.6243,3.583,3.6652,3.6336,3.5277,3.4254,3.3597,3.2955,3.2352,3.2079,3.2265,3.3139,3.2796,3.1765,3.0557,2.9758,2.8781,2.6908,2.6143,2.5658,2.4468,2.3467,2.1958,1.8942,1.8294,1.7137,1.3186,1.1756,1.1148,1.0789,1.0232,0.8664,0.5442,0.2126,-0.0507,-0.2044,-0.1691,-0.1584,-0.2121,-0.2142,-0.2155,-0.2155,-0.2155,-0.2155,-0.2155,-0.2155,-0.2155,-0.2155,-0.2558,-0.3361,-0.4833,-0.6301,-0.7769,-0.9111,-1.0183,-1.0721,-1.0721,-1.1115,-1.2557,-1.4912,-1.5753,-1.7471,-1.9701,-2.1889,-2.3676,-2.521,-2.7512,-2.9039,-3.0213,-3.0314,-3.036,-3.0378,-3.0488,-3.0387,-3.0158,0.0,0.0,0.0,0.0,0.0,0.0,0.0,0.0,0.0,0.0,0.0,0.0,0.0,2.5052,2.4882,2.5812,2.6532,2.7816,2.9953,3.099,3.2234,3.405,3.3654,3.3398,3.3398,3.324,3.3081,3.3081,3.3081,3.3081,3.3068,3.2884,3.2636,3.2388,3.2213,3.1925,3.1825,3.2747,3.3066,3.3237,3.4992,3.5749,3.583,3.6652,3.607,3.4664,3.4087,3.3331,3.2438,3.1264,3.0808,3.0819,3.0909,3.0742,3.0397,2.9592,2.9205,2.8966,2.8329,2.6975,2.5509,2.4582,2.2733,2.0723,1.8855,1.8383,1.7443,1.4257,1.3062,1.2221,1.0543,0.9988,0.8694,0.5394,0.2141,-0.051,-0.1968,-0.224,-0.212,-0.215,-0.2154,-0.2155,-0.2155,-0.2155,-0.2155,-0.2155,-0.2155,-0.2155,-0.2155,-0.3497,-0.4833,-0.6299,-0.7769,-0.9244,-1.0588,-1.0721,-1.0721,-1.0721,-1.2029,-1.3468,-1.5047,-1.8018,-1.9452,-1.9726,-2.2716,-2.4394,-2.5152,-2.8009,-2.9564,-3.0241,-3.0626,-3.0772,-3.0818,-3.1203,-3.0855,-3.0204,0.0,0.0,0.0,0.0,0.0,0.0,0.0,0.0,0.0,0.0,0.0,0.0,0.0,0.0,0.0,0.0,2.6487,2.7674,2.8448,3.0733,3.2204,3.2673,3.3129,3.3313,3.324,3.3154,3.3081,3.3081,3.3081,3.3081,3.3068,3.281,3.255,3.24,3.2125,3.1849,3.1749,3.2661,3.2661,3.2326,3.4746,3.5318,3.4815,3.5561,3.4817,3.3132,0.0,3.0772,3.0598,2.9875,2.9692,2.9772,3.0551,3.0101,2.9194,2.8502,2.8297,2.8174,2.752,2.6361,2.4981,2.3738,2.2328,2.0737,1.8855,1.8389,1.78,1.5445,1.4605,1.3975,1.3256,1.0904,0.8229,0.5327,0.2185,-0.0391,-0.1316,-0.1861,-0.2143,-0.2154,-0.2155,-0.2155,-0.2155,-0.2155,-0.2155,-0.2155,-0.2155,-0.2558,-0.3497,-0.4033,-0.5369,-0.7772,-0.8304,-0.9244,-1.0721,-1.0721,-1.1115,-1.2161,-1.4507,-1.5889,-1.6576,-1.8632,-1.9948,-2.0918,-2.2396,-2.4101,-2.5934,-2.723,-2.8776,-3.0236,-3.0361,-3.08,-3.1194,-3.1332,-3.1212,-3.0947,0.0,0.0,0.0,0.0,0.0,0.0,0.0,0.0,0.0,0.0,0.0,0.0,0.0,0.0,0.0,0.0,0.0,2.69,2.7206,2.9477,3.0844,3.092,3.1665,3.204,3.1789,3.1789,3.1789,3.1789,3.2239,3.2339,3.2351,3.255,3.2463,3.2213,3.2025,3.1849,3.1749,3.2326,3.2164,3.1737,3.3733,3.4236,3.3636,3.3882,3.3035,0.0,2.9307,2.849,2.8297,2.8143,2.8247,2.862,2.9315,2.9217,2.8644,2.8177,2.8476,2.8809,2.7895,2.658,2.5085,2.385,2.232,2.0859,1.9448,1.9094,1.8538,1.6741,1.5926,1.508,1.3929,1.1952,0.9376,0.5665,0.3524,0.1716,-0.0,-0.0803,-0.148,-0.2155,-0.2155,-0.2155,-0.2155,-0.2155,-0.2155,-0.2155,-0.2692,-0.3362,-0.43,-0.5237,-0.6704,-0.8573,-0.9108,-0.9782,-1.0721,-1.1244,-1.2421,-1.4376,-1.6198,-1.7369,-1.8147,-1.9172,-2.041,-2.1746,-2.2586,-2.4307,-2.644,-2.7214,-2.8633,-3.0352,-3.0352,-3.0732,-3.1377,-3.1377,-3.1377,-3.1341,0.0,0.0,0.0,0.0,0.0,0.0,0.0,0.0,0.0,0.0,0.0,0.0,0.0,0.0,0.0,0.0,0.0,0.0,2.6345,2.7317,2.8156,2.8723,2.934,2.9476,2.9304,2.9304,2.9315,2.9407,3.0586,3.1045,3.08,3.1825,3.2113,3.1849,3.1661,3.1584,3.152,3.1484,3.1395,3.1241,3.2115,3.2277,3.2091,3.1659,3.0832,2.9534,2.7742,2.6506,2.5751,2.5984,2.6678,2.7357,2.7357,2.7996,2.8777,2.8561,2.9576,3.0508,2.9213,2.7622,2.594,2.459,2.2749,2.1089,2.0385,2.0284,1.9904,1.827,1.727,1.5767,1.2979,1.3003,1.169,0.6555,0.5937,0.4914,0.1879,0.0941,-0.0134,-0.2019,-0.2155,-0.2155,-0.2155,-0.2289,-0.2289,-0.2289,-0.3497,-0.43,-0.4568,-0.7105,-0.8573,-0.8706,-1.0047,-1.0721,-1.085,-1.2293,-1.4376,-1.698,-1.7109,-1.7894,-1.9476,-1.9887,-2.0691,-2.2034,-2.3405,-2.5015,-2.6745,-2.7849,-2.9053,-3.0222,-3.0222,-3.0741,-3.1377,-3.1377,-3.1377,-3.1377,0.0,0.0,0.0,0.0,0.0,0.0,0.0,0.0,0.0,0.0,0.0,0.0,0.0,0.0,0.0,0.0,0.0,0.0,2.5169,2.6023,2.6517,2.635,2.6814,2.7483,2.819,2.82,2.8604,2.9407,2.9681,2.9863,2.9772,2.9875,2.9795,2.9795,2.951,2.9527,2.957,2.9309,2.9168,2.9244,2.9818,2.9896,2.9704,2.941,2.8462,2.6972,2.5653,2.5139,2.5275,2.6254,2.7136,2.7809,2.7631,2.7878,2.8411,2.8279,2.8575,2.8907,2.8789,2.6855,2.4735,2.442,2.2749,2.1089,2.0385,2.0445,2.0282,1.9179,1.8673,1.7717,1.5494,1.4304,1.2358,0.8389,0.3336,0.0402,0.1749,-0.0,-0.1615,-0.2155,-0.2155,-0.2155,-0.2155,-0.3095,-0.3764,-0.3764,-0.4033,-0.5237,-0.7372,-0.8174,-0.9108,-1.018,-1.0452,-1.1244,-1.2293,-1.4637,-1.6328,-1.698,-1.8028,-1.8947,-1.9476,-2.0655,-2.1859,-2.3216,-2.4607,-2.5831,-2.7059,-2.7326,-2.8254,-2.9569,-2.9569,-3.0343,-3.1377,-3.1377,-3.1377,-3.1377,0.0,0.0,0.0,0.0,0.0,0.0,0.0,0.0,0.0,0.0,0.0,0.0,0.0,0.0,0.0,0.0,0.0,0.0,0.0,2.474,2.4853,2.4312,2.456,2.4937,2.5431,2.5932,2.6431,2.7032,2.81,2.8588,2.8484,2.8762,2.8773,2.868,2.8484,2.8355,2.8485,2.8228,2.8083,0.0,0.0,2.8293,2.7806,2.717,2.6305,2.5344,2.407,2.4205,2.4992,2.5567,2.6723,2.7904,2.7146,2.7723,2.8584,2.8056,2.8257,2.8731,2.8408,2.6372,2.4283,2.395,2.2523,2.1018,2.0561,2.0385,1.9929,1.8738,1.7972,1.6899,1.4538,1.3705,1.2086,0.8041,0.2279,-0.0942,0.1076,-0.0135,-0.148,-0.2155,-0.2155,-0.2423,-0.3095,-0.3899,-0.4835,-0.6038,-0.617,-0.6838,-0.8573,-0.9241,-0.9915,-1.0721,-1.1244,-1.2549,-1.4637,-1.6198,-1.7372,-1.7893,-1.8682,-1.9211,-1.9607,-2.0912,-2.225,-2.3609,0.0,-2.6241,-2.72,-2.72,-2.7865,-2.8914,-2.9185,-2.9961,-3.0991,-3.1249,-3.1377,-3.1506,0.0,0.0,0.0,0.0,0.0,0.0,0.0,0.0,0.0,0.0,0.0,0.0,0.0,0.0,0.0,0.0,0.0,0.0,0.0,0.0,2.3486,2.2699,2.2641,2.2533,2.2484,2.3285,2.3791,2.4088,2.6137,2.7105,2.701,2.784,2.8121,2.7851,2.7641,2.7484,2.7526,2.7474,2.74,2.7197,2.7136,2.6809,2.631,0.0,2.4501,2.4205,2.3129,2.3628,2.4796,2.459,2.5954,2.7515,2.637,2.7351,2.8717,2.761,2.8072,2.8839,2.7891,2.5918,2.4053,2.3495,2.2297,2.1046,2.0723,2.0021,1.9135,1.7659,1.6295,1.4678,1.2073,1.2215,1.0901,0.5897,0.1609,-0.1074,-0.0672,-0.0806,-0.1343,-0.2556,-0.2691,-0.3228,-0.4434,-0.4701,-0.5904,-0.844,-0.8842,-0.8972,-0.8842,-1.0047,-1.0853,-1.0982,-1.2553,-1.4507,-1.698,-1.7238,-1.7893,-1.9078,-1.92,-1.945,-1.9677,-2.1117,-2.2454,-2.3679,-2.5085,-2.6337,-2.72,-2.72,-2.76,-2.8395,-2.8922,-2.9569,-3.0352,-3.0991,-3.1377,-3.1754,0.0,0.0,0.0,0.0,0.0,0.0,0.0,0.0,0.0,0.0,2.454,2.454,0.0,0.0,0.0,0.0,0.0,0.0,0.0,0.0,0.0,2.2691,2.1403,2.1278,2.2484,2.1785,2.2291,2.4088,2.4482,2.4982,2.5606,2.58,2.579,2.5499,2.5401,2.5487,2.5576,2.5242,2.522,2.5233,2.4966,2.4627,2.4223,2.3836,0.0,0.0,2.3438,2.4016,2.459,2.4786,2.5567,2.634,2.5954,2.6229,2.6679,2.65,2.6682,2.7017,2.6834,2.5151,2.3495,2.3383,2.2055,2.0622,2.0109,1.907,1.7853,1.6612,1.5307,1.37,1.1702,1.1519,0.9238,0.1602,-0.0535,-0.2545,-0.5908,-0.5767,-0.536,-0.5631,-0.5631,-0.5765,-0.6032,-0.7102,-0.8038,-0.8573,-0.9911,-1.0581,-1.0316,-1.0585,-1.1244,-1.2425,-1.4898,-1.6457,-1.698,-1.8156,-1.8816,-1.9078,-1.9954,-2.0354,-2.054,-2.2624,-2.3966,-2.4543,-2.5944,0.0,-2.72,-2.72,-2.76,-2.8263,-2.8395,-2.9176,-3.0352,-3.0482,-3.1368,-3.2629,0.0,0.0,0.0,0.0,0.0,0.0,0.0,2.5801,2.538,2.4956,2.4615,2.454,2.454,2.454,2.454,0.0,0.0,0.0,0.0,0.0,0.0,0.0,0.0,0.0,2.1295,2.0909,2.12,2.2383,0.0,2.3502,2.443,2.4214,2.4322,2.4735,2.4538,2.4551,2.4618,2.4424,2.4362,2.4436,2.4235,2.4053,2.3746,0.0,0.0,0.0,2.3046,2.322,2.3311,2.3619,2.3809,2.4088,2.4492,2.5381,2.6069,2.5317,2.545,2.5726,2.5041,2.3847,2.2636,2.2168,2.1388,2.0406,1.9155,1.7984,1.6554,1.4442,1.302,1.1702,0.9861,0.9522,0.791,0.2943,-0.0,-0.2545,-0.4559,-0.5763,-0.6433,-0.6433,-0.6433,-0.67,-0.7503,-0.8171,-0.8842,-0.9646,-1.0449,-1.0853,-1.0721,-1.1376,-1.2812,-1.4898,-1.6328,-1.7372,-1.8028,-1.881,-1.9322,-1.9826,-2.0329,-2.0829,-2.1481,-2.3301,-2.4179,-2.4487,-2.6049,-2.6771,-2.6938,-2.7129,-2.7467,-2.7733,-2.813,-2.8922,-2.9831,-3.0723,-3.1863,-3.3,0.0,0.0,0.0,0.0,0.0,0.0,0.0,2.6135,2.5728,2.5115,2.47,2.454,2.454,2.454,2.454,0.0,0.0,0.0,0.0,0.0,0.0,0.0,0.0,0.0,2.0432,0.0,0.0,2.0672,2.1448,0.0,0.0,0.0,0.0,0.0,2.3836,2.3845,2.3845,2.4053,2.4152,0.0,0.0,2.4053,0.0,0.0,0.0,0.0,0.0,2.2131,2.203,2.2342,2.2131,2.2038,2.2814,2.4239,2.524,2.4043,2.4113,2.43,2.3399,2.2523,2.1645,2.0831,2.0601,1.9965,1.8164,1.6854,1.5215,1.2308,1.081,0.9691,0.8246,0.7912,0.6987,0.4292,0.0804,-0.2009,-0.3348,-0.5491,-0.6967,-0.7234,-0.7367,-0.7769,-0.8975,-0.9108,-0.951,-1.0588,-1.1111,-1.1244,-1.1111,-1.2812,-1.4768,-1.698,-1.749,-1.8273,-1.945,-1.9577,-2.0087,-2.0956,-2.1082,-2.172,-2.2495,-2.3732,-2.4401,-2.4515,-2.5822,-2.6533,-2.67,-2.697,-2.7137,-2.72,-2.7865,-2.865,-2.9691,-3.1083,-3.2365,-3.3641,0.0,0.0,0.0,0.0,0.0,0.0,0.0,2.5895,2.5559,2.4711,2.454,2.454,2.454,2.454,2.454,0.0,0.0,0.0,0.0,0.0,0.0,0.0,0.0,0.0,0.0,0.0,0.0,2.0108,2.0429,0.0,0.0,0.0,0.0,0.0,0.0,2.2627,2.2728,2.3746,0.0,0.0,0.0,0.0,0.0,0.0,0.0,0.0,0.0,2.1302,2.1725,2.1725,2.142,2.1075,2.1162,2.2063,2.3004,2.2659,2.2474,2.2328,2.2214,2.1524,2.0831,2.0716,2.0263,1.9345,1.7467,1.566,1.3688,1.1506,0.9668,0.8272,0.8011,0.7725,0.6038,0.1605,0.0535,-0.1737,-0.7227,-0.8171,-0.8842,-1.0183,-1.0316,-1.0316,-1.0452,-1.0452,-1.0585,-1.0721,-1.2153,-1.2939,-1.2684,-1.5159,-1.6716,-1.6974,-1.9164,-2.0322,-2.0456,-2.1348,-2.1853,-2.1978,-2.2856,-2.3355,-2.3487,-2.4518,-2.5201,-2.551,-2.5581,-2.6096,0.0,-2.6708,-2.6914,-2.7208,-2.7334,-2.8502,-3.0316,-3.0687,-3.2737,-3.5294,0.0,0.0,0.0,0.0,0.0,0.0,2.629,2.5801,2.538,2.4956,2.47,2.454,2.454,2.4368,2.4292,2.4292,0.0,0.0,0.0,0.0,0.0,0.0,0.0,0.0,0.0,0.0,1.9447,1.9641,1.8999,0.0,0.0,0.0,0.0,0.0,0.0,2.2526,2.2526,2.3746,0.0,0.0,0.0,0.0,0.0,0.0,0.0,0.0,0.0,0.0,2.0467,2.0467,1.9524,1.845,1.8725,1.896,1.9442,2.1143,2.1609,2.1524,2.1296,2.0838,2.0378,2.027,1.9203,1.7824,1.5829,1.3827,1.1792,0.9988,0.8643,0.7803,0.7594,0.6604,0.5182,0.308,0.067,-0.1874,-0.4283,-0.616,-0.7769,-0.9244,-0.9377,-0.9779,-1.0588,-1.0721,-1.1111,-1.2153,-1.4502,-1.5809,-1.5679,-1.6721,-1.7636,-1.8285,-1.9814,-2.0576,-2.0576,-2.1601,-2.2362,-2.2988,-2.3362,-2.386,-2.4487,-2.4857,-2.5183,-2.5326,-2.5548,-2.5794,0.0,-2.6501,-2.7263,-2.8177,-2.841,-2.9787,-3.1598,-3.2346,-3.3882,-3.5541,0.0,0.0,0.0,0.0,0.0,2.6613,2.6218,2.5611,2.5115,2.5031,2.47,2.454,2.454,2.4292,2.4206,2.411,2.3841,0.0,0.0,0.0,0.0,0.0,0.0,0.0,0.0,0.0,1.9621,1.9082,1.8454,1.8259,0.0,0.0,1.9131,1.996,0.0,0.0,0.0,0.0,0.0,0.0,0.0,0.0,0.0,0.0,0.0,0.0,0.0,0.0,0.0,0.0,0.0,1.6455,1.6673,1.6504,1.6794,1.9456,2.0309,2.0364,2.0493,2.0385,2.004,1.9815,1.844,1.6629,1.4751,1.2604,1.0649,0.9019,0.8114,0.735,0.6726,0.5619,0.4351,0.3198,0.0535,-0.1744,-0.2682,-0.4559,-0.6301,-0.7772,-0.8304,-0.8975,-1.0047,-1.0843,-1.2157,-1.4371,-1.6328,-1.7759,-1.8536,-1.8536,-1.8926,-1.9577,-2.0836,-2.1461,-2.1461,-2.2473,-2.3355,-2.3984,-2.3984,-2.4355,-2.5111,-2.5111,-2.5349,-2.5725,-2.5853,-2.6264,0.0,-2.7275,-2.8239,-2.934,-2.9629,-3.0974,-3.2746,-3.3631,-3.4642,-3.5675,0.0,0.0,0.0,0.0,0.0,0.0,2.5433,2.52,2.5031,2.454,2.454,2.454,2.454,2.4292,2.411,2.3841,2.358,0.0,0.0,0.0,0.0,0.0,0.0,0.0,0.0,0.0,2.0983,1.8544,1.9117,1.8651,1.7257,1.7448,1.7582,1.7681,0.0,0.0,0.0,0.0,0.0,0.0,0.0,0.0,0.0,0.0,0.0,0.0,0.0,0.0,0.0,0.0,0.0,0.0,0.0,1.5282,1.5722,1.7865,1.8383,1.8739,1.9917,2.0046,1.9815,1.9815,1.8233,1.6249,1.4669,1.2589,1.0507,0.8795,0.7926,0.705,0.5412,0.4897,0.3678,0.0526,-0.0,-0.1075,-0.3897,-0.43,-0.4833,-0.6299,-0.7769,-0.8573,-0.8573,-1.1094,-1.4119,-1.7243,-1.7501,0.0,-2.0982,-2.1109,-2.0976,-2.0576,-2.2473,-2.3611,-2.3611,-2.461,-2.5111,-2.5111,-2.5111,-2.5111,-2.5111,-2.5111,-2.5831,-2.7013,-2.7021,-2.7938,0.0,-2.9377,-2.9852,-3.0573,-3.0582,-3.1725,-3.3379,-3.3757,-3.4767,-3.6044,0.0,0.0,0.0,0.0,0.0,0.0,0.0,2.5893,2.5628,2.5451,2.5461,2.5259,2.4784,2.4578,2.4183,2.361,2.3503,0.0,0.0,0.0,0.0,0.0,0.0,0.0,0.0,0.0,2.113,2.022,1.9252,1.8522,1.786,1.766,1.7582,1.7687,1.9124,1.9539,0.0,0.0,0.0,0.0,0.0,0.0,0.0,0.0,0.0,0.0,0.0,0.0,0.0,0.0,0.0,0.0,0.0,0.0,0.0,1.435,1.5435,1.6262,1.6603,1.6486,1.6262,1.6262,1.4871,1.3237,1.2631,1.0925,0.9178,0.8427,0.7731,0.6795,0.5408,0.3804,0.2184,0.0262,-0.0793,-0.173,-0.2688,-0.4557,-0.6279,-0.7612,-1.0798,-1.2927,-1.2927,-1.4628,-1.6198,-1.7372,-1.9048,-2.0335,-2.1109,-2.2362,-2.2731,-2.1601,-2.2856,-2.3611,-2.3611,-2.461,-2.5111,-2.5103,-2.5945,-2.6424,-2.6424,-2.7254,-2.7966,-2.8325,-2.8325,-2.8627,-2.9122,-2.9258,-3.0139,-3.1309,-3.1874,-3.2936,-3.437,-3.4799,-3.5294,-3.5921,0.0,0.0,0.0,0.0,0.0,0.0,0.0,2.6066,2.5875,2.5875,2.5795,2.5601,2.5155,2.4856,2.4466,2.4019,2.39,0.0,0.0,0.0,0.0,0.0,0.0,0.0,0.0,2.2782,2.2126,2.1488,2.0495,1.9724,1.9064,1.848,1.8199,1.8199,1.8916,1.8923,0.0,0.0,0.0,0.0,0.0,0.0,1.5482,0.0,0.0,0.0,0.0,0.0,0.0,0.0,0.0,0.0,0.0,0.0,0.0,0.0,1.2457,1.3292,1.4465,1.4465,1.4232,1.4232,1.3076,1.1929,1.1732,1.0146,0.8375,0.7207,0.6613,0.5528,0.3744,0.2256,0.0887,-0.0516,-0.157,-0.2511,-0.3591,-0.533,-0.7327,-0.9849,-1.2501,-1.4497,-1.5554,-1.6462,-1.7372,-1.8028,-1.982,-2.1102,-2.1488,-2.2981,-2.3736,-2.323,-2.386,-2.4108,-2.4108,-2.4734,-2.5349,-2.5823,-2.6658,-2.7254,-2.7727,-2.8564,-2.9157,-2.963,-2.963,-2.9874,0.0,-3.0613,-3.1299,-3.2255,-3.2964,-3.3842,-3.4817,-3.5262,-3.5541,-3.5798,0.0,0.0,0.0,0.0,0.0,0.0,0.0,2.5978,2.5978,2.5978,2.5807,2.5625,2.5503,2.5127,2.4832,2.4802,0.0,0.0,0.0,0.0,0.0,0.0,0.0,0.0,2.3838,2.4219,2.3653,2.2321,2.2531,2.1936,2.046,1.969,1.9228,1.9124,1.9124,1.8408,0.0,0.0,0.0,0.0,0.0,0.0,0.0,0.0,0.0,0.0,0.0,0.0,0.0,0.0,0.0,0.0,0.0,0.0,0.0,0.0,0.0,0.0,0.0,1.3503,1.326,1.326,1.2482,1.1596,1.1381,0.9796,0.0,0.5413,0.4585,0.3638,0.0987,0.0374,-0.0126,-0.1766,-0.2066,-0.3018,-0.5885,-0.674,-0.8516,-1.262,-1.3147,-1.42,-1.6716,-1.7109,-1.7759,-1.9072,-2.0081,-2.1089,-2.2111,-2.3113,-2.4108,-2.5111,-2.5226,-2.5226,-2.5226,-2.5226,-2.5823,-2.7134,-2.7254,-2.7847,-2.9039,-2.9157,-2.9874,0.0,-3.0946,-3.1662,-3.2727,-3.2727,-3.2975,-3.3379,-3.3844,-3.4419,-3.4876,-3.5333,-3.551,-3.5665,0.0,0.0,0.0,0.0,0.0,0.0,0.0,0.0,0.0,0.0,2.6763,2.6357,2.5805,2.5485,2.5075,0.0,0.0,0.0,0.0,0.0,0.0,0.0,0.0,0.0,2.4268,2.4171,2.3849,2.3383,2.2724,2.2132,2.1551,2.0812,1.9952,1.8923,1.8923,1.7996,0.0,0.0,0.0,0.0,0.0,0.0,0.0,0.0,0.0,0.0,1.3753,1.3098,0.0,0.0,0.0,0.0,0.0,0.0,0.0,0.0,0.9849,0.948,0.9967,0.0,1.0058,0.9964,0.9718,0.8977,0.0,0.5964,0.4825,0.3223,0.2564,0.1903,0.0742,0.0247,-0.0373,-0.1763,-0.2031,-0.3077,-0.5868,-1.0133,-1.3648,-1.5779,-1.6964,-1.749,-1.698,-1.8022,-1.906,-2.0202,-2.1222,-2.223,-2.323,-2.4232,-2.4857,-2.5111,-2.6067,-2.6537,-2.6537,-2.6537,-2.7134,-2.8444,-2.9394,-3.0109,-3.0353,-3.1411,-3.2008,-3.2258,-3.2258,-3.2373,-3.2727,-3.2727,-3.2789,-3.2923,-3.3368,-3.4402,-3.5799,-3.6145,-3.6533,-3.7067,0.0,0.0,0.0,0.0,0.0,0.0,0.0,0.0,0.0,0.0,0.0,2.6512,2.5964,2.5754,0.0,0.0,0.0,0.0,0.0,0.0,0.0,0.0,0.0,2.4623,2.4539,2.4535,2.4441,2.4059,2.3587,2.3198,2.2911,2.1391,2.0254,1.9531,1.8192,1.716,0.0,0.0,0.0,0.0,1.5256,0.0,0.0,0.0,0.0,0.0,1.3423,1.2767,0.0,1.1678,1.1021,1.0315,0.0,0.0,0.0,0.0,0.8995,0.8013,0.8412,0.7526,0.6888,0.815,0.8461,0.8054,0.6547,0.3757,0.117,0.0774,0.0257,-0.0255,-0.062,-0.1232,-0.173,-0.1996,-0.3382,-0.5573,-0.8702,-1.2306,-1.5282,-1.6834,-1.763,-1.8279,0.0,-1.9304,-2.0208,-2.1215,-2.223,-2.2988,-2.3611,-2.461,-2.5349,-2.5945,-2.6658,-2.7013,-2.7013,-2.7607,-2.8564,-2.9757,-3.0461,-3.1063,-3.1662,-3.2373,-3.2727,-3.2727,-3.2727,-3.2727,-3.2727,-3.2727,-3.2727,-3.2768,-3.377,-3.4919,-3.6092,-3.7022,-3.7736,-3.8376,0.0,0.0,0.0,0.0,0.0,0.0,0.0,0.0,0.0,0.0,0.0,0.0,0.0,0.0,0.0,0.0,0.0,0.0,0.0,0.0,0.0,0.0,2.4876,2.4985,2.4813,2.5053,2.4932,2.4529,2.444,2.4341,2.4053,2.1988,2.0751,2.0128,1.7457,1.6217,0.0,0.0,1.5482,1.5374,1.4821,0.0,0.0,0.0,0.0,0.0,0.0,0.0,0.0,1.1459,1.0802,0.9979,0.9967,0.0,0.0,0.0,0.0,0.0,0.7809,0.5931,0.4312,0.6173,0.7303,0.7749,0.694,0.2194,-0.1679,-0.129,-0.1548,-0.2046,-0.2234,-0.2837,-0.3082,-0.2346,-0.534,-0.8937,-1.2234,-1.4116,-1.563,-1.6717,-1.7161,0.0,-1.9992,-2.0423,-2.1089,-2.223,-2.3106,-2.3611,-2.386,-2.4849,-2.5823,-2.7021,-2.7375,-2.7607,-2.7607,-2.8683,-2.9874,-3.1063,-3.1063,-3.1662,-3.2727,-3.2727,-3.2727,-3.2727,0.0,0.0,-3.2727,-3.2955,-3.2944,-3.31,-3.4691,-3.5696,-3.6652,-3.8057,-3.8909,-3.9464,0.0,0.0,0.0,0.0,0.0,0.0,0.0,0.0,0.0,0.0,0.0,0.0,0.0,0.0,0.0,0.0,0.0,0.0,0.0,0.0,0.0,2.514,2.5198,2.5237,2.5237,2.4796,2.4529,2.4529,2.4341,2.4152,2.3845,2.3438,2.1996,1.962,1.714,1.5791,1.5589,1.5482,1.5369,1.5041,1.4713,0.0,0.0,0.0,0.0,0.0,0.0,0.0,0.0,1.0806,0.9585,0.8301,0.8229,0.0,0.0,0.0,0.0,0.0,0.8198,0.5945,0.3459,0.1605,0.4573,0.6742,0.2181,0.0387,-0.0646,-0.1677,-0.1935,-0.23,-0.3098,-0.2715,-0.2469,-0.3082,-0.6808,-1.0587,-1.3364,-1.6049,-1.736,-1.6387,0.0,-1.8464,-1.8417,-1.9783,-2.1335,-2.323,-2.3479,-2.3984,-2.4857,-2.6059,-2.6779,-2.7013,-2.9039,-3.0227,-3.0227,-3.0461,-3.1179,-3.2373,-3.2373,-3.2498,-3.2727,-3.2727,-3.2727,-3.2727,0.0,-3.2727,-3.2727,-3.3818,-3.4256,-3.4368,-3.5522,-3.6951,-3.8464,-3.9208,-3.9734,-4.026,0.0,0.0,0.0,0.0,0.0,0.0,0.0,0.0,0.0,0.0,0.0,0.0,0.0,0.0,0.0,0.0,0.0,0.0,0.0,0.0,2.544,2.5342,2.503,2.4833,2.4833,2.4637,2.444,2.4341,2.4143,2.3954,2.3755,2.2828,2.1073,1.8506,1.714,1.6205,1.5482,1.5154,1.4934,1.4713,0.0,0.0,0.0,0.0,0.0,0.0,0.0,0.0,0.0,0.0,0.8634,0.772,0.7682,0.0,0.0,0.0,0.0,0.0,0.3956,0.2718,0.1482,0.0247,0.1852,0.2988,0.0513,-0.0,-0.0384,-0.1804,-0.2052,-0.2405,-0.3465,-0.382,-0.4918,-0.8196,-0.9335,-1.1111,-1.4523,-1.5512,-1.6012,0.0,0.0,-1.855,-1.9646,-2.1033,-2.2588,-2.4078,-2.4255,-2.4972,-2.6067,-2.6658,-2.7615,-2.9039,-3.0227,-3.1179,-3.1777,-3.1777,-3.2133,-3.2727,-3.2727,-3.3058,-3.3604,-3.2944,-3.3058,-3.3604,0.0,-3.3058,-3.3717,-3.4256,-3.4902,-3.5542,-3.663,-3.7822,-3.9044,-4.0658,-4.1656,-4.2375,0.0,0.0,0.0,0.0,0.0,0.0,0.0,0.0,0.0,0.0,0.0,0.0,0.0,0.0,0.0,0.0,0.0,0.0,0.0,0.0,2.5235,2.5235,2.4735,2.4529,2.4529,2.443,2.4341,2.4152,2.3854,2.3755,2.3546,2.1692,1.9738,1.7884,1.7041,1.6205,1.5261,1.4821,1.4498,1.4283,0.0,0.0,0.0,0.0,0.0,0.0,0.0,0.0,0.0,0.0,0.0,0.0,0.0,0.0,0.0,0.7148,0.4945,0.1359,0.0247,-0.0,-0.0,-0.0,-0.0,-0.0,-0.0,-0.0509,-0.1267,-0.2179,-0.2418,-0.2762,-0.3954,-0.48,-0.6991,-1.1587,-1.123,-1.1635,-1.5691,-1.5356,-1.517,-1.6342,-1.7381,-1.8872,-2.0955,-2.2195,-2.3361,-2.446,-2.4785,-2.5578,-2.6764,-2.7202,-2.8444,-3.0704,-3.1063,-3.1662,-3.2737,-3.2727,-3.2727,-3.2727,-3.2727,-3.3161,-3.4043,-3.3172,-3.3388,-3.448,-3.3491,-3.3818,-3.4902,-3.5234,-3.5772,-3.6738,-3.7832,-3.87,-3.9499,-4.1593,-4.2977,-4.3817,0.0,0.0,0.0,0.0,0.0,0.0,0.0,0.0,0.0,0.0,0.0,0.0,0.0,0.0,0.0,0.0,0.0,0.0,0.0,0.0,2.5235,2.4932,2.4627,2.4529,2.4529,2.4341,2.4053,2.3854,2.3854,2.3555,2.3046,2.0459,1.9117,1.8589,1.6518,1.5256,1.4713,1.4606,1.4175,1.3423,1.3423,0.0,0.0,0.0,0.0,0.0,0.0,0.0,0.0,0.0,0.0,0.0,0.0,0.0,0.2058,0.246,0.1358,0.0123,-0.0,-0.0,-0.0,-0.0,-0.0,-0.0,-0.0,-0.1897,-0.3666,-0.379,-0.3785,-0.4015,-0.4694,-0.5168,-0.6379,-0.9499,-1.0835,-1.2901,-1.6779,0.0,-1.7274,-1.7415,-1.8458,-1.9562,-2.0739,-2.1972,-2.3012,-2.4086,-2.442,-2.5204,-2.6491,-2.8,-2.9394,-3.0704,-3.1903,-3.2612,-3.2727,-3.2727,-3.2727,-3.2727,-3.2727,-3.2727,-3.2841,-3.2727,-3.3388,-3.448,-3.4368,-3.5013,-3.6197,-3.718,-3.7725,-3.795,-3.9141,-4.0011,-4.0866,-4.1605,-4.2498,-4.3575,0.0,0.0,0.0,0.0,0.0,0.0,0.0,0.0,0.0,0.0,0.0,0.0,0.0,0.0,0.0,0.0,0.0,0.0,0.0,2.5235,2.4932,2.4637,2.444,2.4341,2.4341,2.4251,2.4053,2.3755,2.3456,2.2736,2.1709,2.0562,1.9213,1.7647,1.6499,1.5446,1.46,1.4067,1.364,1.3315,1.2876,1.2441,0.0,0.0,0.0,0.0,0.0,0.0,0.0,0.0,0.5735,0.4205,0.2614,0.2055,0.1716,0.0986,0.037,-0.0,-0.0,-0.2346,-0.4079,-0.0864,-0.0621,-0.1878,-0.4415,-0.3135,-0.2373,-0.5676,-0.6398,-0.6091,-0.53,-0.6637,-0.8459,-1.0598,-1.2059,-1.3999,-1.712,-1.7485,-1.7485,-1.7485,-1.8972,-2.0089,-2.0438,-2.2124,-2.3263,-2.3737,-2.4743,-2.6082,-2.7598,-2.915,-3.0537,-3.1893,-3.2612,-3.2955,-3.2727,-3.2727,-3.2727,-3.2727,-3.2727,-3.3491,-3.4891,-3.4145,-3.4803,-3.6534,-3.587,-3.6197,-3.7287,-3.7725,-3.8384,-3.9037,-3.9478,-4.0231,-4.0933,-4.1371,-4.234,-4.3458,0.0,0.0,0.0,0.0,0.0,0.0,0.0,0.0,0.0,0.0,0.0,0.0,0.0,0.0,0.0,0.0,0.0,0.0,2.5235,2.4932,2.4726,2.4538,2.435,2.4152,2.4053,2.4053,2.3954,2.3646,2.2736,2.181,2.0775,1.9826,1.8478,1.681,1.6062,1.5227,1.4175,1.3532,1.3098,1.2767,1.2332,1.1782,0.0,0.0,0.0,0.0,0.0,0.0,0.0,0.0,0.5207,0.3183,0.1438,0.1097,0.1235,0.0247,-0.1235,-0.247,-0.247,-0.3332,-0.3947,-0.2837,-0.1986,-0.2749,-0.6902,-0.5119,-0.3486,-0.7149,-0.7598,-0.704,-0.6151,-0.7004,-0.8699,0.0,-1.28,-1.4619,-1.712,-1.7485,-1.7485,-1.7485,-1.9113,-2.027,-2.027,-2.2192,-2.3379,-2.3379,-2.4819,-2.6381,-2.7911,-2.942,-3.0857,-3.2385,-3.2746,-3.2819,-3.2727,-3.2727,-3.2727,-3.2727,-3.2727,-3.3706,-3.5651,-3.5223,-3.61,-3.7832,-3.7073,-3.7394,-3.8489,-3.8489,-3.8933,-3.9697,-3.9697,-4.0118,-4.077,-4.1273,-4.2138,-4.306,0.0,0.0,0.0,0.0,0.0,0.0,0.0,0.0,0.0,0.0,0.0,0.0,0.0,0.0,0.0,0.0,0.0,0.0,2.4932,2.4637,2.4529,2.4529,2.435,2.4053,2.3854,2.3746,2.3646,2.3447,2.1709,2.0767,2.0444,1.8171,1.681,1.6268,1.5125,1.4067,1.3315,1.3315,1.2659,1.1568,1.1568,1.124,1.0692,0.0,0.0,0.0,0.0,0.0,0.0,0.0,0.5201,0.1766,0.1077,0.0487,-0.0,-0.0,-0.3707,-0.7814,-0.794,-0.2216,0.1966,-0.5919,-0.4307,-0.1966,-0.678,-0.7881,-0.7937,-0.7926,-0.6905,-0.6283,-0.7253,-0.5898,-0.6248,-1.0966,-1.28,-1.4619,-1.712,-1.7485,-1.7485,-1.7485,-1.9113,-2.027,-2.027,-2.1987,-2.3014,-2.3014,-2.4436,-2.5865,-2.7095,-2.8611,-3.0175,-3.1911,-3.2043,-3.2261,-3.2727,-3.2727,-3.2727,-3.2727,-3.2727,-3.3388,-3.4591,-3.5651,-3.6846,-3.795,-3.795,-3.8607,-3.9697,-3.9697,-3.9697,-3.9697,-3.9697,-3.9993,-4.0568,-4.1119,-4.175,-4.233,0.0,0.0,0.0,0.0,0.0,0.0,0.0,0.0,0.0,0.0,0.0,0.0,0.0,0.0,0.0,0.0,0.0,0.0,2.4637,2.4529,2.444,2.435,2.4251,2.4053,2.3854,2.3447,2.3247,2.3147,2.2021,2.0672,1.931,1.8603,1.7134,1.5125,1.4798,1.4164,1.3207,1.2441,1.1896,1.1568,1.1131,1.0802,1.0363,0.0,0.0,0.0,0.0,0.0,0.0,0.0,0.0,0.0,0.1703,0.0491,-0.0,-0.0,-0.1111,-0.3212,-0.6946,-0.6181,-0.4928,-0.7303,-0.6848,-0.6114,-0.7544,-0.6813,-0.6332,-0.8161,-0.8389,-0.8005,-0.7497,-0.7858,-0.9064,-1.1335,-1.28,-1.4619,-1.712,-1.7485,-1.7713,-1.8415,-1.957,-2.0493,-2.1174,-2.232,-2.3014,-2.3014,-2.4966,-2.6462,-2.7188,-2.9332,-3.0997,-3.2012,-3.2267,-3.2486,-3.2727,-3.2727,-3.2727,-3.2727,-3.3604,-3.458,-3.5651,-3.6088,-3.7287,-3.9154,-3.9154,-3.9362,-3.9697,-3.9697,-3.9697,-3.9697,-3.9697,-3.9993,-4.0529,-4.0696,-4.1414,-4.2213,0.0,0.0,0.0,0.0,0.0,0.0,0.0,0.0,0.0,0.0,2.544,0.0,0.0,0.0,0.0,0.0,0.0,0.0,0.0,2.4341,2.4242,2.4053,2.4053,2.3854,2.3447,2.3046,2.2745,2.2434,2.1522,2.0269,1.8805,1.8192,1.7035,1.5238,1.5125,1.4696,1.3948,1.2758,1.2105,1.1669,1.0907,1.0406,1.0139,0.0,0.0,0.0,0.0,0.0,0.0,0.0,0.0,0.0,0.3428,0.2092,0.0986,-0.2221,-0.2097,-0.2094,-0.668,-0.7163,-0.6528,-0.7659,-0.7202,-0.6843,-0.7905,-0.7148,-0.6778,-0.8509,-0.9004,-0.8992,-0.848,-0.9704,-1.116,-1.232,-1.3646,-1.5213,-1.7244,-1.7485,-1.783,-1.8765,-1.9693,-2.0608,-2.1509,-2.2433,-2.3014,-2.3014,-2.5186,-2.6591,-2.6949,-2.9279,-3.0943,-3.1584,-3.1902,-3.2225,-3.256,-3.2633,-3.2727,-3.2727,-3.3388,-3.4357,-3.5542,-3.5979,-3.6954,-3.8372,-3.8816,-3.9258,-3.9697,-3.9697,-3.9697,-3.9697,-3.9788,-4.0096,-4.0504,-4.0593,-4.1116,-4.186,0.0,0.0,0.0,0.0,0.0,0.0,0.0,0.0,0.0,0.0,2.5235,2.5137,0.0,0.0,0.0,0.0,0.0,0.0,0.0,0.0,2.4053,2.3755,2.3755,2.3546,2.3046,2.2644,2.2241,2.1623,2.0696,1.9665,1.8722,1.747,1.6723,1.6299,1.6099,1.5559,1.4905,1.383,1.2866,1.201,1.1038,1.0381,1.0085,0.9851,0.0,0.0,0.0,0.0,0.0,0.0,0.0,0.0,0.588,0.4427,0.2214,-0.4444,-0.4808,-0.3808,-0.7025,-0.6145,-0.4901,-0.7373,-0.6381,-0.5513,-0.7994,-0.8494,-0.8613,-0.8857,-0.9111,-0.9358,-0.9704,-1.1183,-1.2647,-1.3555,-1.4738,-1.6048,-1.7361,-1.7485,-1.783,-1.8881,-1.9809,-2.0723,-2.1623,-2.2546,-2.3014,-2.3014,-2.5186,-2.6481,-2.659,-2.8784,-3.0307,-3.1073,-3.12,-3.1646,-3.2347,-3.256,-3.2696,-3.2727,-3.2727,-3.3275,-3.4368,-3.5553,-3.6088,-3.6294,-3.7287,-3.8384,-3.9362,-3.9362,-3.9478,-3.9581,-3.9865,-4.0173,-4.0605,-4.0795,-4.1097,-4.1389,0.0,0.0,0.0,0.0,0.0,0.0,0.0,0.0,0.0,0.0,0.0,0.0,0.0,0.0,0.0,0.0,0.0,0.0,0.0,0.0,2.3755,2.3546,2.3247,2.3147,2.3046,2.2232,2.1632,2.1121,2.0814,2.0086,1.8826,1.8534,1.7687,1.6293,1.6193,1.566,1.46,1.3943,1.35,1.3322,1.3106,1.2338,1.138,1.1265,1.0375,0.0,0.0,0.0,0.0,0.0,0.0,0.0,0.7521,0.4312,0.1355,0.3826,-0.0863,-0.6927,-0.7664,-0.7526,-0.7266,-0.8133,-0.8119,-0.8108,-0.8729,-0.8976,-0.922,-0.948,-0.9473,-0.9342,-0.97,-1.0914,-1.2242,-1.355,-1.4738,-1.6048,-1.7361,-1.7485,-1.8064,-1.9809,-2.0155,-2.096,-2.2554,-2.2901,-2.3014,-2.3014,-2.5186,-2.659,-2.6816,-2.8784,-3.0307,-3.1073,-3.0995,-3.1324,-3.2479,-3.2249,-3.259,0.0,-3.2955,-3.2955,-3.3512,-3.448,-3.5333,-3.6185,-3.6414,-3.6738,-3.6954,-3.6954,-3.7595,-3.8558,-3.865,-3.9609,-4.0795,-4.0883,-4.1097,-4.1337,0.0,0.0,0.0,0.0,0.0,0.0,0.0,0.0,0.0,0.0,0.0,0.0,0.0,0.0,0.0,0.0,0.0,0.0,0.0,0.0,2.3646,2.3247,2.2946,2.2846,2.2846,2.203,2.142,2.0925,2.0609,1.9983,1.8848,1.875,1.8115,1.7153,1.6942,1.6518,1.5791,1.5036,1.4609,1.4288,1.3851,1.3122,1.2267,1.1566,1.0692,0.972,0.896,0.0,0.0,0.0,0.0,0.0,0.0,0.0,0.377,0.3868,0.1937,-0.1459,-0.6465,-0.6982,-0.6392,-0.8247,-0.8738,-0.8976,-0.9217,-0.946,-0.9582,-0.9714,-0.9707,-0.9579,-0.9822,-1.1386,-1.2946,-1.3545,-1.5332,-1.6767,-1.7361,-1.7948,-1.8642,-2.0155,-2.0723,-2.1524,-2.2901,-2.3014,-2.3014,-2.3014,-2.465,-2.5954,-2.6707,-2.8232,-2.9646,-3.0748,-3.0872,-3.1333,-3.2363,-3.2364,-3.2822,-3.3625,-3.3182,-3.2965,-3.2965,-3.3388,-3.4256,-3.5443,-3.5553,-3.587,-3.6402,-3.6522,-3.7382,-3.8558,-3.8662,-3.9622,-4.0883,-4.0997,-4.1211,-4.1311,0.0,0.0,0.0,0.0,0.0,0.0,0.0,0.0,0.0,0.0,0.0,0.0,0.0,0.0,0.0,0.0,0.0,0.0,0.0,0.0,0.0,2.2946,2.2745,2.2644,2.2644,2.1937,2.1326,2.0925,2.0189,1.9472,1.8764,1.8534,1.822,1.8016,1.7694,1.7411,1.7158,1.629,1.5765,1.531,1.4509,1.3808,1.3297,1.2115,1.126,1.0547,0.9217,0.8488,0.8244,0.7994,0.0,0.0,0.0,0.0,0.6941,0.2356,0.3554,0.4664,-0.3225,-0.4711,-0.4882,-0.8102,-0.8976,-0.9095,-0.97,-0.9822,-0.9822,-0.9822,-0.9822,-0.9822,-0.9822,-1.1985,-1.3665,-1.3665,-1.5811,-1.7485,-1.7485,-1.8298,-1.9229,-2.0155,-2.106,-2.1972,-2.2901,-2.3014,-2.3014,-2.3014,-2.4119,-2.5313,-2.649,-2.7678,-2.8986,-3.0391,-3.0769,-3.1402,-3.2083,-3.2551,-3.304,-3.362,-3.3367,-3.3079,-3.2841,-3.2841,-3.3275,-3.4267,-3.4591,-3.5234,-3.6088,-3.6426,-3.718,-3.836,-3.8779,-3.9622,-4.0769,-4.111,-4.1311,-4.1311,0.0,0.0,0.0,0.0,0.0,0.0,0.0,0.0,0.0,0.0,2.452,2.3746,0.0,0.0,0.0,0.0,0.0,0.0,0.0,0.0,0.0,2.2644,2.2644,2.2644,2.2644,2.153,2.1019,2.0925,1.9687,1.8862,1.8429,1.8422,1.822,1.8016,1.749,1.7203,1.7118,1.6714,1.6666,1.6756,1.6436,1.5665,1.4806,1.4341,1.2564,1.0304,1.0065,0.9089,0.7994,0.7872,0.7807,0.0,0.0,0.0,0.7319,0.6605,0.3528,0.1058,0.4121,0.0119,-0.5542,-0.8204,-0.9098,-0.9335,-0.97,-0.9822,-0.9822,-0.9822,-0.9822,-0.9822,-0.9822,-1.1985,-1.3665,-1.3665,-1.5811,-1.7485,-1.7485,-1.8298,-1.9229,-2.0155,-2.106,-2.1972,-2.2901,-2.3014,-2.3014,-2.3014,-2.4119,-2.5423,-2.6816,-2.7999,-2.9187,-3.0391,-3.0673,-3.1031,-3.1593,-3.2061,-3.2758,-3.3791,-3.3658,-3.3512,-3.3512,-3.3182,-3.3193,-3.3409,-3.3625,-3.384,-3.4054,-3.4054,-3.4914,-3.6294,-3.737,-3.8546,-3.9917,-4.0883,-4.1311,-4.1311,0.0,0.0,0.0,0.0,0.0,0.0,0.0,0.0,0.0,0.0,0.0,2.3447,0.0,0.0,0.0,0.0,0.0,0.0,0.0,0.0,0.0,2.2644,2.2644,2.2443,2.2131,2.1326,2.0712,2.0498,1.9383,1.8757,1.8422,1.8108,1.7799,1.749,1.7285,1.7122,1.6848,1.6888,1.6843,1.6863,1.7012,1.6663,1.5811,1.5095,1.3899,1.2225,1.0778,0.9687,0.8839,0.8113,0.7796,0.769,0.7625,0.0,0.0,0.0,0.4721,0.2086,0.1634,-0.2114,-0.6403,-0.837,-0.8985,-0.9222,-0.9456,-0.9574,-0.9574,-0.9574,-0.9574,-0.9863,-1.0752,-1.2466,-1.3904,-1.4619,-1.6284,-1.7485,-1.7485,-1.8758,-1.9809,-2.027,-2.1524,-2.2546,-2.3014,-2.3014,-2.3014,-2.3014,-2.4119,-2.5313,-2.6599,-2.7785,-2.8986,-3.0088,-3.0401,-3.0831,-3.1487,-3.2191,-3.3019,-3.3996,-3.3866,-3.3749,-3.3625,-3.3636,-3.3646,-3.3409,-3.3749,-3.3861,-3.3861,-3.4076,-3.4825,-3.6111,-3.7263,-3.8533,-3.9712,-4.0883,-4.1311,-4.1311,0.0,0.0,0.0,0.0,0.0,0.0,0.0,0.0,0.0,0.0,0.0,0.0,0.0,0.0,0.0,0.0,0.0,0.0,0.0,0.0,0.0,2.2644,2.2443,2.2139,2.1725,2.1011,2.0506,1.9983,1.9168,1.8646,1.8325,1.7799,1.7378,1.7067,1.7038,1.701,1.6844,1.6894,1.6822,1.6733,1.7049,1.6891,1.6419,1.5693,1.4857,1.378,1.1852,1.0528,0.9684,0.8717,0.8013,0.7641,0.7546,0.7421,0.0,0.0,0.0,0.2515,-0.1738,-0.4075,-0.5832,-0.7968,-0.8451,-0.8564,-0.9265,-0.9381,-0.9381,0.0,-0.9613,-1.0259,-1.1802,-1.2958,-1.4059,-1.5247,-1.6603,-1.7596,-1.783,-1.9229,-2.0385,-2.0608,-2.1987,-2.3014,-2.3014,-2.3014,-2.3014,-2.3014,-2.4119,-2.5313,-2.649,-2.7678,-2.888,-2.9994,-3.0297,-3.0768,-3.1211,-3.2233,-3.3182,-3.4015,-3.4032,-3.3974,-3.3851,-3.3974,-3.3974,-3.3851,-3.4086,-3.4199,-3.4199,-3.4412,-3.4947,-3.5916,-3.737,-3.8428,-3.939,-4.0782,-4.1311,-4.1311,0.0,0.0,0.0,0.0,0.0,0.0,0.0,0.0,0.0,0.0,0.0,0.0,2.2644,2.2644,2.2644,2.2644,2.2644,0.0,0.0,0.0,0.0,2.2644,2.203,0.0,2.1725,2.0696,1.9983,1.968,1.884,1.8325,1.8016,1.7496,1.706,1.6743,1.6692,1.6857,1.7012,1.6714,1.675,1.7003,1.6649,1.6537,1.6419,1.6194,1.5235,1.4023,1.3665,1.1976,0.9805,0.9684,0.8668,0.7527,0.7521,0.713,0.6386,0.0,0.0,0.0,-0.2519,-0.2526,-0.2647,-0.6311,-0.7161,-0.763,-0.9029,-0.9381,-0.9381,-0.9381,-1.0301,-1.145,-1.2721,-1.323,-1.383,-1.5009,-1.6488,-1.783,-1.8642,-1.9693,-2.0608,-2.1395,-2.2433,-2.3014,-2.3014,-2.3014,-2.3014,-2.3014,-2.4119,-2.5313,-2.649,-2.7892,-2.9092,-2.9994,-3.0516,-3.0734,-3.0422,-3.1977,-3.3117,-3.3835,-3.3982,-3.4199,-3.4412,-3.4199,-3.4199,-3.4412,-3.4524,-3.4524,-3.4524,-3.4524,-3.4524,-3.4847,-3.7049,-3.7902,-3.8218,-4.0465,-4.1311,-4.1311,0.0,0.0,0.0,0.0,0.0,0.0,0.0,0.0,0.0,0.0,0.0,0.0,0.0,2.2644,2.2644,2.2644,2.2644,0.0,0.0,0.0,0.0,2.153,2.1326,2.1019,2.0696,2.0285,1.9776,1.9175,1.8639,1.8213,1.7694,1.716,1.6838,1.6686,1.6683,1.6655,1.6476,1.6624,1.6541,1.6436,1.6425,1.6425,1.6194,1.6312,1.5952,1.5116,1.3421,1.2577,1.1976,0.9441,0.8662,0.8555,0.7513,0.7008,0.6154,0.3689,0.1679,-0.0337,-0.2819,-0.3161,-0.3389,-0.5451,-0.6596,-0.7279,-0.7847,-0.853,-0.9318,-1.0092,-1.0536,-1.1424,-1.3417,-1.4056,-1.4765,-1.5921,-1.6576,-1.7381,-1.8466,-1.9394,-2.048,-2.1479,-2.2433,-2.3014,-2.3014,-2.3014,-2.3344,-2.4119,-2.5194,-2.6381,-2.7571,-2.8774,-2.9659,-2.9994,-3.0203,-3.0444,-3.0842,-3.1593,-3.2362,-3.3254,-3.3547,-3.3896,-3.4199,-3.43,-3.4412,-3.4524,-3.4524,-3.4524,-3.4524,-3.4524,-3.4524,-3.4736,-3.7061,-3.789,-3.8218,-4.0453,-4.1311,-4.1311,0.0,0.0,0.0,0.0,0.0,0.0,0.0,0.0,0.0,2.4125,0.0,0.0,0.0,0.0,2.2544,2.2342,2.2342,2.2038,2.1428,2.142,2.1216,2.0925,2.0712,2.0498,2.0086,1.9879,1.9368,1.8757,1.8429,1.801,1.7483,1.6948,1.6668,1.6733,1.66,1.6456,1.638,1.6414,1.6277,1.6087,1.5822,1.5828,1.6081,1.5822,1.5828,1.5839,1.354,1.2817,1.2577,0.9562,0.8692,0.8617,0.7524,0.6546,0.5258,0.2795,0.112,-0.0448,-0.2464,-0.3024,-0.3357,-0.5027,-0.5697,-0.6258,-0.7487,-0.8045,-0.8706,-1.0347,-1.1,-1.1873,-1.384,-1.4757,-1.545,-1.6444,-1.6863,-1.7534,-1.8619,-1.9529,-2.0536,-2.1759,-2.2487,-2.2887,-2.3006,-2.3014,-2.3344,-2.4119,-2.5626,0.0,-2.7571,-2.9112,-2.9994,-2.9994,-2.9994,-3.0244,-3.0853,-3.1212,-3.1794,-3.2678,-3.3069,-3.3512,-3.4097,-3.4311,-3.4412,-3.4524,-3.4524,-3.4524,-3.4524,-3.4524,-3.4524,-3.4736,-3.7061,-3.789,-3.8218,-4.0453,-4.1311,-4.1311,0.0,0.0,0.0,0.0,0.0,0.0,0.0,0.0,2.5499,2.4026,0.0,0.0,0.0,0.0,0.0,2.1725,2.1725,2.142,2.0917,2.0925,2.0917,2.0814,2.0395,2.0078,2.0078,1.9279,1.8757,1.8422,1.8122,1.7701,1.7173,1.6842,1.6675,1.6642,1.6345,1.638,1.6529,1.6211,1.6087,1.5963,1.4629,1.4873,1.5844,1.4624,1.4873,1.572,1.4147,1.2817,1.1491,1.0286,0.8871,0.7676,0.7311,0.5741,0.3694,0.2239,0.0896,-0.0224,0.0,0.0,0.0,-0.4804,-0.447,-0.4583,-0.8042,0.0,-0.7814,-1.0233,-1.1651,-1.2743,-1.4056,-1.5137,-1.5982,-1.6254,-1.7158,-1.8209,-1.9105,-2.0092,-2.1091,-2.2316,-2.2482,-2.2625,-2.2966,-2.3006,-2.3014,-2.3014,-2.5186,-2.6481,-2.659,-2.8784,-2.9994,-2.9994,-2.9994,-3.0088,-3.0391,-3.0842,-3.1411,-3.2189,-3.2668,-3.3258,-3.4076,-3.4086,-3.4199,-3.4524,-3.4524,-3.4524,-3.4524,-3.4524,-3.4524,-3.4736,-3.7061,-3.789,-3.8218,-4.0453,-4.1311,-4.1311,0.0,0.0,0.0,0.0,0.0,2.7117,2.6945,2.6486,2.5897,0.0,0.0,0.0,2.3429,2.2535,2.1733,2.1121,2.1121,2.0909,2.0395,2.0292,2.0189,1.9791,1.9583,1.948,1.948,1.9071,1.8757,1.8422,1.7898,1.7378,1.6842,1.653,1.6349,1.6357,1.5985,1.6035,1.6217,1.6172,1.5963,1.572,1.5353,1.4873,1.4272,1.3904,1.3421,1.2697,1.1374,1.1249,1.1491,1.0286,1.0063,1.0241,0.8587,0.6019,0.3469,0.2127,0.0896,-0.0224,-0.1458,0.0,0.0,0.0,0.0,0.0,-0.7152,0.0,-0.9037,-1.1437,-1.2195,-1.3068,-1.5024,-1.5672,-1.5916,-1.5994,-1.6807,-1.7775,-1.8846,-1.9757,-2.075,-2.1952,-2.2331,-2.2529,-2.2625,-2.2863,-2.3344,0.0,-2.5626,-2.6806,-2.7678,-2.9217,-2.9994,-2.9994,-2.9994,-2.9994,-3.0099,-3.0223,-3.062,-3.1089,-3.1766,-3.2448,-3.2923,-3.3711,-3.4086,-3.4199,-3.4412,-3.4524,-3.4524,-3.4524,-3.4524,-3.4736,-3.7061,-3.789,-3.8218,-4.0453,-4.1311,-4.1311,0.0,0.0,0.0,0.0,0.0,2.7262,2.7262,2.6582,2.5994,0.0,0.0,0.0,2.2627,2.1818,2.1113,2.0601,2.0609,2.0292,1.9776,1.9783,1.9576,1.9272,1.9279,1.9279,1.9175,1.8862,1.8541,1.822,1.7694,1.716,1.673,1.6318,1.6175,1.6233,1.5676,1.5736,1.6087,1.5963,1.572,1.5477,1.4386,1.3904,1.3545,1.2457,1.1972,1.1491,1.0286,1.0649,1.1491,1.0286,1.026,1.0608,0.8866,0.6786,0.4474,0.2462,0.1344,0.0336,-0.1346,-0.213,-0.28,-0.4026,0.0,0.0,-0.8137,-0.8806,-0.9684,0.0,-1.3181,-1.3722,-1.5565,-1.5891,-1.5992,-1.6411,-1.7147,-1.7945,-1.8646,-1.9746,-2.0829,-2.1597,-2.1934,-2.2164,-2.2458,-2.2672,-2.3182,-2.3999,-2.5516,-2.7248,-2.889,-2.9659,-2.9994,-2.9994,-2.9994,-2.9994,-2.9994,-2.9994,-3.0232,-3.0688,-3.1173,-3.1751,-3.25,-3.3109,-3.3567,-3.3861,-3.4188,-3.4624,-3.5035,-3.5157,-3.5168,-3.5378,-3.7156,-3.8218,-3.8859,-4.0668,-4.1311,-4.1311,0.0,0.0,2.6103,2.6568,2.6982,2.7262,2.7061,2.6476,2.579,0.0,2.3809,2.2417,2.1019,2.0814,2.0609,2.0086,1.9975,1.9783,1.9376,1.9279,1.9279,1.9279,1.9279,1.9175,1.8869,1.8534,1.822,1.8016,1.7384,1.6955,1.673,1.6099,1.5958,1.6121,1.5564,1.5615,1.6087,1.572,1.5477,1.5235,1.2817,1.2577,1.3181,1.077,1.0407,1.1129,1.0044,1.0286,1.1125,1.0265,0.9947,0.9683,0.8729,0.7584,0.6042,0.2909,0.1903,0.1344,-0.1009,-0.2576,-0.3914,-0.5139,-0.5472,0.0,-0.979,-0.9673,-0.9881,0.0,-1.4051,-1.4487,-1.5779,-1.5998,-1.6205,-1.7041,-1.7891,-1.8527,-1.8527,-1.9879,-2.1044,-2.1354,-2.1425,-2.1695,-2.2307,-2.2442,-2.2617,-2.2934,-2.516,-2.7463,-2.9879,-2.9994,-2.9994,-2.9994,-2.9994,-2.9994,-2.9994,-2.9994,-3.0201,-3.0605,-3.0667,-3.1252,-3.2416,-3.2469,-3.2854,-3.3636,-3.4086,-3.4825,-3.587,-3.622,-3.634,-3.6545,-3.769,-3.8742,-3.9712,-4.0883,-4.1311,-4.1311,2.5668,2.6123,2.6579,2.7044,2.72,2.6955,2.5848,2.5557,2.5363,2.4992,2.4097,2.2693,2.049,2.0292,2.0086,1.948,1.948,1.9376,1.9279,1.9279,1.9175,1.8974,1.8974,1.8862,1.8534,1.822,1.8016,1.8016,1.7166,1.6736,1.673,1.6099,1.5958,1.6233,1.5789,1.5851,1.6087,1.572,1.4992,1.4028,1.3545,1.2817,1.1972,1.0407,0.9319,0.8596,0.8355,0.8477,0.8942,1.0502,1.0567,0.991,0.9734,0.8357,0.6265,0.3916,0.2574,0.1456,-0.0,-0.1903,-0.3914,-0.5139,-0.6144,0.0,-0.8819,-0.904,-0.9691,0.0,-1.3048,-1.3809,-1.6086,-1.6518,-1.6624,-1.673,-1.829,-1.9339,-1.9465,-2.03,-2.0948,-2.102,-2.1282,-2.1505,-2.164,-2.2156,-2.2521,-2.2585,-2.5003,-2.7463,-2.9879,-2.9994,-2.9994,-2.9994,-2.9994,-2.9994,-2.9994,-2.9994,-3.0046,-3.0129,-3.0512,-3.0977,-3.1626,-3.2211,-3.2742,-3.3296,-3.4613,-3.5356,-3.587,-3.6858,-3.7394,-3.769,-3.8859,-3.939,-3.9712,-4.0883,-4.1311,-4.1411,2.5829,2.6321,2.6713,2.6999,2.7081,2.688,2.6177,2.5168,2.4473,2.4295,2.3393,2.219,2.0688,2.0987,2.1183,2.0885,2.0388,2.0086,1.9879,1.9376,1.8966,1.8646,1.8646,1.8541,1.822,1.8122,1.7911,1.7595,1.6948,1.6624,1.653,1.5897,1.5453,1.5144,1.5395,1.532,1.5077,1.5429,1.5235,1.451,1.3181,1.1972,1.0649,0.9323,0.8477,0.7872,0.7872,0.8355,0.9169,1.1083,1.1173,1.0478,0.9756,0.8523,0.6816,0.436,0.2798,0.1567,0.0336,-0.2237,-0.4693,-0.525,-0.6702,0.0,0.0,-1.0457,-1.1428,-1.3485,-1.4347,-1.5102,-1.6511,-1.7147,-1.7667,-1.808,-1.942,-2.0364,-2.0277,-2.1105,-2.1725,-2.1725,-2.189,-2.2072,-2.2262,-2.2765,-2.3661,-2.4889,-2.5946,-2.7463,-2.9879,-2.9994,-2.9994,-2.9994,-2.9994,-2.9994,-2.9994,-2.9994,-2.9994,-2.9994,-3.0232,-3.0584,-3.105,-3.224,-3.3026,-3.3598,-3.5244,-3.6414,-3.7145,-3.782,-3.857,-3.9196,-3.9494,-3.993,-4.0554,-4.1458,-4.1868,-4.1954,2.5981,2.6371,2.664,2.6829,2.6805,2.6699,2.6496,2.4992,2.3791,2.3493,2.2693,2.1887,2.1285,2.1988,2.2584,2.2584,2.1785,2.1081,2.0577,1.9672,1.8959,1.8318,1.8318,1.822,1.7911,1.7911,1.7701,1.7179,1.6842,1.6524,1.6324,1.5797,1.5172,1.4514,1.4831,1.4738,1.4316,1.4969,1.5074,1.4629,1.2577,1.1249,1.0407,0.8839,0.8233,0.8233,0.7872,0.8459,0.9607,1.1129,1.1224,1.0315,0.9252,0.838,0.7254,0.4472,0.2798,0.1567,0.0336,-0.2461,-0.5139,-0.5361,-0.7035,-0.904,0.0,0.0,0.0,-1.468,0.0,-1.6617,-1.7041,0.0,0.0,0.0,0.0,0.0,0.0,-2.2064,0.0,-2.2215,-2.2325,-2.2655,-2.2972,-2.3408,-2.4677,-2.7106,-2.6887,-2.7688,-2.9879,-2.9994,-2.9994,-2.9994,-2.9994,-2.9994,-2.9994,-2.9994,-3.0088,-3.0297,-3.0297,-3.0643,-3.1317,-3.2605,-3.3512,-3.4194,-3.5983,-3.7275,-3.8323,-3.8884,-3.9647,-4.0504,-3.9943,-4.0453,-4.1498,-4.2137,-4.2404,-4.2709,2.6103,2.6344,2.6532,2.6592,2.6506,2.61,2.4992,2.459,2.3989,2.2785,2.3285,2.3484,2.2391,2.2685,2.2885,2.2885,2.2785,2.2181,2.0955,2.0475,1.9665,1.8122,1.8016,1.7905,1.7687,1.7687,1.7483,1.7179,1.6842,1.6524,1.6324,1.5998,1.5923,1.5949,1.442,1.4574,1.5704,1.4316,1.3136,1.2093,1.1852,1.2337,1.2942,1.0528,0.9562,0.9441,0.7991,0.7686,0.819,0.9693,0.9268,0.8256,0.901,0.813,0.6376,0.425,0.2798,0.1567,0.0336,-0.1903,-0.4026,-0.5139,-0.6366,-0.7925,-1.0229,0.0,-1.1973,-1.4465,0.0,-1.6268,-1.8492,0.0,0.0,0.0,0.0,0.0,-2.1849,-2.3107,-2.3229,-2.1293,-2.1912,-2.2544,0.0,-2.3246,-2.4571,-2.671,-2.7176,-2.8145,-2.9889,-2.9994,-2.9994,-2.9994,-2.9994,-2.9994,-2.9994,-2.9994,-3.0495,-3.1381,-3.1381,-3.2145,-3.356,-3.372,-3.4347,-3.5333,-3.6461,-3.7493,-3.8441,-3.9531,-4.0185,-4.0504,-4.0389,-4.1071,-4.194,-4.2025,-4.2625,-4.3586,2.6024,2.6365,2.6496,2.6294,2.6294,2.6091,2.5489,2.4796,2.389,2.2685,2.3384,2.389,2.3493,2.4097,2.452,2.452,2.3998,2.3285,2.2567,2.1057,1.9842,1.8923,1.8206,1.7694,1.7582,1.7483,1.7166,1.6955,1.6636,1.6318,1.6105,1.5791,1.5308,1.4744,1.3778,1.3384,1.3468,1.3481,1.3161,1.2776,1.2773,1.3181,1.3306,0.9926,0.8717,0.8587,0.7672,0.7378,0.7554,0.823,0.799,0.7547,0.7699,0.7307,0.6267,0.425,0.2798,0.1567,0.0336,-0.1231,-0.3017,-0.4914,-0.5802,-0.7014,-1.0441,-1.1755,-1.294,-1.5108,0.0,0.0,0.0,0.0,0.0,0.0,-2.2615,0.0,0.0,0.0,-2.3845,0.0,0.0,0.0,-2.3776,0.0,0.0,-2.7151,-2.7554,-2.841,-2.9869,-2.9994,-2.9994,-2.9994,-2.9994,-2.9994,-2.9994,-3.0588,-3.1176,-3.1575,-3.2185,-3.2903,-3.3534,-3.4427,-3.527,-3.6069,-3.7551,-3.8518,-3.9221,-4.0338,-4.0844,-4.0958,-4.1544,-4.194,-4.2124,-4.3163,-4.3857,-4.4355,2.5917,2.611,2.6207,2.6014,2.6004,2.6004,2.6004,2.5206,2.4304,2.3502,2.4097,2.4501,2.4501,2.5314,2.583,2.583,2.5109,2.4393,2.389,2.1963,2.0641,2.0238,1.8812,1.8094,1.8199,1.7483,1.706,1.673,1.6424,1.6111,1.5791,1.525,1.4493,1.3516,1.2903,1.2228,1.1522,1.2474,1.2628,1.2342,1.2487,1.2306,1.1721,0.9294,0.8094,0.7691,0.7245,0.7057,0.7102,0.7201,0.7111,0.0,0.6774,0.64,0.5481,0.3692,0.2239,0.1008,-0.0112,-0.1344,-0.2794,-0.4914,-0.5688,-0.6895,-1.0874,-1.2512,-1.3809,-1.5755,-1.6935,0.0,0.0,0.0,-2.1261,-2.2589,0.0,-2.3908,0.0,-2.3574,0.0,0.0,0.0,0.0,0.0,0.0,-2.6025,-2.7796,-2.8048,-2.8733,-3.0068,-2.9994,-2.9994,-2.9994,-2.9994,-3.0088,-3.0391,-3.1176,-3.188,-3.2476,-3.3289,-3.3796,-3.4103,-3.5282,-3.6136,-3.6685,-3.8066,-3.9133,-3.9956,-4.088,-4.1419,-4.1703,-4.2778,-4.2985,-4.2792,-4.4125,-4.4805,-4.5124,2.5732,2.5742,2.5742,2.5732,2.5732,2.5732,2.5732,2.5635,2.5635,2.5635,2.5635,2.5635,2.5635,2.5917,2.61,2.61,2.6091,2.5489,2.4187,2.3484,2.2776,2.1651,2.0033,1.922,1.9524,1.7996,1.706,1.673,1.6424,1.601,1.5482,1.4256,1.3599,1.329,1.1769,1.1321,1.1492,1.1164,1.0482,0.9487,0.949,0.88,0.7786,0.8859,0.8398,0.722,0.6616,0.0,0.0,0.7006,0.6553,0.0,0.0,0.0,0.3469,0.2239,0.1008,-0.0224,-0.1458,-0.2576,-0.3802,-0.5139,-0.6255,-0.8029,-1.1538,-1.2842,-1.3917,-1.6187,-1.7153,-1.8304,-2.0467,-2.0885,-2.1484,-2.3232,-2.3895,0.0,0.0,-2.3904,-2.3746,-2.2728,0.0,0.0,0.0,-2.6094,-2.6614,-2.8456,-2.8706,-2.926,-3.037,-3.0088,-2.9994,-2.9994,-2.9994,-3.0495,-3.1586,-3.1575,-3.2678,-3.4678,-3.4775,-3.5271,-3.6263,-3.637,-3.6684,-3.7236,-3.7789,-3.8911,-4.0435,-4.0997,-4.1815,-4.2889,-4.3829,-4.4219,-4.4219,-4.4312,-4.4989,-4.588,2.5742,2.5742,2.5742,2.5742,2.5742,2.5742,2.5742,2.5742,2.5742,2.5742,2.5742,2.5742,2.5742,2.583,2.583,2.583,2.583,2.5625,2.5216,2.3998,2.3185,2.3076,2.1269,2.0048,1.9302,1.8492,1.7463,1.6424,1.601,1.5696,1.5482,1.3938,1.3068,1.2965,1.0672,0.9717,0.9772,0.9879,0.9617,0.9339,0.9439,0.9132,0.8681,0.0,0.7726,0.7092,0.6553,0.6253,0.0,0.6048,0.5766,0.5607,0.5864,0.4834,0.3357,0.2127,0.0896,-0.0224,0.0,0.0,-0.1903,-0.4691,0.0,0.0,-1.1511,-1.294,-1.4024,-1.6524,-1.7378,-1.8101,-1.9539,-2.0364,-2.1355,-2.2655,-2.3556,-2.4106,0.0,-2.406,-2.4242,-2.4304,-2.4707,-2.5099,0.0,0.0,0.0,-2.7814,-2.8731,-2.9674,-3.0578,-3.0401,-3.0297,-3.0297,-3.0099,-3.0484,-3.1575,-3.2286,-3.3388,-3.4775,-3.5571,-3.6061,-3.6358,-3.6358,-3.6659,-3.7308,-3.8518,-3.9557,-4.0507,-4.2424,-4.345,-4.3937,-4.4911,-4.5398,-4.5398,-4.5398,-4.5595,-4.588,2.5742,2.5421,2.5226,2.5635,2.5742,2.5742,2.5742,2.5742,2.5742,2.5742,2.5742,2.5742,2.5742,2.5742,2.5742,2.5742,2.5742,2.5742,2.5742,2.4618,2.4106,2.4304,2.2593,2.1269,2.0531,1.9102,1.7975,1.7047,1.6004,1.5482,1.5261,1.3181,1.22,1.1982,0.9904,0.8702,0.8377,0.891,0.895,0.8507,0.86,0.8638,0.841,0.0,0.7297,0.7319,0.0,0.5945,0.5797,0.5512,0.5382,0.5382,0.5382,0.4257,0.2797,0.2015,0.0672,-0.0785,-0.157,-0.1569,0.0,-0.4691,-0.5133,0.0,-1.0967,0.0,-1.3588,-1.5322,-1.6505,-1.7351,-1.7613,-1.9295,-2.0963,-2.1651,-2.3103,-2.4152,0.0,-2.4152,-2.444,-2.5197,-2.5109,-2.5197,-2.6061,-2.635,-2.7023,-2.8225,-2.8707,-2.9516,-3.0785,0.0,-3.0287,-3.0391,-3.0495,-3.1094,-3.2185,-3.3189,-3.4288,-3.5379,-3.6061,-3.6358,-3.6358,-3.6358,-3.6558,-3.7018,-3.8592,-3.9807,-4.0853,-4.3059,-4.4315,-4.4897,-4.5595,-4.588,-4.588,-4.588,-4.588,-4.588,2.5732,2.4805,2.4402,2.543,2.5635,2.5635,2.5732,0.0,2.5742,2.5742,2.5742,2.5742,2.5742,2.5742,2.5742,2.5742,2.5742,2.5732,2.5635,2.544,2.5235,2.5235,2.38,2.2894,2.2885,2.0025,1.8492,1.8387,1.6418,1.5261,1.4928,1.2417,1.1,1.0672,0.9467,0.826,0.7265,0.8371,0.8149,0.7154,0.7154,0.7265,0.7265,0.6824,0.7337,0.7998,0.6182,0.5449,0.5382,0.5382,0.5382,0.5382,0.5382,0.3696,0.1791,0.1679,-0.0,-0.1795,-0.1795,-0.2689,-0.3804,-0.5139,-0.6255,0.0,0.0,0.0,-1.2719,-1.2827,-1.4883,-1.628,-1.5146,-1.7991,-2.0405,-2.0327,-2.2541,-2.4152,-2.4152,-2.4152,-2.444,-2.5197,-2.4627,-2.5109,-2.7305,-2.6254,-2.6633,-2.9458,-2.8807,-2.9001,0.0,0.0,-3.0193,-3.0391,-3.1187,-3.2083,-3.3201,-3.4288,-3.5367,-3.6358,-3.6358,-3.6358,-3.6358,-3.6358,-3.6452,-3.6572,-3.8049,-3.9615,-4.1292,-4.2859,-4.4433,-4.588,-4.588,-4.588,-4.588,-4.588,-4.588,-4.588,2.4698,2.4295,2.4196,2.4501,2.4501,2.4805,0.0,0.0,0.0,2.5742,2.5742,2.5742,2.5742,2.5742,2.5742,2.5742,2.5742,2.5635,2.544,2.5137,2.503,2.503,2.4233,2.352,2.2584,2.0641,1.9109,1.8087,1.6092,1.5041,1.4928,1.296,1.1542,1.0672,0.9467,0.826,0.7265,0.7485,0.7485,0.7154,0.7154,0.7706,0.826,0.0,0.7062,0.7859,0.6303,0.5622,0.5382,0.5382,0.5382,0.5268,0.4367,0.3023,0.1679,0.0672,-0.0561,-0.1795,-0.1795,-0.2018,-0.28,-0.4916,-0.5584,-0.6692,0.0,0.0,0.0,0.0,0.0,0.0,-1.6168,-1.8561,-2.042,-2.0405,-2.2484,-2.4152,-2.4152,-2.4152,-2.4251,-2.444,-2.4637,-2.502,-2.5771,-2.636,-2.7227,-2.8335,-2.8995,-2.9906,-3.1073,0.0,0.0,-3.0391,-3.1403,-3.2308,-3.3201,-3.4288,-3.5367,-3.6358,-3.6358,-3.6358,-3.6358,-3.6358,-3.6815,-3.7572,-3.9148,-4.0641,-4.2244,-4.3881,-4.5092,-4.588,-4.588,-4.588,-4.588,-4.588,-4.588,-4.588,2.5011,2.4402,2.4088,2.4088,0.0,0.0,2.5538,2.5742,0.0,2.5742,2.5742,0.0,2.5742,2.5742,2.5742,2.5742,2.5635,2.544,2.5342,2.5039,2.4833,2.4735,2.444,2.4035,2.322,2.1676,2.0238,1.8909,1.6916,1.5553,1.4928,1.3181,1.176,1.0672,0.9467,0.826,0.7154,0.7154,0.7487,0.7928,0.7374,0.7595,0.0,0.6829,0.6715,0.7152,0.6044,0.5491,0.527,0.4817,0.4592,0.4369,0.3245,0.2015,0.0896,0.0224,-0.0897,-0.1795,-0.1795,-0.213,-0.3023,-0.4916,-0.5808,-0.6808,-0.9357,-1.0785,-1.1869,0.0,-1.425,-1.5232,0.0,0.0,-2.0641,-2.1878,-2.322,-2.4152,-2.4152,-2.4152,-2.4341,-2.4627,-2.4922,-2.5304,-2.5781,-2.637,-2.7145,-2.8354,-2.9351,-3.0186,0.0,0.0,0.0,-3.1105,-3.2004,-3.3001,-3.3895,-3.4981,-3.5763,-3.6358,-3.6358,-3.6358,-3.6452,-3.6815,-3.7268,-3.7913,-3.9666,-4.1202,-4.2589,-4.3963,-4.5039,-4.588,-4.588,-4.588,-4.588,-4.588,-4.588,-4.588,2.5732,2.4805,2.4088,0.0,0.0,0.0,0.0,2.5742,0.0,2.5742,0.0,2.5742,2.5742,2.5742,2.5645,2.5635,2.543,2.5235,2.5235,2.4932,2.4735,2.444,2.444,2.4341,2.4152,2.2811,2.1371,1.993,1.8046,1.6387,1.4934,1.3398,1.1982,1.0672,0.9578,0.8367,0.7154,0.7376,0.7928,0.8589,0.7595,0.7154,0.7154,0.6495,0.6274,0.6274,0.5605,0.5268,0.5043,0.3917,0.3469,0.3132,0.1903,0.0896,-0.0,-0.0224,-0.1009,-0.1795,-0.2019,-0.28,-0.3916,-0.525,-0.6366,-0.7376,-0.8605,-1.057,-1.1978,-1.1109,-1.3496,-1.5131,0.0,0.0,-2.0649,-2.322,-2.3737,-2.3845,-2.3845,-2.3945,-2.4233,-2.4903,-2.5197,0.0,-2.6456,-2.637,-2.714,-2.9063,-2.9946,0.0,0.0,0.0,0.0,-3.1913,-3.2901,-3.3895,-3.4775,0.0,-3.6358,-3.6358,-3.6358,-3.6452,-3.6628,-3.7453,-3.79,-3.8251,-3.9982,-4.1477,-4.2768,-4.3689,-4.4806,-4.588,-4.588,-4.588,-4.588,-4.588,-4.588,-4.588,2.5001,2.4393,2.4088,2.4088,0.0,2.5528,2.5635,2.5742,2.5742,2.5742,2.5742,2.5742,2.5742,2.5742,2.5635,2.544,2.5342,2.5137,2.4637,2.4637,2.444,2.4251,2.4242,2.4152,2.3854,2.2509,2.1065,1.9627,1.7745,1.618,1.4934,1.418,1.2758,1.0672,1.0453,0.9244,0.7265,0.8149,0.0,0.7487,0.7265,0.7154,0.7154,0.6495,0.6274,0.6274,0.5605,0.4706,0.3917,0.3692,0.291,0.1903,0.0672,0.0224,-0.0224,-0.1234,-0.1683,-0.2019,-0.3024,-0.3469,-0.4137,-0.6258,-0.693,-0.7376,-0.8605,-1.0025,-1.1219,-1.1982,-1.3398,-1.4702,-1.5238,0.0,0.0,-2.0444,-2.1379,-2.1794,-2.1794,-2.2417,-2.3029,-2.3619,-2.4609,-2.5586,-2.6456,-2.702,-2.7957,-2.9452,-3.0819,0.0,0.0,0.0,0.0,0.0,-3.3784,0.0,0.0,0.0,-3.6358,-3.6358,-3.6358,-3.6815,-3.7533,-3.7717,-3.8689,-4.0187,-4.1078,-4.2278,-4.3748,-4.4428,-4.5184,-4.588,-4.588,-4.588,-4.588,-4.588,-4.588,-4.588,2.5392,2.4688,2.4295,2.4992,0.0,0.0,0.0,2.5917,2.582,2.5742,2.5742,2.5742,2.5742,2.5538,2.544,2.5333,2.5039,2.4735,2.4529,2.444,2.4341,2.4152,2.4152,2.4053,2.3854,2.3129,2.1785,1.9627,1.8359,1.6797,1.5035,1.4407,1.298,1.0672,0.9464,0.8913,0.9027,0.0,0.0,0.8039,0.7487,0.7043,0.6935,0.6495,0.6161,0.5938,0.5605,0.4255,0.2686,0.2686,0.1903,0.0672,-0.0561,-0.0897,-0.1009,-0.1683,-0.1795,-0.2018,-0.3246,-0.4026,-0.4918,-0.6705,-0.7598,-0.8374,-0.9588,-1.0785,-1.1873,-1.3073,-1.4266,-1.5452,-1.673,-1.7569,0.0,0.0,-2.0759,-2.1285,-2.1285,-2.2005,-2.2719,-2.3411,-2.4097,-2.507,-2.6522,-2.7442,-2.8564,-3.0124,-3.1221,0.0,0.0,0.0,0.0,0.0,0.0,0.0,0.0,0.0,0.0,-3.6452,-3.6909,-3.7361,-3.7808,-3.8765,-3.9724,-4.0631,-4.181,-4.2926,-4.4066,-4.5024,-4.559,-4.588,-4.588,-4.588,-4.588,-4.588,-4.615,-4.6403,2.61,2.5392,2.4894,0.0,2.6197,2.6197,2.61,2.61,2.6004,2.5732,2.5742,2.5742,2.5742,2.5538,2.5333,2.5235,2.4833,2.4529,2.444,2.4251,2.4152,2.4152,2.4152,2.4053,2.3755,2.3438,2.2097,1.9524,1.8776,0.0,0.0,1.4385,1.298,1.0672,0.0,0.0,0.0,0.0,0.7928,0.8481,0.7487,0.6935,0.6715,0.6272,0.6047,0.571,0.5154,0.3583,0.1791,0.1456,0.056,-0.0561,-0.1458,-0.1795,-0.1795,-0.1795,-0.1795,-0.213,-0.358,-0.4693,-0.5697,-0.7152,-0.8159,-0.9265,-1.0457,-1.1542,-1.2743,-1.3948,-1.5137,-1.6205,-1.7358,-1.7569,0.0,0.0,-2.0151,-2.0775,-2.0885,-2.1607,-2.2417,-2.3203,-2.3683,-2.4492,-2.614,-2.782,-2.9382,0.0,0.0,0.0,-3.2018,0.0,0.0,0.0,0.0,-3.5571,-3.6452,0.0,-3.6358,-3.6452,-3.7361,-3.79,-3.816,-3.9812,-4.0689,-4.1001,-4.2494,-4.366,-4.4472,-4.5474,-4.588,-4.588,-4.588,-4.588,-4.588,-4.588,-4.6314,-4.6829,0.0,0.0,0.0,0.0,0.0,2.64,2.61,2.61,2.6004,2.5732,2.5742,2.5742,2.5742,2.5635,2.544,2.4932,2.4932,2.4637,2.4251,2.4251,2.4152,2.4152,2.4152,2.3954,2.3456,2.2409,2.0971,1.9228,1.7647,1.6163,0.0,1.441,1.298,0.0,0.0,0.0,0.0,0.8371,0.826,0.7376,0.6935,0.6712,0.6604,0.6044,0.5822,0.5599,0.4252,0.291,0.1679,0.056,-0.0673,-0.1683,-0.1795,-0.1795,-0.1795,-0.1795,-0.1795,-0.2353,-0.4582,-0.5361,-0.5917,-0.8156,-0.8826,-0.9265,-1.0457,-1.1542,-1.2743,-1.3948,-1.5137,-1.5885,-1.6099,-1.6099,-1.6418,0.0,0.0,-1.8938,-1.9776,-2.0506,-2.1224,-2.1818,-2.3574,-2.4594,-2.4491,-2.822,0.0,0.0,-3.3076,0.0,0.0,0.0,0.0,-3.5078,0.0,-3.6358,-3.6628,-3.6452,-3.6358,-3.6452,-3.7361,-3.8251,-3.9121,-4.0159,-4.1071,-4.2067,-4.3369,-4.4589,-4.5721,-4.5837,-4.588,-4.588,-4.588,-4.588,-4.588,-4.588,-4.6314,-4.6916,0.0,0.0,0.0,0.0,0.0,0.0,0.0,2.6304,2.6207,2.5732,2.5742,2.5742,2.5742,2.5538,2.5342,2.4932,2.4735,2.4538,2.4251,2.4152,2.4152,2.4152,2.3538,2.3247,2.3447,2.1582,2.0143,1.9228,1.7542,1.6131,0.0,0.0,0.0,0.0,0.0,0.9137,0.826,0.7928,0.7598,0.7154,0.6824,0.6604,0.6383,0.5935,0.5712,0.5377,0.4029,0.2797,0.1567,0.0448,-0.0785,-0.1795,-0.1795,-0.1795,-0.1795,-0.1795,-0.1795,-0.2353,-0.4693,-0.5361,-0.5917,-0.8266,-0.894,-0.9372,-1.1328,-1.2091,-1.296,-1.4809,-1.5565,-1.5891,-1.5891,-1.5891,-1.5998,-1.6305,0.0,-1.8527,-1.884,-2.0086,-2.1019,-2.1224,-2.2095,-2.3295,-2.4684,-2.7878,-3.0633,0.0,0.0,0.0,0.0,0.0,0.0,-3.4969,0.0,-3.6452,-3.6546,-3.6452,-3.6722,-3.7268,-3.8147,-3.9121,-4.0073,-4.1071,-4.2134,-4.3282,-4.4153,-4.5039,-4.588,-4.588,-4.588,-4.588,-4.588,-4.588,-4.588,-4.588,-4.6565,-4.7493,2.6976,0.0,2.5877,0.0,2.6986,2.689,2.6592,2.6496,2.6304,2.5742,2.5742,2.5742,2.5742,2.544,2.5235,2.4932,2.4627,2.444,2.4251,2.4152,2.4053,2.3746,2.2828,0.0,2.2409,2.0451,1.922,1.8715,1.7134,0.0,0.0,0.0,0.0,0.0,1.0123,0.903,0.8371,0.7485,0.7154,0.7046,0.6715,0.6383,0.6161,0.5824,0.5603,0.5156,0.3582,0.2574,0.1567,-0.0,-0.1121,-0.1795,-0.1795,-0.1795,-0.1795,-0.1795,-0.1795,-0.2353,-0.4693,-0.5361,-0.5917,-0.8266,-0.9154,-0.9915,-1.1982,-1.2635,-1.3501,-1.5458,-1.5891,-1.5891,-1.5891,-1.6099,-1.6311,-1.663,0.0,0.0,-1.9153,-2.0189,-2.1059,-2.1661,-2.2303,-2.3358,-2.5331,-2.8212,0.0,0.0,0.0,0.0,0.0,0.0,0.0,0.0,0.0,0.0,-3.6452,-3.6722,-3.7176,-3.7808,-3.9033,-3.9986,-4.0603,-4.1806,-4.2948,-4.4023,-4.4632,-4.5271,-4.588,-4.588,-4.588,-4.588,-4.588,-4.606,-4.6239,-4.6239,-4.7061,-4.8157,2.7347,2.7262,2.7262,2.7262,2.7262,2.7071,2.6592,2.6496,2.6304,2.5742,2.5742,2.5742,2.5742,2.544,2.5235,2.4932,2.4627,2.444,2.4251,2.4152,2.3746,0.0,0.0,2.1473,2.0033,1.87,1.7884,1.7582,1.6217,0.0,1.5076,0.0,1.2981,1.0672,1.0672,0.9354,0.7265,0.7154,0.7046,0.6715,0.6383,0.6161,0.5822,0.5491,0.5382,0.5044,0.2687,0.1791,0.1456,-0.1009,-0.1795,-0.1795,-0.1795,-0.1795,-0.1795,-0.1795,-0.1795,-0.2353,-0.4693,-0.5361,-0.5917,-0.8266,-0.9805,-1.1,-1.2087,-1.329,-1.4493,-1.5672,-1.5891,-1.5891,-1.5891,-1.6624,-1.7463,-1.8206,0.0,0.0,0.0,-2.0925,-2.155,-2.3314,-2.4776,-2.5803,-2.6312,-2.9785,0.0,0.0,0.0,0.0,0.0,0.0,0.0,-3.6722,-3.6546,0.0,-3.6722,-3.7441,-3.7808,-3.7808,-3.9724,-4.0603,-4.0617,-4.2237,-4.3355,-4.4023,-4.4632,-4.5271,-4.588,-4.588,-4.588,-4.588,-4.588,-4.6314,-4.6916,-4.6916,-4.7749,-4.8887,2.7441,2.7262,2.7262,2.7262,2.7262,2.7167,2.6592,2.6496,2.6304,2.5742,2.5742,2.5635,2.544,2.5333,2.5235,0.0,2.4627,2.444,0.0,2.4152,2.3646,2.2526,2.1473,2.0641,2.0025,1.7871,1.7054,1.7582,0.0,0.0,0.0,1.3184,1.1702,0.9467,0.9467,0.8589,0.7154,0.7154,0.7154,0.7046,0.6495,0.6274,0.6049,0.5603,0.4929,0.3918,0.2351,0.1232,0.0336,-0.1234,-0.1795,-0.1795,-0.1795,-0.1795,-0.1795,-0.1795,-0.1795,-0.2353,-0.4693,-0.5361,-0.5917,-0.8266,-0.9805,-1.1,-1.2087,-1.3938,-1.5458,-1.5785,-1.5891,-1.5891,-1.5891,-1.6624,-1.7252,-1.7569,-1.8729,0.0,-2.0094,-2.0716,-2.1723,-2.3143,-2.414,-2.539,-2.7131,-2.9435,0.0,0.0,0.0,0.0,0.0,0.0,0.0,0.0,-3.6452,0.0,-3.6452,-3.7348,-3.816,-3.8765,-3.9986,-4.0972,-4.1662,-4.3081,-4.379,-4.4052,-4.5111,-4.5692,-4.588,-4.588,-4.588,-4.5985,-4.6403,-4.6756,-4.6916,-4.7407,-4.8157,-4.8887,2.7715,2.7441,2.7262,2.7262,2.7262,2.7167,2.6592,2.6496,2.6304,2.5742,2.5742,2.5635,2.5342,2.5235,0.0,2.4735,2.4538,2.4341,2.4251,2.3845,2.3029,2.1794,2.0341,1.931,1.8589,1.7041,0.0,1.6948,1.5559,1.4272,1.3073,1.2309,1.0777,0.892,0.892,0.826,0.7154,0.7154,0.7046,0.6824,0.6497,0.6163,0.594,0.5493,0.4931,0.4142,0.291,0.168,0.0448,-0.0673,-0.1458,-0.1795,-0.1795,-0.1795,-0.1795,-0.1795,-0.1795,-0.2353,-0.4693,-0.5361,-0.5917,-0.8266,-1.0135,-1.176,-1.3388,-1.4804,-1.5891,-1.5891,-1.5891,-1.5992,-1.6311,-1.7047,-1.7786,-1.8094,-1.925,-2.0243,-2.0373,-2.129,-2.2657,-2.4269,-2.5162,0.0,0.0,-2.9611,-3.0998,0.0,0.0,0.0,0.0,0.0,0.0,-3.6452,-3.6358,0.0,-3.6896,-3.7887,-3.8765,-3.9724,-4.0703,-4.165,-4.2469,-4.3515,-4.411,-4.4385,-4.543,-4.588,-4.588,-4.588,-4.588,-4.597,-4.6668,-4.7091,-4.7336,-4.8072,-4.8738,-4.9325,2.8081,2.7631,2.7262,0.0,2.7262,0.0,2.6592,2.6496,2.6304,2.5742,2.5742,2.5635,2.5342,2.5039,2.4833,2.4529,0.0,0.0,0.0,2.3138,2.1794,2.0333,1.9109,1.7772,1.6324,1.5998,1.5891,1.5891,1.4358,1.3491,1.3073,1.1651,1.0123,0.8809,0.8809,0.8149,0.7154,0.7154,0.6824,0.6274,0.6274,0.594,0.5382,0.5382,0.5268,0.5043,0.3917,0.2685,0.1344,0.0224,-0.0897,-0.1795,-0.1683,-0.1683,-0.1795,-0.1795,-0.1795,-0.2353,-0.4693,-0.5361,-0.5917,-0.8266,-1.068,-1.2955,-1.5345,-1.5891,-1.5891,-1.5891,-1.5891,-1.6205,-1.7041,-1.7891,-1.8736,-1.9569,-2.0426,-2.1076,-2.1506,-2.2495,-2.4112,-2.6216,0.0,0.0,-3.0245,-3.0391,-3.0785,0.0,0.0,0.0,0.0,0.0,-3.6628,-3.6452,-3.6358,-3.6815,-3.7808,-3.8765,-3.9724,-4.0689,-4.1633,-4.2411,-4.3007,-4.3674,-4.4313,-4.4922,-4.559,-4.588,-4.588,-4.588,-4.588,-4.597,-4.6668,-4.7321,-4.7988,-4.8738,-4.9405,-4.9916,0.0,0.0,2.7262,2.7262,2.7262,2.7167,2.6592,2.6496,2.6304,2.5742,2.5742,2.5635,2.5342,2.5039,2.4833,2.4529,2.4341,2.3845,2.2929,2.2627,2.1497,1.9332,1.8708,1.7772,1.6324,1.5998,1.5791,1.5583,1.4159,1.2743,1.1542,1.0123,0.8809,0.7595,0.7595,0.7487,0.7154,0.7154,0.6935,0.6604,0.6386,0.6049,0.5712,0.5491,0.4257,0.2575,0.2351,0.0896,-0.1009,-0.1234,-0.157,-0.1683,-0.0673,-0.1009,-0.1795,-0.1795,-0.1795,-0.2353,-0.4693,-0.5361,-0.5917,-0.8266,-1.068,-1.2955,-1.5345,-1.5891,-1.5891,-1.5891,-1.5891,-1.6205,-1.7041,-1.7891,-1.8736,-1.9569,-2.062,-2.1651,-2.2644,-2.3457,-2.4828,0.0,-2.7871,-2.8655,-2.9973,-3.0099,-3.0899,0.0,0.0,0.0,0.0,-3.6358,-3.6452,-3.6358,-3.6358,-3.6815,-3.7808,-3.8765,-4.01,-4.1731,-4.2009,-4.2411,-4.3007,-4.3674,-4.4313,-4.4922,-4.559,-4.588,-4.588,-4.588,-4.588,-4.606,-4.7234,-4.7734,-4.8072,-4.9244,-4.9741,-4.9916,2.8373,2.782,2.7262,2.7262,2.7262,2.7167,2.6794,2.6602,2.6304,2.5917,2.583,2.5635,2.5342,2.5039,2.4627,2.3809,2.3529,2.3138,2.2526,2.1599,2.0254,1.8715,1.7982,1.7147,1.6111,1.5998,1.5458,1.4702,1.3166,1.1751,1.0221,0.8806,0.7817,0.7154,0.7154,0.7154,0.7154,0.7154,0.6935,0.6495,0.6386,0.6049,0.5603,0.5493,0.4255,0.2573,0.2573,0.112,-0.1009,-0.1009,-0.1346,-0.1683,-0.1009,-0.1234,-0.1795,-0.1795,-0.1795,-0.2353,-0.4693,-0.5361,-0.6137,-0.9027,-1.1109,-1.2852,-1.4702,-1.5565,-1.5891,-1.5891,-1.5891,-1.6311,-1.747,-1.8101,-1.884,-2.0094,-2.0906,-2.1909,-2.3193,-2.4351,-2.5754,-2.7746,-2.8625,-2.9333,-2.9994,-3.0391,-3.1392,-3.3101,-3.3697,0.0,-3.6263,-3.6358,-3.6358,-3.6358,-3.6815,-3.7533,-3.8419,-3.9839,-4.11,-4.2092,-4.2382,-4.2832,-4.3471,-4.411,-4.4748,-4.5358,-4.5721,-4.588,-4.588,-4.588,-4.588,-4.606,-4.7407,-4.7904,-4.8072,-4.9421,-4.9916,-4.9916,2.8746,2.8008,2.7347,2.7357,2.7262,2.7167,2.69,2.6602,2.64,2.61,2.583,2.5538,2.5128,2.4824,2.4115,2.2793,2.2299,2.2013,2.2013,2.0261,1.8916,1.8178,1.7252,1.6411,1.5891,1.5891,1.5125,1.3593,1.2177,1.0651,0.9233,0.7811,0.7154,0.7154,0.7154,0.7154,0.7154,0.7154,0.6826,0.6274,0.6274,0.594,0.5382,0.5156,0.4369,0.3357,0.3134,0.1567,-0.0224,-0.0224,-0.0897,-0.1795,-0.157,-0.1683,-0.1795,-0.157,-0.1683,-0.2353,-0.4693,-0.5695,-0.6692,-0.9896,-1.1546,-1.2743,-1.3948,-1.503,-1.5891,-1.5891,-1.5992,-1.6524,-1.8108,-1.8527,-1.9168,-2.098,-2.1499,-2.2371,-2.407,0.0,-2.6871,-2.83,-2.9333,-3.0099,-3.0193,-3.1084,-3.2083,-3.34,-3.4288,-3.5271,-3.6358,-3.6358,-3.6358,-3.6358,-3.7361,-3.8328,-3.9373,-4.1184,-4.2092,-4.2107,-4.2702,-4.334,-4.4008,-4.4618,-4.5256,-4.588,-4.588,-4.588,-4.588,-4.588,-4.597,-4.6135,-4.7407,-4.7988,-4.824,-4.9421,-4.9916,-4.9916,2.8817,2.8269,2.7809,2.7357,2.7081,2.6996,2.69,2.6496,2.6197,2.61,2.583,2.5323,2.4402,2.3791,2.3094,2.1988,2.0562,1.9738,1.9738,1.9435,1.8499,1.7041,1.6836,1.6411,1.5891,1.569,1.4821,1.3398,1.1864,1.0449,0.8916,0.7706,0.7154,0.7154,0.7154,0.7154,0.7154,0.7154,0.6826,0.6274,0.6274,0.594,0.5268,0.4255,0.3134,0.1903,0.0896,-0.0336,-0.157,-0.157,-0.1683,-0.157,-0.0561,-0.1009,-0.157,-0.0561,-0.1009,-0.2353,-0.4693,-0.6813,-0.8706,-1.0343,-1.1546,-1.2743,-1.3948,-1.503,-1.5891,-1.5891,-1.6518,-1.7252,-1.8213,-1.9049,-2.0274,-2.2509,-2.308,-2.4193,-2.6684,0.0,-2.827,-2.9544,-2.9889,-3.0391,-3.1278,-3.1472,-3.2376,-3.4385,-3.4678,-3.5271,-3.6358,-3.6358,-3.6358,-3.6358,-3.7361,-3.8599,-4.0332,-4.1535,-4.2092,-4.2107,-4.2702,-4.334,-4.4008,-4.4618,-4.5256,-4.588,-4.588,-4.588,-4.588,-4.588,-4.6225,-4.6829,-4.7578,-4.824,-4.8805,-4.9582,-4.9916,-4.9916,2.8817,2.8362,2.7809,2.7347,2.7081,2.69,2.69,2.64,2.61,2.61,2.5401,2.4815,2.4716,2.3402,2.219,2.1591,2.0048,1.8916,1.8408,1.8199,1.7681,1.673,1.6524,1.6318,1.5891,1.5024,1.3825,1.2295,1.0878,0.9347,0.7928,0.7487,0.7154,0.7154,0.7154,0.7154,0.7154,0.7154,0.6935,0.6495,0.5596,0.5485,0.5489,0.414,0.2798,0.1679,0.112,-0.0224,-0.1795,-0.1795,-0.1795,-0.1683,-0.1121,-0.1346,-0.1683,-0.1121,-0.224,-0.4026,-0.5139,-0.7146,-0.9047,-0.9588,-1.1114,-1.2526,-1.3073,-1.4589,-1.5992,-1.6518,-1.6935,-1.7569,-1.884,-1.9465,-2.0297,-2.1988,-2.3077,0.0,0.0,-2.7632,-2.8668,-2.9879,-3.0495,-3.1084,-3.1586,-3.2678,-3.3773,-3.4775,-3.5367,-3.587,-3.6358,-3.6358,-3.6358,-3.6358,-3.7795,-3.9475,-4.1353,-4.1897,-4.2266,-4.2586,-4.3224,-4.3863,-4.4501,-4.514,-4.559,-4.588,-4.588,-4.6135,-4.6403,-4.6403,-4.6829,-4.7493,-4.8157,-4.8641,-4.8969,-4.9661,-4.9916,-4.9979,2.8631,2.8269,2.7809,2.7347,2.6986,2.6805,2.69,2.64,2.6004,2.61,2.5197,2.4609,2.4932,2.3003,2.1481,2.0987,1.9642,1.8408,1.7582,1.7272,1.6955,1.673,1.6424,1.5998,1.5565,1.4256,1.2832,1.1088,0.9783,0.8468,0.7154,0.7154,0.7154,0.7154,0.7154,0.7154,0.7154,0.7154,0.6935,0.6492,0.5369,0.526,0.5599,0.414,0.2798,0.1791,0.1456,-0.0,-0.1795,-0.1795,-0.1795,-0.1795,-0.1795,-0.1795,-0.1907,-0.213,-0.3916,-0.5808,-0.5808,-0.7371,-0.8937,-0.9265,-1.0895,-1.2521,-1.2743,-1.4369,-1.6099,-1.7041,-1.7358,-1.7884,-1.9465,-1.9947,-2.0628,-2.2127,0.0,0.0,0.0,-2.7931,-2.8996,-2.9889,-3.0991,-3.1677,-3.1982,-3.3674,-3.4872,-3.5174,-3.5966,-3.6358,-3.6358,-3.6358,-3.6628,-3.7083,-3.8496,-4.01,-4.2092,-4.2092,-4.2397,-4.3007,-4.3674,-4.4313,-4.4908,-4.5576,-4.588,-4.588,-4.606,-4.6403,-4.6916,-4.7091,-4.7493,-4.8141,-4.8723,-4.8984,-4.9228,-4.9741,-5.0026,-5.0247,2.8269,2.7987,2.7809,2.7347,2.688,2.6592,2.69,2.6217,2.583,2.61,2.582,2.5137,2.3935,2.2584,2.1159,1.9983,1.8527,1.7589,1.7279,1.6948,1.673,1.673,1.6205,1.5458,1.4385,1.3619,1.2195,0.9904,0.9247,0.8367,0.7154,0.7154,0.7154,0.7154,0.7154,0.7154,0.7154,0.7154,0.6824,0.6274,0.6163,0.5828,0.5268,0.403,0.2798,0.1679,0.056,-0.0673,-0.1795,-0.1795,-0.1795,-0.1795,-0.1795,-0.1795,-0.2019,-0.3135,-0.5142,-0.693,-0.693,-0.7934,-0.9154,-1.0237,-1.1437,-1.2743,-1.384,-1.5024,-1.6099,-1.7041,-1.7786,-1.8632,-1.9576,-2.0562,-2.2135,-2.4783,0.0,0.0,-2.9337,-2.9754,-2.9889,-2.9994,-3.0991,-3.1982,-3.3001,-3.408,-3.5174,-3.625,-3.6358,-3.6358,-3.6358,-3.6358,-3.7163,-3.8944,-3.9121,-4.01,-4.2092,-4.2092,-4.2397,-4.3007,-4.3674,-4.4313,-4.4908,-4.5576,-4.588,-4.597,-4.658,-4.6829,-4.6916,-4.7578,-4.8225,-4.8805,-4.8887,-4.9309,-4.9836,-4.9916,-5.0342,-5.0911,2.8538,2.8175,2.7809,2.7347,2.6986,2.6699,2.6699,2.6207,2.5917,2.582,2.503,2.4223,2.3511,2.1684,2.0166,1.9443,1.8304,1.7483,1.7179,1.7067,1.6743,1.6205,1.5998,1.5351,1.4164,1.2842,1.1424,0.9798,0.8478,0.7598,0.7154,0.7154,0.7154,0.7154,0.7154,0.7154,0.7154,0.6932,0.6715,0.6495,0.5373,0.515,0.5377,0.3245,0.2239,0.1679,0.0448,-0.0785,-0.1795,-0.1795,-0.1795,-0.1795,-0.1795,-0.2353,-0.3246,-0.5254,-0.6371,-0.7263,-0.8045,-0.8605,-0.9154,-1.0347,-1.1546,-1.2743,-1.3948,-1.5446,-1.6942,-1.7786,-1.8632,-1.9465,-2.03,-2.1003,-2.2071,-2.4088,0.0,-2.6699,-2.8608,-2.9554,-3.0297,-3.0888,-3.1993,-3.2989,-3.4091,-3.5174,-3.5966,-3.6358,-3.6358,-3.6358,-3.6358,-3.6909,-3.7887,-3.9121,-3.9724,-4.0717,-4.2092,-4.2469,-4.2977,-4.3616,-4.4255,-4.4879,-4.5518,-4.5764,-4.588,-4.5985,-4.658,-4.7163,-4.7578,-4.8225,-4.8903,-4.9501,-4.9501,-4.9661,-4.9916,-4.9916,-5.0374,-5.1037,2.8538,2.8081,2.7726,2.7357,2.6986,2.6699,2.6506,2.6207,2.5917,2.5732,2.4833,2.3917,2.3393,2.1489,1.9968,1.9228,1.8101,1.7378,1.706,1.6855,1.6537,1.5998,1.5891,1.5238,1.3619,1.2625,1.1097,0.9251,0.8257,0.7598,0.7154,0.7154,0.7154,0.7154,0.7154,0.7154,0.7043,0.6824,0.6601,0.6267,0.5037,0.5037,0.5487,0.3245,0.2127,0.1679,0.0448,-0.0785,-0.1795,-0.1795,-0.1795,-0.1795,-0.1795,-0.2912,-0.4583,-0.6482,-0.7376,-0.7823,-0.8716,-0.9154,-0.9699,-1.0891,-1.2091,-1.3393,-1.4804,-1.6187,-1.7463,-1.8632,-1.9257,-1.999,-2.0712,-2.1603,-2.2615,-2.4001,-2.5642,-2.7159,-2.8522,-2.9438,-3.0391,-3.1483,-3.2588,-3.3598,-3.4678,-3.5763,-3.6358,-3.6358,-3.6358,-3.6358,-3.6358,-3.7268,-3.8251,-3.921,-4.0073,-4.1156,-4.2368,-4.2789,-4.3326,-4.4008,-4.4603,-4.5242,-4.588,-4.588,-4.588,-4.597,-4.6829,-4.7493,-4.7988,-4.8821,-4.9501,-4.9916,-4.9916,-4.9916,-4.9947,-5.0168,-5.069,-5.1401,2.8081,2.7631,2.7262,2.7262,2.688,2.6496,2.6496,2.6024,2.5742,2.5742,2.544,2.4726,2.3393,2.2089,2.0775,1.9332,1.7996,1.7067,1.673,1.6205,1.5998,1.6324,1.5998,1.4804,1.2413,1.2965,1.1542,0.8045,0.8592,0.8371,0.7154,0.7154,0.7154,0.7154,0.7154,0.7046,0.6715,0.6715,0.6379,0.5822,0.5822,0.5601,0.5268,0.403,0.2798,0.1679,0.0448,-0.0785,-0.1795,-0.1795,-0.1795,-0.1795,-0.1795,-0.3469,-0.5586,-0.6816,-0.7934,-0.894,-0.894,-0.9805,-1.1,-1.2091,-1.329,-1.4696,-1.6717,-1.7252,-1.7674,-1.9361,-1.968,-1.999,-2.0712,-2.2407,-2.4149,-2.5307,-2.7036,-2.8668,-2.9879,-2.9994,-3.0391,-3.1483,-3.2588,-3.3598,-3.4678,-3.5775,-3.6358,-3.6358,-3.6358,-3.6358,-3.6358,-3.7268,-3.8251,-3.921,-4.0159,-4.1341,-4.2977,-4.2992,-4.334,-4.4008,-4.4603,-4.5242,-4.588,-4.588,-4.588,-4.597,-4.7321,-4.7904,-4.7988,-4.934,-4.9931,-4.9916,-4.9916,-4.9916,-5.001,-5.0721,-5.1417,-5.2112,2.856,2.7914,2.7262,2.7081,2.689,2.6699,2.6294,2.61,2.5917,2.5732,2.4618,2.3493,2.2265,2.0751,1.9332,1.8199,1.7589,1.6961,1.6424,1.6105,1.5891,1.5998,1.5891,1.5131,1.3398,1.329,1.1873,0.9034,0.8923,0.8371,0.7154,0.7154,0.7154,0.7154,0.7154,0.7046,0.6715,0.6715,0.6379,0.5822,0.5822,0.5601,0.5156,0.3135,0.2127,0.1567,-0.0561,-0.1458,-0.1795,-0.1795,-0.1795,-0.213,-0.3804,-0.5363,-0.6816,-0.8045,-0.8605,-0.9047,-0.9915,-1.1,-1.1978,-1.2309,-1.329,-1.4696,-1.6717,-1.7674,-1.8311,-1.9472,-2.0197,-2.0609,-2.0822,-2.2407,-2.4149,-2.5307,-2.7036,-2.8668,-2.9879,-2.9994,-3.0703,-3.2499,-3.3001,-3.3895,-3.5763,-3.625,-3.6358,-3.6358,-3.6358,-3.6358,-3.6358,-3.7874,-3.8944,-3.921,-4.0816,-4.2103,-4.2992,-4.3456,-4.4008,-4.4632,-4.5271,-4.5692,-4.588,-4.588,-4.588,-4.597,-4.6829,-4.7508,-4.7988,-4.8821,-4.9501,-4.9916,-4.9916,-4.9916,-5.001,-5.0721,-5.1417,-5.2112,2.8735,2.7998,2.7262,2.7081,2.689,2.6602,2.6304,2.61,2.5917,2.5732,2.4304,2.2876,2.1853,2.0238,1.8715,1.7582,1.7067,1.6643,1.6217,1.5998,1.5891,1.5891,1.5891,1.5238,1.3727,1.3835,1.2635,1.0014,0.9798,0.9027,0.7817,0.7376,0.7154,0.7154,0.7154,0.7046,0.6715,0.6715,0.6379,0.5822,0.5822,0.5375,0.448,0.2574,0.1456,0.0784,-0.1121,-0.1795,-0.1795,-0.1795,-0.213,-0.2912,-0.5363,-0.6591,-0.7374,-0.8491,-0.9265,-0.9809,-1.0457,-1.1873,-1.3073,-1.3073,-1.4261,-1.5767,-1.7358,-1.8311,-1.9153,-1.999,-2.0609,-2.1027,-2.142,-2.3126,-2.4778,-2.5928,-2.7685,-2.9217,-2.9889,-2.9994,-3.0806,-3.2901,-3.3201,-3.4091,-3.6168,-3.6358,-3.6358,-3.6358,-3.6358,-3.6358,-3.6358,-3.7795,-3.8854,-3.921,-4.097,-4.2393,-4.3384,-4.4023,-4.4531,-4.4893,-4.5561,-4.588,-4.588,-4.588,-4.588,-4.5985,-4.658,-4.7249,-4.7988,-4.8641,-4.9325,-4.9916,-4.9916,-5.0089,-5.0421,-5.1116,-5.1843,-5.2554,2.8724,2.7904,2.7262,2.7262,2.688,2.6496,2.6496,2.6024,2.5635,2.5538,2.4106,2.2776,2.1651,2.0033,1.8513,1.7279,1.6643,1.6217,1.5891,1.5891,1.5891,1.5891,1.5891,1.5131,1.3835,1.46,1.3727,1.1214,1.0891,1.0127,0.892,0.7706,0.7154,0.7154,0.7154,0.7046,0.6715,0.6715,0.6379,0.5822,0.5822,0.4925,0.3469,0.2239,0.1008,-0.0112,-0.1346,-0.1795,-0.1795,-0.1907,-0.28,-0.425,-0.6371,-0.7152,-0.7487,-0.8712,-0.9805,-1.0781,-1.1,-1.2526,-1.4277,-1.4379,-1.5867,-1.7463,-1.8213,-1.9049,-1.9887,-2.0712,-2.0925,-2.1232,-2.2367,-2.4181,-2.5834,-2.6919,-2.8682,-2.9994,-2.9994,-3.0099,-3.0899,-3.3001,-3.33,-3.419,-3.6168,-3.6358,-3.6452,-3.6546,-3.6546,-3.6546,-3.6628,-3.7533,-3.8419,-3.9285,-4.0872,-4.2495,-4.3979,-4.4589,-4.4922,-4.498,-4.559,-4.588,-4.588,-4.588,-4.588,-4.597,-4.658,-4.7249,-4.7988,-4.8558,-4.9244,-4.9916,-4.9916,-5.0358,-5.1053,-5.1749,-5.2475,-5.3202,2.8724,2.7904,2.7262,2.6986,2.6699,2.64,2.6197,2.5917,2.5323,2.4304,2.2876,2.155,2.0231,1.8812,1.7793,1.7279,1.6643,1.6217,1.5891,1.5684,1.5589,1.5589,1.5363,1.4928,1.4385,1.4821,1.4056,1.2091,1.1219,1.0127,0.892,0.7706,0.7154,0.7154,0.7154,0.6935,0.6383,0.6604,0.6379,0.5822,0.5822,0.5037,0.3805,0.2351,0.1008,-0.0112,-0.1346,-0.1795,-0.1907,-0.2912,-0.4585,-0.6482,-0.693,-0.7712,-0.8712,-0.9911,-1.0457,-1.1109,-1.2965,-1.384,-1.4595,-1.6193,-1.7358,-1.8213,-1.8318,-1.9049,-1.9887,-2.0712,-2.0925,-2.1304,-2.2792,-2.4351,-2.5928,-2.7289,-2.8968,-2.9994,-2.9994,-3.0692,-3.179,-3.3001,-3.3993,-3.4981,-3.625,-3.6358,-3.6722,-3.7441,-3.7546,-3.7795,-3.8585,-3.9461,-4.0073,-4.0246,-4.1853,-4.3141,-4.3979,-4.4589,-4.5155,-4.5663,-4.5822,-4.588,-4.588,-4.588,-4.588,-4.588,-4.606,-4.6814,-4.7904,-4.8072,-4.8821,-4.9916,-4.9916,-5.0358,-5.1053,-5.1749,-5.2475,-5.3286,2.8724,2.7904,2.7262,2.7081,2.6794,2.6496,2.6294,2.5509,2.4815,2.451,2.2885,2.1363,2.0554,1.9228,1.7989,1.7054,1.6424,1.5998,1.5891,1.569,1.5482,1.5482,1.5148,1.4821,1.4606,1.4713,1.4277,1.3305,1.2091,1.0891,0.9688,0.8589,0.7706,0.7154,0.7154,0.7046,0.6715,0.6715,0.6492,0.6047,0.5822,0.47,0.291,0.2127,0.0672,-0.0897,-0.157,-0.213,-0.2912,-0.4697,-0.6035,-0.7154,-0.782,-0.838,-0.9154,-1.0347,-1.1109,-1.1873,-1.3727,-1.46,-1.5345,-1.6829,-1.7786,-1.8527,-1.8945,-1.9672,-2.0403,-2.0822,-2.1326,-2.213,-2.3706,-2.5237,-2.6689,-2.8264,-2.9362,-3.0193,-3.0692,-3.1289,-3.2185,-3.3784,-3.4483,-3.5174,-3.6263,-3.6358,-3.6815,-3.7717,-3.7808,-3.8251,-3.9121,-4.0073,-4.0744,-4.1053,-4.2668,-4.3776,-4.4414,-4.5053,-4.5532,-4.588,-4.588,-4.588,-4.588,-4.588,-4.588,-4.588,-4.588,-4.6638,-4.7904,-4.7904,-4.8656,-4.9916,-4.9916,-5.0563,-5.1512,-5.1875,-5.2898,-5.4303,2.8724,2.7998,2.7347,2.7262,2.6784,2.6496,2.64,2.5197,2.4501,2.4922,2.3003,2.1489,2.0979,1.9635,1.8185,1.673,1.6205,1.5891,1.5891,1.5583,1.5374,1.5374,1.5041,1.4719,1.4498,1.446,1.4352,1.4196,1.2935,1.1824,1.0954,0.9537,0.8332,0.7453,0.7254,0.7154,0.7043,0.6715,0.6495,0.6272,0.571,0.4029,0.1903,0.1567,0.0112,-0.1795,-0.1795,-0.2688,-0.4249,-0.6371,-0.7263,-0.7598,-0.8605,-0.9047,-0.9482,-1.0676,-1.176,-1.296,-1.4164,-1.5244,-1.6311,-1.7147,-1.7996,-1.884,-1.968,-2.0403,-2.0917,-2.1121,-2.1928,-2.3059,-2.4822,-2.6212,-2.7558,-2.9127,-2.9943,-3.0588,-3.1472,-3.188,-3.2778,-3.4581,-3.4981,-3.5463,-3.6358,-3.6546,-3.6989,-3.7978,-3.816,-3.8689,-3.9651,-4.053,-4.1269,-4.1806,-4.3373,-4.4385,-4.4879,-4.5547,-4.588,-4.588,-4.588,-4.588,-4.588,-4.588,-4.588,-4.588,-4.606,-4.6814,-4.7973,-4.8072,-4.8903,-5.0073,-5.02,-5.104,-5.2279,-5.2435,-5.3775,-5.57,2.8839,2.8279,2.7715,2.7081,2.6699,2.64,2.6197,2.5616,2.4726,2.3701,2.2291,2.0877,1.9642,1.7975,1.6836,1.6424,1.6105,1.5891,1.5891,1.5357,1.5041,1.5041,1.4617,1.4299,1.4299,1.3976,1.3976,1.4196,1.2787,1.2051,1.1838,0.9689,0.8504,0.8402,0.7546,0.7043,0.6712,0.6495,0.6495,0.649,0.4587,0.3356,0.2461,0.0784,-0.0561,-0.1795,-0.1795,-0.3246,-0.5361,-0.6705,-0.782,-0.8716,-0.883,-0.9588,-1.0672,-1.1873,-1.3073,-1.4164,-1.5351,-1.6305,-1.7252,-1.7996,-1.884,-1.9783,-2.0506,-2.0814,-2.1121,-2.2123,-2.2426,-2.334,-2.6222,-2.6832,-2.7647,-2.9548,-3.0742,-3.1472,-3.1586,-3.3178,-3.4471,-3.4775,-3.5571,-3.6263,-3.6358,-3.7083,-3.7978,-3.8944,-3.9724,-4.0617,-4.1633,-4.2305,-4.2721,-4.2808,-4.4052,-4.4806,-4.4879,-4.5547,-4.588,-4.588,-4.588,-4.588,-4.588,-4.588,-4.588,-4.597,-4.6491,-4.7392,-4.8429,-4.8625,-4.9599,-5.0956,-5.1275,-5.2091,-5.3197,-5.4111,-5.5505,-5.6904,2.8932,2.8373,2.7809,2.6996,2.6699,2.64,2.61,2.5118,2.4125,2.3393,2.2089,2.0767,1.9324,1.7667,1.663,1.6324,1.5998,1.5891,1.569,1.5476,1.5148,1.4821,1.4484,1.4205,1.3986,1.375,1.3685,1.3793,1.3158,1.2576,1.184,1.0148,0.914,0.8585,0.7574,0.7097,0.6935,0.6604,0.6604,0.6601,0.5377,0.4254,0.3019,0.1121,-0.0561,-0.2019,-0.3358,-0.4918,-0.648,-0.7709,-0.8491,-0.9047,-0.9699,-1.0237,-1.1109,-1.2856,-1.3727,-1.4595,-1.6193,-1.6935,-1.7463,-1.8833,-1.9472,-1.9887,-2.0719,-2.1326,-2.1928,-2.2426,-2.302,-2.4145,-2.6502,-2.7481,-2.8594,-3.0533,-3.1278,-3.1982,-3.3178,-3.4178,-3.4969,-3.5667,-3.6061,-3.6358,-3.6358,-3.7268,-3.816,-3.9121,-4.0073,-4.1057,-4.2009,-4.2658,-4.3166,-4.3544,-4.4414,-4.5068,-4.5445,-4.5735,-4.588,-4.588,-4.6046,-4.6046,-4.6046,-4.597,-4.606,-4.6328,-4.6974,-4.7789,-4.879,-4.9343,-5.0151,-5.1183,-5.1682,-5.2727,-5.408,-5.523,-5.6364,-5.7355]},{"header":{"parameterUnit":"m.s-1","parameterCategory":1,"la1":30.6,"la2":28.766,"lo1":-90.7593,"lo2":-88.6598,"dy":0.0162,"dx":0.0183,"nx":116,"ny":114,"refTime":"2023-04-23T06:00:00:Z","depth":0,"parameterNumber":3,"parameterNumberName":"V-component_of_WINDS"},"data":[0.0,0.0,0.0,0.0,0.0,0.0,0.0,0.0,0.0,0.0,0.0,0.0,0.0,0.0,0.0,0.0,0.0,0.0,0.0,0.0,0.0,0.0,0.0,0.0,0.0,0.0,0.0,0.0,0.0,0.0,0.0,0.0,0.0,0.0,0.0,0.0,0.0,0.0,0.0,0.0,0.0,0.0,0.0,0.0,0.0,0.0,0.0,0.0,0.0,0.0,0.0,0.0,0.0,0.0,0.0,0.0,0.0,0.0,0.0,0.0,0.0,0.0,0.0,0.0,0.0,0.0,0.0,0.0,0.0,0.0,0.0,0.0,0.0,0.0,0.0,0.0,0.0,0.0,0.0,0.0,0.0,0.0,0.0,0.0,0.0,0.0,0.0,0.0,0.0,0.0,0.0,0.0,0.0,0.0,0.0,0.0,0.0,0.0,0.0,0.0,0.0,0.0,0.0,0.0,0.0,0.0,0.0,0.0,0.0,0.0,0.0,0.0,0.0,0.0,0.0,0.0,0.0,0.0,0.0,0.0,0.0,0.0,0.0,0.0,0.0,0.0,0.0,0.0,0.0,0.0,0.0,0.0,0.0,0.0,0.0,0.0,0.0,0.0,0.0,0.0,0.0,0.0,0.0,0.0,0.0,0.0,0.0,0.0,0.0,0.0,0.0,0.0,0.0,0.0,0.0,0.0,0.0,0.0,0.0,0.0,0.0,0.0,0.0,0.0,0.0,0.0,0.0,0.0,0.0,0.0,0.0,0.0,0.0,0.0,0.0,0.0,0.0,0.0,0.0,0.0,0.0,0.0,0.0,0.0,0.0,0.0,0.0,0.0,0.0,0.0,0.0,0.0,0.0,0.0,0.0,0.0,0.0,0.0,0.0,0.0,0.0,0.0,0.0,0.0,0.0,0.0,0.0,0.0,0.0,0.0,0.0,0.0,0.0,0.0,0.0,0.0,0.0,0.0,0.0,0.0,0.0,0.0,0.0,0.0,0.0,0.0,0.0,0.0,0.0,0.0,0.0,0.0,0.0,0.0,0.0,0.0,0.0,0.0,0.0,0.0,0.0,0.0,0.0,0.0,0.0,0.0,0.0,0.0,0.0,0.0,0.0,0.0,0.0,0.0,0.0,0.0,0.0,0.0,0.0,0.0,0.0,0.0,0.0,0.0,0.0,0.0,0.0,0.0,0.0,0.0,0.0,0.0,0.0,0.0,0.0,0.0,0.0,0.0,0.0,0.0,0.0,0.0,0.0,0.0,0.0,0.0,0.0,0.0,0.0,0.0,0.0,0.0,0.0,0.0,0.0,0.0,0.0,0.0,0.0,0.0,0.0,0.0,0.0,0.0,0.0,0.0,0.0,0.0,0.0,0.0,0.0,0.0,0.0,0.0,0.0,0.0,0.0,0.0,0.0,0.0,0.0,0.0,0.0,0.0,0.0,0.0,0.0,0.0,0.0,0.0,0.0,0.0,0.0,0.0,0.0,0.0,0.0,0.0,0.0,0.0,0.0,0.0,0.0,0.0,0.0,0.0,0.0,0.0,0.0,0.0,0.0,0.0,0.0,0.0,0.0,0.0,0.0,0.0,0.0,0.0,0.0,0.0,0.0,0.0,0.0,0.0,0.0,0.0,0.0,0.0,0.0,0.0,0.0,0.0,0.0,0.0,0.0,0.0,0.0,0.0,0.0,0.0,0.0,0.0,0.0,0.0,0.0,0.0,0.0,0.0,0.0,0.0,0.0,0.0,0.0,0.0,0.0,0.0,0.0,0.0,0.0,0.0,0.0,0.0,0.0,0.0,0.0,0.0,0.0,0.0,0.0,0.0,0.0,0.0,0.0,0.0,0.0,0.0,0.0,0.0,0.0,0.0,0.0,0.0,0.0,0.0,0.0,0.0,0.0,0.0,0.0,0.0,0.0,0.0,0.0,0.0,0.0,0.0,0.0,0.0,0.0,0.0,0.0,0.0,0.0,0.0,0.0,0.0,0.0,0.0,0.0,0.0,0.0,0.0,0.0,0.0,0.0,0.0,0.0,0.0,0.0,0.0,0.0,0.0,0.0,0.0,0.0,0.0,0.0,0.0,0.0,0.0,0.0,0.0,0.0,0.0,0.0,0.0,0.0,0.0,0.0,0.0,0.0,0.0,0.0,0.0,0.0,0.0,0.0,0.0,0.0,0.0,0.0,0.0,0.0,0.0,0.0,0.0,0.0,0.0,0.0,0.0,0.0,0.0,0.0,0.0,0.0,0.0,0.0,0.0,0.0,0.0,0.0,0.0,0.0,0.0,0.0,0.0,0.0,0.0,0.0,0.0,0.0,0.0,0.0,0.0,0.0,0.0,0.0,0.0,0.0,0.0,0.0,0.0,0.0,0.0,0.0,0.0,0.0,0.0,0.0,0.0,0.0,0.0,0.0,0.0,0.0,0.0,0.0,0.0,0.0,0.0,0.0,0.0,0.0,0.0,0.0,0.0,0.0,0.0,0.0,0.0,0.0,0.0,0.0,0.0,0.0,0.0,0.0,0.0,0.0,0.0,0.0,0.0,0.0,0.0,0.0,0.0,0.0,0.0,0.0,0.0,0.0,0.0,0.0,0.0,0.0,0.0,0.0,0.0,0.0,0.0,0.0,0.0,0.0,0.0,0.0,0.0,0.0,0.0,0.0,0.0,0.0,0.0,0.0,0.0,0.0,0.0,0.0,0.0,0.0,0.0,0.0,0.0,0.0,0.0,0.0,0.0,0.0,0.0,0.0,0.0,0.0,0.0,0.0,0.0,0.0,0.0,0.0,0.0,0.0,0.0,0.0,0.0,0.0,0.0,0.0,0.0,0.0,0.0,0.0,0.0,0.0,0.0,0.0,0.0,0.0,0.0,0.0,0.0,0.0,0.0,0.0,0.0,0.0,0.0,0.0,0.0,0.0,0.0,0.0,0.0,0.0,0.0,0.0,0.0,0.0,0.0,0.0,0.0,0.0,0.0,0.0,0.0,0.0,0.0,0.0,0.0,0.0,0.0,0.0,0.0,0.0,0.0,0.0,0.0,0.0,0.0,0.0,0.0,0.0,0.0,0.0,0.0,0.0,0.0,0.0,0.0,0.0,0.0,0.0,0.0,0.0,0.0,0.0,0.0,0.0,0.0,0.0,0.0,0.0,0.0,0.0,0.0,0.0,0.0,0.0,0.0,0.0,0.0,0.0,0.0,0.0,0.0,0.0,0.0,0.0,0.0,0.0,0.0,0.0,0.0,0.0,0.0,0.0,0.0,0.0,0.0,0.0,0.0,0.0,0.0,0.0,0.0,0.0,0.0,0.0,0.0,0.0,0.0,0.0,0.0,0.0,0.0,0.0,0.0,0.0,0.0,0.0,0.0,0.0,0.0,0.0,0.0,0.0,0.0,0.0,0.0,0.0,0.0,0.0,0.0,0.0,0.0,0.0,0.0,0.0,0.0,0.0,0.0,0.0,0.0,0.0,0.0,0.0,0.0,0.0,0.0,0.0,0.0,0.0,0.0,0.0,0.0,0.0,0.0,0.0,0.0,0.0,0.0,0.0,0.0,0.0,0.0,0.0,0.0,0.0,0.0,0.0,0.0,0.0,0.0,0.0,0.0,0.0,0.0,0.0,0.0,0.0,0.0,0.0,0.0,0.0,0.0,0.0,0.0,0.0,0.0,0.0,0.0,0.0,0.0,0.0,0.0,0.0,0.0,0.0,0.0,0.0,0.0,0.0,0.0,0.0,0.0,0.0,0.0,0.0,0.0,0.0,0.0,0.0,0.0,0.0,0.0,0.0,0.0,0.0,0.0,0.0,0.0,0.0,0.0,0.0,0.0,0.0,0.0,0.0,0.0,0.0,0.0,0.0,0.0,0.0,0.0,0.0,0.0,0.0,0.0,0.0,0.0,0.0,0.0,0.0,0.0,0.0,0.0,0.0,0.0,0.0,0.0,0.0,0.0,0.0,0.0,0.0,0.0,0.0,0.0,0.0,0.0,0.0,0.0,0.0,0.0,0.0,0.0,0.0,0.0,0.0,0.0,0.0,0.0,0.0,0.0,0.0,0.0,0.0,0.0,0.0,0.0,0.0,0.0,0.0,0.0,0.0,0.0,0.0,0.0,0.0,0.0,0.0,0.0,0.0,0.0,0.0,0.0,0.0,0.0,0.0,0.0,0.0,0.0,0.0,0.0,0.0,0.0,0.0,0.0,0.0,0.0,0.0,0.0,0.0,0.0,0.0,0.0,0.0,0.0,0.0,0.0,0.0,0.0,0.0,0.0,0.0,0.0,0.0,0.0,0.0,0.0,0.0,0.0,0.0,0.0,0.0,0.0,0.0,0.0,0.0,0.0,0.0,0.0,0.0,0.0,0.0,0.0,0.0,0.0,0.0,0.0,0.0,0.0,0.0,0.0,0.0,0.0,0.0,0.0,0.0,0.0,0.0,0.0,0.0,0.0,0.0,0.0,0.0,0.0,0.0,0.0,0.0,0.0,0.0,0.0,0.0,0.0,0.0,0.0,0.0,0.0,0.0,0.0,0.0,0.0,0.0,0.0,0.0,0.0,0.0,0.0,0.0,0.0,0.0,0.0,0.0,0.0,0.0,0.0,0.0,0.0,0.0,0.0,0.0,0.0,0.0,0.0,0.0,0.0,0.0,0.0,0.0,0.0,0.0,0.0,0.0,0.0,0.0,0.0,0.0,0.0,0.0,0.0,0.0,0.0,0.0,0.0,0.0,0.0,0.0,0.0,0.0,0.0,0.0,0.0,0.0,0.0,0.0,0.0,0.0,0.0,0.0,0.0,0.0,0.0,0.0,0.0,0.0,0.0,0.0,0.0,0.0,0.0,0.0,0.0,0.0,0.0,0.0,0.0,0.0,0.0,0.0,0.0,0.0,0.0,0.0,0.0,0.0,0.0,0.0,0.0,0.0,0.0,0.0,0.0,0.0,0.0,0.0,0.0,0.0,0.0,0.0,0.0,0.0,0.0,0.0,0.0,0.0,0.0,0.0,0.0,0.0,0.0,0.0,0.0,0.0,0.0,0.0,0.0,0.0,0.0,0.0,0.0,0.0,0.0,0.0,0.0,0.0,0.0,0.0,0.0,0.0,0.0,0.0,0.0,0.0,0.0,0.0,0.0,0.0,0.0,0.0,0.0,0.0,0.0,0.0,0.0,0.0,0.0,0.0,0.0,0.0,0.0,0.0,0.0,0.0,0.0,0.0,0.0,0.0,0.0,0.0,0.0,0.0,0.0,0.0,0.0,0.0,0.0,0.0,0.0,0.0,0.0,0.0,0.0,0.0,0.0,0.0,0.0,0.0,0.0,0.0,0.0,0.0,0.0,0.0,0.0,0.0,0.0,0.0,0.0,0.0,0.0,0.0,0.0,0.0,0.0,0.0,0.0,0.0,0.0,0.0,0.0,0.0,0.0,0.0,0.0,0.0,0.0,0.0,0.0,0.0,0.0,0.0,0.0,0.0,0.0,0.0,0.0,0.0,0.0,0.0,0.0,0.0,0.0,0.0,0.0,0.0,0.0,0.0,0.0,0.0,0.0,0.0,0.0,0.0,0.0,0.0,0.0,0.0,0.0,0.0,0.0,0.0,0.0,0.0,0.0,0.0,0.0,0.0,0.0,0.0,0.0,0.0,0.0,0.0,0.0,0.0,0.0,0.0,0.0,0.0,0.0,0.0,0.0,0.0,0.0,0.0,0.0,0.0,0.0,0.0,0.0,0.0,0.0,0.0,0.0,0.0,0.0,0.0,0.0,0.0,0.0,0.0,0.0,0.0,0.0,0.0,0.0,0.0,0.0,0.0,0.0,0.0,0.0,0.0,0.0,0.0,0.0,0.0,0.0,0.0,0.0,0.0,0.0,0.0,0.0,0.0,0.0,0.0,0.0,0.0,0.0,0.0,0.0,0.0,0.0,0.0,0.0,0.0,0.0,0.0,0.0,0.0,0.0,0.0,0.0,0.0,0.0,0.0,0.0,0.0,0.0,0.0,0.0,0.0,0.0,0.0,0.0,0.0,0.0,0.0,0.0,0.0,0.0,0.0,0.0,0.0,0.0,0.0,0.0,0.0,0.0,0.0,0.0,0.0,0.0,0.0,0.0,0.0,0.0,-5.2741,-5.2394,0.0,0.0,0.0,0.0,0.0,0.0,0.0,0.0,0.0,0.0,0.0,0.0,0.0,0.0,0.0,0.0,0.0,0.0,0.0,0.0,0.0,0.0,0.0,0.0,0.0,0.0,0.0,0.0,0.0,0.0,0.0,0.0,0.0,0.0,0.0,0.0,0.0,0.0,-3.5706,-3.5419,-3.4993,-3.5728,-3.612,-3.6322,0.0,0.0,0.0,0.0,0.0,0.0,0.0,0.0,0.0,0.0,0.0,0.0,0.0,0.0,0.0,0.0,0.0,0.0,0.0,0.0,0.0,0.0,0.0,0.0,0.0,0.0,0.0,0.0,0.0,0.0,0.0,0.0,0.0,0.0,0.0,0.0,0.0,0.0,0.0,0.0,0.0,0.0,0.0,0.0,0.0,0.0,0.0,0.0,0.0,0.0,0.0,0.0,0.0,0.0,0.0,0.0,0.0,0.0,0.0,0.0,0.0,0.0,0.0,0.0,0.0,0.0,0.0,0.0,0.0,0.0,-5.3299,-5.2666,0.0,0.0,0.0,0.0,0.0,0.0,0.0,0.0,0.0,0.0,0.0,0.0,0.0,0.0,0.0,0.0,0.0,0.0,0.0,0.0,0.0,0.0,0.0,0.0,-3.4414,-3.4414,-3.4414,-3.4414,0.0,0.0,0.0,0.0,0.0,0.0,0.0,-3.6022,-3.6054,-3.5657,-3.518,-3.4773,-3.438,-3.4316,-3.4368,-3.4699,-3.5706,0.0,0.0,0.0,0.0,0.0,0.0,0.0,0.0,0.0,0.0,0.0,0.0,0.0,0.0,0.0,0.0,0.0,0.0,0.0,0.0,0.0,0.0,0.0,0.0,0.0,0.0,0.0,0.0,0.0,0.0,0.0,0.0,0.0,0.0,0.0,0.0,0.0,0.0,0.0,0.0,0.0,0.0,0.0,0.0,0.0,0.0,0.0,0.0,0.0,0.0,0.0,0.0,0.0,0.0,0.0,0.0,0.0,0.0,0.0,0.0,0.0,0.0,0.0,-5.5696,-5.6015,-5.6035,-5.5913,-5.5532,-5.4912,-5.3728,-5.2855,-5.2236,-5.2154,0.0,0.0,0.0,0.0,0.0,0.0,0.0,0.0,0.0,0.0,0.0,0.0,0.0,0.0,0.0,0.0,0.0,0.0,0.0,0.0,0.0,-3.4128,-3.4414,-3.4414,-3.4414,-3.4414,0.0,0.0,0.0,0.0,0.0,0.0,-3.6258,-3.5861,-3.5638,-3.5582,-3.3696,-3.2692,-3.2492,-3.2621,-3.2692,-3.2847,-3.422,-3.4779,-3.4647,0.0,0.0,0.0,0.0,0.0,0.0,0.0,0.0,0.0,0.0,0.0,0.0,0.0,0.0,0.0,0.0,0.0,0.0,0.0,0.0,0.0,0.0,0.0,0.0,0.0,0.0,0.0,0.0,0.0,0.0,0.0,0.0,0.0,0.0,0.0,0.0,0.0,0.0,0.0,0.0,0.0,-5.003,-5.0051,0.0,0.0,0.0,0.0,0.0,0.0,0.0,0.0,0.0,0.0,0.0,0.0,0.0,-5.5991,-5.5923,-5.5938,-5.5858,-5.5752,-5.575,-5.5748,-5.5748,-5.5728,-5.5399,-5.4828,-5.4629,0.0,-5.3943,-5.3591,0.0,0.0,0.0,0.0,0.0,0.0,0.0,0.0,0.0,0.0,0.0,0.0,0.0,0.0,0.0,0.0,0.0,0.0,0.0,0.0,0.0,-3.3465,-3.3381,-3.352,-3.3171,-3.3101,-3.352,-3.3742,0.0,0.0,0.0,-3.5329,-3.5846,-3.5544,-3.5014,-3.4182,-3.2876,-3.2218,-3.2074,-3.1736,-3.1809,-3.2218,-3.2508,-3.3143,-3.4163,-3.4581,0.0,0.0,0.0,0.0,0.0,0.0,0.0,0.0,0.0,0.0,0.0,0.0,0.0,0.0,0.0,0.0,0.0,0.0,0.0,0.0,0.0,0.0,0.0,0.0,0.0,0.0,0.0,0.0,0.0,0.0,0.0,0.0,0.0,0.0,0.0,0.0,0.0,0.0,0.0,-4.9758,-5.0108,-5.0845,-5.062,-5.0846,0.0,0.0,0.0,0.0,0.0,0.0,0.0,0.0,0.0,-5.5836,-5.6089,-5.6196,-5.6122,-5.5952,-5.5838,-5.5789,-5.5726,-5.5703,-5.5703,-5.5703,-5.5369,-5.4806,-5.4806,-5.4495,-5.4,-5.3813,-5.3545,-5.3116,0.0,0.0,0.0,0.0,-4.905,-4.8944,0.0,0.0,0.0,0.0,0.0,0.0,0.0,0.0,0.0,0.0,0.0,0.0,-3.3255,-3.2662,-3.2362,-3.2577,-3.2146,-3.2218,-3.2932,-3.3143,0.0,0.0,-3.5052,-3.5314,-3.5683,-3.5225,-3.433,-3.2821,-3.2132,-3.1809,-3.1809,-3.1259,-3.1259,-3.1809,-3.1259,-3.1896,-3.3422,-3.3768,-3.4589,-3.5776,0.0,0.0,0.0,0.0,0.0,0.0,0.0,0.0,0.0,0.0,0.0,0.0,0.0,0.0,0.0,0.0,0.0,0.0,0.0,0.0,0.0,0.0,0.0,0.0,0.0,0.0,0.0,0.0,0.0,0.0,0.0,0.0,0.0,0.0,0.0,0.0,0.0,-5.0024,-5.0533,-5.1434,-5.1534,-5.1923,0.0,0.0,0.0,0.0,0.0,0.0,-5.5451,-5.6071,-5.6426,-5.6442,-5.6316,-5.6164,-5.6029,-5.5882,-5.5788,-5.5703,-5.5703,-5.5818,-5.603,-5.603,-5.581,-5.5451,-5.5451,-5.507,-5.4407,-5.398,-5.3444,-5.2846,-5.2436,-5.194,-5.1244,-5.0033,-4.9588,-4.947,0.0,0.0,0.0,0.0,0.0,0.0,0.0,0.0,0.0,0.0,0.0,-3.1869,-3.1869,-3.1869,-3.1869,-3.1869,-3.2015,-3.2362,-3.3143,-3.3213,-3.3659,-3.4698,-3.5429,-3.5928,-3.6133,-3.4919,-3.3545,-3.2146,-3.1394,-3.1061,-3.1048,-3.0986,-3.0986,-3.1048,-3.0986,-3.1286,-3.1743,-3.2503,-3.3255,-3.4182,-3.5713,0.0,0.0,0.0,0.0,0.0,0.0,0.0,0.0,0.0,0.0,0.0,0.0,0.0,0.0,0.0,0.0,0.0,0.0,0.0,0.0,0.0,0.0,0.0,0.0,0.0,0.0,0.0,0.0,0.0,0.0,0.0,0.0,0.0,0.0,0.0,0.0,0.0,0.0,-5.1364,-5.2423,0.0,0.0,0.0,0.0,-5.5991,-5.623,-5.636,-5.6426,-5.6479,-5.652,-5.6586,-5.6582,-5.6425,-5.6097,-5.6084,-5.5943,-5.5703,-5.5703,-5.6126,-5.6915,-5.6915,-5.7015,-5.7175,-5.7175,-5.6801,-5.606,-5.4463,-5.3226,-5.2345,-5.2299,-5.1679,-5.0749,-4.9896,-4.9588,-4.947,0.0,0.0,0.0,0.0,0.0,0.0,0.0,0.0,-3.2241,-3.2503,-3.1896,-3.1576,-3.2146,-3.1636,-3.1341,-3.1549,-3.1783,-3.2218,-3.2932,-3.3143,-3.3659,-3.4631,-3.5067,-3.4957,-3.4298,-3.3241,-3.2263,-3.1394,-3.2078,-3.234,-3.234,-3.2689,-3.2876,-3.2863,-3.229,-3.2239,-3.2495,-3.2125,-3.2533,-3.3518,-3.4397,-3.5876,0.0,0.0,0.0,0.0,0.0,0.0,0.0,0.0,0.0,0.0,0.0,0.0,0.0,0.0,0.0,0.0,0.0,0.0,0.0,0.0,0.0,0.0,0.0,0.0,0.0,0.0,0.0,0.0,0.0,0.0,0.0,0.0,0.0,0.0,0.0,0.0,0.0,-5.3378,-5.3872,0.0,-5.5249,-5.5474,-5.569,-5.6041,-5.636,-5.6542,-5.6559,-5.6554,-5.6582,-5.6606,-5.6472,-5.6591,-5.6932,-5.6854,-5.7001,-5.7376,-5.7376,-5.755,-5.7838,-5.7555,-5.7385,-5.7308,-5.7031,-5.6685,-5.6206,-5.5133,-5.4363,-5.3838,-5.3567,-5.2978,-5.2183,-5.1398,-5.1279,-5.1415,0.0,0.0,0.0,0.0,0.0,0.0,0.0,0.0,-3.2241,-3.2187,-3.1589,-3.1368,-3.1856,-3.1341,-3.1193,-3.1549,-3.1783,-3.2218,-3.2932,-3.3408,-3.3919,-3.4549,-3.452,-3.4124,-3.3435,-3.2828,-3.2386,-3.2045,-3.3219,-3.3669,-3.3383,-3.3751,-3.3788,-3.3493,-3.2909,-3.2765,-3.287,-3.2349,-3.259,-3.3429,-3.4059,-3.5502,-3.7288,0.0,0.0,0.0,0.0,0.0,0.0,0.0,0.0,0.0,0.0,0.0,0.0,0.0,0.0,0.0,0.0,0.0,0.0,0.0,0.0,0.0,0.0,0.0,0.0,0.0,0.0,0.0,0.0,0.0,0.0,0.0,0.0,0.0,0.0,-5.2511,-5.3392,-5.4445,-5.4998,-5.5453,-5.5879,-5.6102,-5.6203,-5.6202,-5.6445,-5.6602,-5.6606,-5.686,-5.6996,-5.6996,-5.7154,-5.7457,-5.79,-5.7776,-5.7927,-5.8371,-5.8325,-5.8434,-5.8681,-5.8298,-5.8158,-5.811,-5.7724,-5.736,-5.706,-5.62,-5.5632,-5.5234,-5.4307,-5.3565,-5.3024,-5.2424,-5.2381,-5.2535,0.0,0.0,0.0,0.0,0.0,0.0,0.0,-3.2241,-3.2009,-3.1381,-3.122,-3.1145,-3.097,-3.1132,-3.1442,-3.1796,-3.2015,-3.2519,-3.3213,-3.4052,-3.4485,-3.4414,-3.3825,-3.3616,-3.3912,-3.3931,-3.401,-3.424,-3.4933,-3.4845,-3.4031,-3.3968,-3.3547,-3.2817,-3.2751,-3.2751,-3.2817,-3.3198,-3.3445,-3.3769,-3.4785,-3.5762,-3.6705,0.0,0.0,0.0,0.0,0.0,0.0,0.0,0.0,0.0,0.0,0.0,0.0,0.0,0.0,0.0,0.0,0.0,0.0,0.0,0.0,0.0,0.0,0.0,0.0,0.0,0.0,0.0,0.0,0.0,0.0,0.0,0.0,0.0,-5.3097,-5.4063,-5.4714,-5.4401,-5.5691,-5.6458,-5.6051,-5.637,-5.6606,-5.6606,-5.6626,-5.6645,-5.6645,-5.7406,-5.7836,-5.7836,-5.8656,-5.9059,-5.8947,-5.8803,-5.8687,-5.8583,-5.8428,-5.88,-5.955,-5.9178,-5.9291,-5.9758,-5.9361,-5.8986,-5.8614,-5.751,-5.6909,-5.6382,-5.4421,-5.3472,-5.3094,-5.284,-5.274,-5.2723,0.0,0.0,0.0,0.0,0.0,0.0,0.0,-3.296,-3.2889,-3.2648,-3.2074,-3.1576,-3.1576,-3.2074,-3.2506,-3.2577,-3.3311,-3.3825,-3.4045,-3.4303,-3.452,-3.4616,-3.4198,-3.4271,-3.4733,-3.455,-3.458,-3.4947,-3.6098,-3.6633,-3.6339,-3.6164,-3.5989,-3.5691,-3.4459,-3.4022,-3.4281,-3.4512,-3.4754,-3.4848,-3.4426,-3.5147,-3.6393,0.0,0.0,0.0,0.0,0.0,0.0,0.0,0.0,0.0,0.0,0.0,0.0,0.0,0.0,0.0,0.0,0.0,0.0,0.0,0.0,0.0,0.0,0.0,0.0,0.0,0.0,0.0,0.0,0.0,0.0,0.0,-5.4451,-5.4396,-5.4242,-5.4769,-5.5333,-5.5762,-5.6288,-5.6554,-5.6445,-5.6534,-5.6606,-5.6606,-5.7133,-5.7465,-5.7465,-5.8285,-5.8734,-5.8734,-5.8987,-5.9352,-5.9834,-5.9717,-5.9875,-6.0306,-6.0181,-6.0223,-6.0411,-5.975,-5.9525,-5.962,-5.8908,-5.8572,-5.8356,-5.7112,-5.6562,-5.6349,-5.5067,-5.4391,-5.4121,-5.3998,-5.4015,-5.4015,0.0,0.0,0.0,0.0,0.0,0.0,0.0,-3.3616,-3.3478,-3.3185,-3.272,-3.239,-3.229,-3.2875,-3.3311,-3.352,-3.4045,-3.4414,-3.4414,-3.4414,-3.4583,-3.5005,-3.4469,-3.4597,-3.5353,-3.5433,-3.5804,-3.6548,-3.7666,-3.8004,-3.771,-3.7534,-3.7218,-3.688,-3.5655,-3.5114,-3.5304,-3.5236,-3.5318,-3.5345,-3.4898,-3.5333,-3.6387,-3.6175,-3.7096,-3.844,-3.8326,-3.858,-3.9035,-4.0006,0.0,0.0,0.0,0.0,0.0,0.0,0.0,0.0,0.0,0.0,0.0,0.0,0.0,0.0,0.0,0.0,0.0,0.0,0.0,0.0,0.0,0.0,0.0,0.0,-5.5571,-5.5516,-5.5467,-5.5675,-5.5996,-5.6437,-5.6556,-5.6606,-5.6606,-5.6899,-5.7094,-5.7094,-5.7875,-5.8343,-5.8343,-5.9163,-5.9631,-5.9631,-6.0002,-6.036,-6.075,-6.0572,-6.067,-6.1002,-6.0856,-6.08,-6.0757,-6.0023,-5.9654,-5.9568,-5.8788,-5.8268,-5.7941,-5.684,-5.6295,0.0,0.0,0.0,0.0,0.0,-5.4512,-5.4512,0.0,0.0,0.0,0.0,0.0,0.0,0.0,-3.4365,-3.393,-3.3407,-3.3353,-3.3255,-3.3017,-3.3534,-3.3991,-3.4346,-3.4414,-3.4414,-3.4414,-3.4486,-3.4787,-3.5375,-3.4839,-3.5009,-3.5899,-3.6603,-3.7448,-3.8497,-3.9125,-3.9031,-3.8352,-3.8113,-3.763,-3.688,-3.6201,-3.591,-3.591,-3.5548,-3.5399,-3.548,-3.5642,-3.6035,-3.6525,-3.6344,-3.7116,-3.8279,-3.8062,-3.8472,-3.9266,-3.9975,0.0,0.0,0.0,0.0,0.0,0.0,0.0,0.0,0.0,0.0,0.0,0.0,0.0,0.0,0.0,0.0,0.0,0.0,0.0,0.0,0.0,0.0,0.0,0.0,-5.6369,-5.6568,-5.6516,-5.6563,-5.6582,-5.6575,-5.6591,-5.6645,-5.6723,-5.7387,-5.7836,-5.7933,-5.8753,-5.9261,-5.9261,-6.0061,0.0,0.0,0.0,-6.1621,-6.149,-6.1279,-6.112,-6.1002,-6.0856,-6.08,-6.0777,-6.0102,-5.9706,-5.9568,-5.8809,-5.8105,-5.7395,-5.6685,-5.6057,-5.5426,-5.479,-5.4512,-5.4512,-5.4512,-5.4512,-5.4512,0.0,0.0,0.0,0.0,0.0,0.0,0.0,-3.524,-3.4832,-3.4751,-3.4124,-3.3687,-3.3618,-3.4045,-3.4346,-3.4414,-3.4414,-3.4414,-3.4414,-3.4893,-3.5296,-3.5383,-3.6201,-3.6968,-3.7447,-3.8048,-3.8663,-3.923,-3.9349,-3.9352,-3.9119,-3.7767,-3.7049,-3.688,-3.5602,-3.5154,-3.5304,-3.5399,-3.548,-3.5642,-3.571,-3.5791,-3.5873,-3.5845,-3.6019,-3.6367,-3.6993,-3.7291,-3.7728,-3.915,-3.973,-4.004,-4.0885,-4.1403,0.0,0.0,0.0,0.0,0.0,0.0,0.0,0.0,0.0,0.0,0.0,0.0,0.0,0.0,0.0,0.0,0.0,0.0,0.0,-5.6701,-5.655,-5.6478,-5.656,-5.6582,-5.6562,-5.6454,-5.6538,-5.686,-5.7504,-5.7719,-5.8089,-5.8792,-5.9651,-6.0159,-6.0159,-6.0978,-6.1447,-6.1447,-6.151,-6.1528,-6.149,-6.1201,-6.1039,-6.1002,0.0,0.0,-6.0757,-6.0004,-5.9635,-5.9568,-5.8665,-5.7895,-5.7315,-5.6616,-5.5698,-5.4728,-5.4557,-5.4512,-5.4512,-5.4512,-5.4512,-5.4512,0.0,0.0,0.0,0.0,0.0,0.0,0.0,-3.6165,-3.5913,-3.5913,-3.527,-3.4876,-3.4876,-3.5023,-3.5169,-3.5169,-3.492,-3.4934,-3.5242,-3.5307,-3.5648,-3.6301,-3.6954,-3.7667,-3.8325,-3.8635,-3.9017,-3.9424,-3.9424,-3.9424,-3.9337,-3.8159,-3.7615,-3.763,-3.6149,-3.5696,-3.5871,-3.5642,-3.5642,-3.571,-3.571,-3.571,-3.571,-3.571,-3.571,-3.579,-3.6665,-3.6978,-3.719,-3.8428,-3.8958,-3.906,-3.9533,-4.0031,-4.0696,0.0,0.0,0.0,0.0,0.0,0.0,0.0,0.0,0.0,0.0,0.0,0.0,0.0,0.0,-5.6419,-5.6283,0.0,-5.6785,-5.6656,-5.6563,-5.6512,-5.6582,-5.6978,-5.7226,-5.7167,-5.7179,-5.7523,-5.8363,-5.8851,-5.928,-5.9729,-6.0568,-6.1056,-6.1056,-6.1466,-6.1701,-6.1701,-6.1573,-6.1441,-6.1348,-6.1123,-6.0964,-6.0901,-6.0831,-6.071,-6.0546,-5.9962,-5.9553,-5.9306,-5.8619,-5.7737,-5.6789,-5.5812,-5.5061,-5.4512,-5.4512,-5.4512,-5.4512,-5.4512,-5.4512,-5.4512,0.0,0.0,0.0,0.0,0.0,0.0,0.0,-3.6952,-3.6723,-3.6723,-3.6243,-3.5913,-3.5961,-3.5913,-3.5913,-3.5913,-3.5544,-3.5502,-3.6089,-3.5805,-3.6069,-3.7259,-3.7418,-3.793,-3.8767,-3.8855,-3.9031,-3.9424,-3.9424,-3.9424,-3.9352,-3.859,-3.8277,-3.8427,-3.7078,-3.6702,-3.6872,-3.6177,-3.5937,-3.5937,-3.579,-3.571,-3.571,-3.571,-3.5723,-3.5965,-3.6744,-3.707,-3.7211,-3.7976,-3.8202,-3.8202,-3.8202,-3.8752,-3.9576,-4.0795,-4.1658,0.0,0.0,0.0,0.0,0.0,0.0,0.0,0.0,-5.1971,-5.3624,-5.469,-5.5856,-5.6641,-5.6414,-5.6556,-5.6636,-5.6401,-5.6466,-5.6634,-5.6835,-5.7469,-5.802,-5.8342,-5.8195,-5.8382,-5.928,-5.9983,-6.0471,-6.0646,-6.131,-6.1701,-6.1701,-6.1701,-6.1696,-6.1666,-6.1509,-6.1348,-6.1162,-6.1019,-6.0922,-6.08,-6.08,-6.0641,-6.0293,-5.995,-5.9556,-5.9083,-5.8369,-5.7443,-5.6277,-5.5044,-5.4512,-5.4529,-5.4667,-5.4718,-5.4718,-5.4563,-5.4512,-5.4512,0.0,0.0,0.0,0.0,0.0,0.0,0.0,0.0,-3.6723,-3.6723,-3.6243,-3.6024,-3.6322,-3.6087,-3.5913,-3.5913,-3.5706,-3.5734,-3.6089,-3.6146,-3.6533,-3.7273,-3.7973,-3.8517,-3.8782,-3.8943,-3.9177,-3.9424,-3.9424,-3.9424,-3.9352,-3.859,-3.8248,-3.8354,-3.7663,-3.751,-3.7648,-3.7,-3.678,-3.6702,-3.6017,-3.571,-3.571,-3.571,-3.5978,-3.6391,-3.6836,-3.7226,-3.761,-3.8052,-3.8202,-3.8202,-3.8202,-3.8277,-3.8679,-4.0423,-4.1115,-4.1866,-4.4417,-4.6697,-4.829,-4.8031,-4.9801,-5.177,0.0,-5.3343,-5.4464,-5.5189,-5.5517,-5.5662,-5.5638,-5.5849,-5.6059,-5.6193,-5.6343,-5.6737,-5.763,-5.7846,-5.846,-5.9948,-5.9436,-5.93,-6.0178,-6.0334,-6.0725,-6.1505,-6.1642,-6.1701,-6.1701,-6.1701,-6.1654,-6.1528,-6.1328,-6.1182,-6.1019,-6.088,-6.0804,-6.08,-6.08,-6.0641,-6.0293,-5.995,-5.9571,-5.9084,-5.7507,-5.6649,-5.6277,-5.5044,-5.4512,-5.4581,-5.5236,-5.5495,-5.5408,-5.4753,-5.4512,-5.4512,0.0,0.0,0.0,0.0,0.0,0.0,0.0,0.0,0.0,0.0,-3.7118,-3.7147,-3.7266,-3.7326,-3.7342,-3.7342,-3.6878,-3.6797,-3.7349,-3.7057,-3.7245,-3.7958,-3.831,-3.8664,-3.8943,-3.9031,-3.9177,-3.9424,-3.9424,-3.9424,-3.9352,-3.859,-3.8337,-3.8605,-3.7829,-3.7663,-3.7936,-3.7218,-3.7141,-3.751,-3.6243,-3.5937,-3.6322,-3.5871,-3.6125,-3.6836,-3.751,-3.804,0.0,-3.8884,-3.903,-3.8899,-3.8337,-3.8546,-3.9305,-4.0644,-4.1797,-4.3185,-4.5757,-4.7586,-4.8761,-4.8977,-4.9925,-5.1226,-5.257,-5.325,-5.3926,-5.5151,-5.5446,-5.5504,-5.5504,-5.581,-5.6097,-5.6185,-5.6797,-5.7408,-5.7846,-5.8739,-5.9612,-6.0315,-6.0529,-6.0764,-6.1115,-6.1154,-6.131,-6.1681,-6.1701,-6.1701,-6.1701,-6.1701,-6.1634,-6.149,-6.1304,-6.1132,-6.1002,-6.0856,-6.08,-6.08,-6.08,-6.052,-6.0011,-5.9855,-5.9432,-5.8766,-5.8121,-5.7526,-5.7028,-5.6586,-5.6171,-5.5874,-5.6184,-5.6305,-5.6271,-5.596,-5.5839,-5.577,0.0,0.0,0.0,0.0,0.0,0.0,0.0,0.0,0.0,0.0,-3.7786,-3.7943,-3.8017,-3.8432,-3.856,-3.8391,-3.8062,-3.7964,-3.8273,-3.7918,-3.7974,-3.8486,-3.859,-3.8811,-3.9104,-3.9177,-3.9265,-3.9424,-3.9424,-3.9424,-3.9424,-3.8885,-3.8797,-3.909,-3.8517,-3.8413,-3.8708,-3.789,-3.789,-3.8324,-3.6688,-3.6401,-3.678,-3.6017,-3.6336,-3.7337,-3.8043,-3.8649,-3.9275,-3.9773,-3.9969,-3.9844,-3.9145,-3.9433,-4.0293,-4.1484,-4.3299,-4.5395,-4.7318,-4.8655,-4.9552,-4.9889,-5.0325,-5.1108,-5.2757,-5.313,-5.3535,-5.4924,-5.5307,-5.5413,-5.5504,-5.5887,-5.629,-5.6516,-5.7304,-5.8064,-5.8519,-5.9624,-6.0487,-6.0725,-6.133,-6.1701,-6.1701,-6.1701,-6.1701,-6.1701,-6.1701,-6.1701,-6.1701,-6.1666,-6.1568,-6.1412,-6.1239,-6.107,-6.0963,-6.0853,-6.08,-6.08,-6.071,-6.0368,-5.9809,-5.9836,-5.9459,-5.8881,-5.8937,-5.8601,-5.7979,-5.7681,-5.73,-5.6822,-5.7012,-5.7098,-5.7133,-5.734,-5.715,-5.6719,0.0,0.0,0.0,0.0,0.0,0.0,0.0,0.0,0.0,0.0,0.0,0.0,0.0,-3.8947,-3.9056,-3.8448,-3.8785,-3.8817,-3.8338,-3.8613,-3.8757,-3.8486,-3.8885,-3.9104,-3.9104,-3.9265,-3.9424,-3.9424,-3.9424,-3.9424,-3.9409,-3.9538,-3.9768,-3.9996,-4.0137,-4.0316,-4.037,-3.955,-3.9233,-3.9088,-3.7525,-3.6858,-3.678,-3.6017,-3.6545,-3.7829,-3.8192,-3.8854,-3.9703,-4.056,-4.0883,-4.0899,-4.0831,-4.0982,-4.1456,-4.3057,-4.5843,-4.8446,-4.8821,-5.0204,-5.1444,-5.0963,-5.1665,-5.2608,-5.3244,-5.3388,-5.3683,-5.4635,-5.4933,-5.5126,-5.5531,-5.5931,-5.6483,-5.7325,-5.7714,-5.8474,-6.0104,-6.0368,-6.0705,-6.1564,-6.1681,-6.1701,-6.1701,-6.1701,-6.1701,-6.1701,-6.1701,-6.1701,-6.1701,-6.158,-6.1412,-6.122,-6.107,-6.0943,-6.0823,-6.08,-6.08,-6.08,-6.0475,-6.0131,-5.9796,-5.9867,-5.9868,-5.982,-5.9565,-5.9257,-5.8897,-5.7745,-5.7097,-5.6874,-5.7598,-5.7874,-5.7961,-5.8685,-5.803,-5.6805,0.0,0.0,0.0,0.0,0.0,0.0,0.0,0.0,0.0,0.0,0.0,0.0,0.0,0.0,0.0,0.0,-3.9453,-3.9706,-3.9517,-3.9514,-3.9592,-3.9636,-3.9307,-3.9177,-3.9265,-3.9337,-3.9424,-3.9424,-3.9424,-3.9424,-3.9409,-3.9625,-3.9839,-4.0011,-4.0207,-4.0401,-4.0455,-3.9621,-3.9621,-3.992,-3.7753,-3.7218,-3.7663,-3.6986,-3.7501,-3.8792,0.0,-4.0836,-4.1162,-4.169,-4.182,-4.1739,-4.11,-4.143,-4.2478,-4.4739,-4.7094,-4.9046,-4.9394,-5.0639,-5.179,-5.1491,-5.1969,-5.2645,-5.3244,-5.3407,-5.3586,-5.4311,-5.4988,-5.5534,-5.575,-5.6755,-5.7638,-5.7978,-5.8885,-5.9764,-6.0318,-6.0909,-6.1369,-6.1681,-6.1701,-6.1701,-6.1701,-6.1701,-6.1701,-6.1701,-6.1701,-6.1666,-6.158,-6.1528,-6.1367,-6.109,-6.1019,-6.0943,-6.08,-6.08,-6.071,-6.0449,-5.9849,-5.982,-6.0282,-6.0006,-6.0055,-6.0324,-6.0707,-6.0409,-5.9645,-5.9752,-5.9327,-5.8706,-5.8949,-5.8853,-5.8668,-5.8926,-5.8702,-5.8202,0.0,0.0,0.0,0.0,0.0,0.0,0.0,0.0,0.0,0.0,0.0,0.0,0.0,0.0,0.0,0.0,0.0,-4.0258,-4.0335,-4.0387,-4.0562,-4.0847,-4.0347,-4.01,-4.0324,-4.0324,-4.0324,-4.0324,-3.999,-3.9935,-3.995,-3.9839,-3.991,-4.0137,-4.0261,-4.0401,-4.0455,-3.992,-4.0076,-4.0439,-3.8635,-3.819,-3.8694,-3.8296,-3.885,0.0,-4.1662,-4.2437,-4.2753,-4.2925,-4.288,-4.2632,-4.2062,-4.2912,-4.4532,-4.6207,-4.8102,-4.9649,-4.9811,-5.0789,-5.1718,-5.1439,-5.1951,-5.2618,-5.3072,-5.318,-5.3459,-5.4335,-5.5088,-5.5791,-5.6391,-5.7461,-5.8373,-5.8829,-5.9759,-6.0503,-6.0781,-6.1303,-6.1662,-6.1701,-6.1701,-6.1701,-6.1701,-6.1701,-6.1701,-6.1701,-6.166,-6.1588,-6.149,-6.1398,-6.1216,-6.1002,-6.0944,-6.0899,-6.08,-6.0666,-6.0376,-5.988,-5.9413,-5.959,-6.0297,-6.0348,-6.0559,-6.0985,-6.1636,-6.1315,-6.0447,-6.0766,-6.037,-5.9569,-5.9569,-5.9351,-5.9012,-5.9012,-5.9012,-5.8944,0.0,0.0,0.0,0.0,0.0,0.0,0.0,0.0,0.0,0.0,0.0,0.0,0.0,0.0,0.0,0.0,0.0,0.0,-4.0762,-4.1271,-4.1743,-4.2185,-4.1901,-4.1901,-4.2045,-4.2045,-4.2062,-4.1997,-4.1147,-4.0826,-4.106,-4.037,-4.0191,-4.0401,-4.0524,-4.0608,-4.0708,-4.0662,-4.073,-4.0898,-4.0015,-3.9859,-3.9984,-3.9979,-4.0546,-4.1597,-4.272,-4.3681,-4.4378,-4.4333,-4.3964,-4.3568,-4.3568,-4.5241,-4.7191,-4.73,-4.874,-5.0276,-5.0092,-5.0609,-5.1185,-5.0981,-5.1701,-5.2526,-5.2761,-5.2842,-5.3237,-5.4603,-5.5193,-5.5905,-5.7358,-5.8054,-5.877,-5.9857,-6.0275,-6.0739,-6.1495,-6.1614,-6.1621,-6.1686,-6.1701,-6.1701,-6.1701,-6.1696,-6.1696,-6.1696,-6.158,-6.149,-6.1471,-6.1171,-6.1002,-6.0983,-6.0856,-6.08,-6.0757,-6.0422,-5.988,-5.9215,-5.9178,-5.9455,-5.9942,-6.0754,-6.1392,-6.1794,-6.2186,-6.1915,-6.1145,-6.0757,-6.0234,-5.9635,-5.9635,-5.9369,-5.9012,-5.9012,-5.9012,-5.9012,0.0,0.0,0.0,0.0,0.0,0.0,0.0,0.0,0.0,0.0,0.0,0.0,0.0,0.0,0.0,0.0,0.0,0.0,-4.1682,-4.2052,-4.2642,-4.3638,-4.3331,-4.2933,-4.259,-4.2606,-4.2407,-4.1997,-4.1804,-4.1674,-4.1739,-4.169,-4.1771,-4.1771,-4.1949,-4.2366,-4.3025,-4.2446,-4.2638,-4.3153,-4.1803,-4.1338,-4.1452,-4.1614,-4.2197,-4.3164,-4.4209,-4.4661,-4.4674,-4.4128,-4.3638,-4.3235,-4.3372,-4.4832,-4.6362,-4.6374,-4.7792,-4.9321,-4.9118,-4.998,-5.0997,-5.0911,-5.1701,-5.2526,-5.2761,-5.3261,-5.3888,-5.4538,-5.5806,-5.7059,-5.7823,-5.9014,-6.007,-6.0653,-6.11,-6.1444,-6.1655,-6.168,-6.1678,-6.1701,-6.1701,-6.1701,-6.1701,-6.1621,-6.1545,-6.1545,-6.1528,-6.1398,-6.1139,-6.1057,-6.0944,-6.0834,-6.0827,-6.0666,-6.0422,-5.9817,-5.9378,-5.9215,-5.8966,-5.919,-5.9942,-6.0414,-6.0882,-6.1277,-6.1679,-6.16,-6.1135,-6.1016,-6.0591,-5.9961,-5.9961,-5.9551,-5.9012,-5.9012,-5.9012,-5.9012,0.0,0.0,0.0,0.0,0.0,0.0,0.0,0.0,0.0,0.0,0.0,0.0,0.0,0.0,0.0,0.0,0.0,0.0,0.0,-4.221,-4.3047,-4.4316,-4.4536,-4.4528,-4.427,-4.4024,-4.3772,-4.3472,-4.286,-4.2583,-4.2629,-4.2442,-4.2458,-4.252,-4.2629,-4.3043,-4.3448,-4.3056,-4.3244,0.0,0.0,-4.2545,-4.2818,-4.3271,-4.3779,-4.4342,-4.5268,-4.5284,-4.4855,-4.4507,-4.3823,-4.3174,-4.3654,-4.502,-4.6417,-4.6235,-4.7732,-4.9266,-4.8956,-4.9861,-5.0911,-5.1069,-5.1799,-5.2681,-5.3217,-5.3452,-5.4019,-5.5599,-5.6569,-5.751,-5.8856,-5.9957,-6.0763,-6.1074,-6.1422,-6.1653,-6.1651,-6.166,-6.1662,-6.1701,-6.1701,-6.1671,-6.1621,-6.1537,-6.1431,-6.1305,-6.1272,-6.1201,-6.1002,-6.0924,-6.0877,-6.08,-6.0666,-6.033,-5.9817,-5.9413,-5.9121,-5.8986,-5.8803,-5.9125,-5.99,-6.0305,-6.0719,-6.1105,0.0,-6.1448,-6.1093,-6.1093,-6.0793,-6.028,-6.0171,-5.9766,-5.9217,-5.9081,-5.9012,-5.8944,0.0,0.0,0.0,0.0,0.0,0.0,0.0,0.0,0.0,0.0,0.0,0.0,0.0,0.0,0.0,0.0,0.0,0.0,0.0,0.0,-4.3031,-4.455,-4.5411,-4.5944,-4.6098,-4.5699,-4.5459,-4.5303,-4.4152,-4.3588,-4.3647,-4.3075,-4.2892,-4.3092,-4.318,-4.335,-4.3416,-4.3333,-4.3426,-4.3737,-4.3638,-4.3748,-4.4004,0.0,-4.5125,-4.5284,-4.5887,-4.5632,-4.4964,-4.5054,-4.4282,-4.3399,-4.4105,-4.552,-4.6862,-4.6639,-4.8135,-4.97,-4.9297,-5.0055,-5.0999,-5.1258,-5.1897,-5.2753,-5.3636,-5.3548,-5.4036,-5.6872,-5.7298,-5.7794,-6.0008,-6.0717,-6.1046,-6.124,-6.1444,-6.1553,-6.1559,-6.1557,-6.1567,-6.1627,-6.164,-6.1595,-6.1481,-6.1441,-6.1318,-6.102,-6.0983,-6.0945,-6.0983,-6.0856,-6.0777,-6.0734,-6.0349,-5.9849,-5.9215,-5.914,-5.8986,-5.8716,-5.8656,-5.8985,-5.9671,-6.0047,-6.0457,-6.089,-6.1317,-6.13,-6.1093,-6.1093,-6.0914,-6.0547,-6.0297,-5.9961,-5.9569,-5.9217,-5.9012,-5.8789,0.0,0.0,0.0,0.0,0.0,0.0,0.0,0.0,0.0,0.0,-3.9272,-3.9272,0.0,0.0,0.0,0.0,0.0,0.0,0.0,0.0,0.0,-4.4533,-4.5382,-4.5893,-4.6098,-4.6454,-4.6213,-4.5303,-4.5091,-4.4838,-4.4575,-4.4463,-4.4446,-4.4614,-4.4669,-4.5048,-4.567,-4.5073,-4.5265,-4.5994,-4.5272,-4.5123,-4.5319,-4.5546,0.0,0.0,-4.5752,-4.5407,-4.5054,-4.4947,-4.4507,-4.4054,-4.4282,-4.5659,-4.7155,-4.7077,-4.8384,-4.9759,-4.9681,-5.0445,-5.1258,-5.131,-5.1958,-5.269,-5.3076,-5.3852,-5.4946,-5.6535,-5.763,-5.8756,-6.0201,-6.0674,-6.0905,-6.119,-6.1287,-6.1353,-6.1357,-6.1292,-6.127,-6.1285,-6.1285,-6.1272,-6.1246,-6.1151,-6.1055,-6.1002,-6.0858,-6.0785,-6.0831,-6.0804,-6.0666,-6.0395,-5.9753,-5.9342,-5.9215,-5.8926,-5.8781,-5.8716,-5.8363,-5.8286,-5.8408,-5.8555,-5.8947,-5.9619,-6.0024,0.0,-6.1093,-6.1093,-6.0914,-6.0609,-6.0547,-6.0153,-5.9569,-5.9502,-5.8995,-5.8263,0.0,0.0,0.0,0.0,0.0,0.0,0.0,-3.8432,-3.8711,-3.8985,-3.9202,-3.9272,-3.9272,-3.9272,-3.9272,0.0,0.0,0.0,0.0,0.0,0.0,0.0,0.0,0.0,-4.5928,-4.6148,-4.6252,-4.6147,0.0,-4.5631,-4.523,-4.5302,-4.5266,-4.5086,-4.5194,-4.5453,-4.5817,-4.5455,-4.5577,-4.5958,-4.5579,-4.5476,-4.5615,0.0,0.0,0.0,-4.5972,-4.5819,-4.5751,-4.5615,-4.5494,-4.5303,-4.5108,-4.6024,-4.7273,-4.7614,-4.8889,-5.022,-5.05,-5.1139,-5.175,-5.191,-5.2278,-5.2816,-5.3718,-5.4142,-5.5004,-5.739,-5.813,-5.8828,-6.055,-6.098,-6.1111,-6.1277,-6.1328,-6.1353,-6.1354,-6.1253,-6.1206,-6.1206,-6.1206,-6.1177,-6.1103,-6.1037,-6.0983,-6.0901,-6.0808,-6.0777,-6.08,-6.0641,-6.0274,-5.9753,-5.9378,-5.9121,-5.8966,-5.8762,-5.8596,-5.8406,-5.8213,-5.8015,-5.7839,-5.8036,-5.8374,-5.8754,-5.9552,-6.013,-6.0504,-6.0933,-6.0974,-6.0854,-6.0671,-6.0297,-5.9831,-5.9334,-5.8685,-5.8031,0.0,0.0,0.0,0.0,0.0,0.0,0.0,-3.8205,-3.8504,-3.886,-3.9148,-3.9272,-3.9272,-3.9272,-3.9272,0.0,0.0,0.0,0.0,0.0,0.0,0.0,0.0,0.0,-4.5356,0.0,0.0,-4.6704,-4.6524,0.0,0.0,0.0,0.0,0.0,-4.5546,-4.5563,-4.5563,-4.5476,-4.5423,0.0,0.0,-4.5476,0.0,0.0,0.0,0.0,0.0,-4.6398,-4.6447,-4.6319,-4.6398,-4.6464,-4.6262,-4.6812,-4.772,-4.8487,-4.9714,-5.0947,-5.1345,-5.1799,-5.2257,-5.2545,-5.2635,-5.3047,-5.4288,-5.4279,-5.4863,-5.7905,-5.8323,-5.8697,-6.0594,-6.1131,-6.1322,-6.1373,-6.1381,-6.1354,-6.1315,-6.1219,-6.1147,-6.1116,-6.11,-6.107,-6.0964,-6.0944,-6.0902,-6.0823,-6.069,-6.0666,-6.069,-6.0274,-5.9785,-5.9215,-5.9046,-5.8849,-5.8553,-5.8511,-5.8338,-5.7969,-5.7923,-5.7708,-5.7473,-5.765,-5.7836,-5.8106,-5.9033,-5.9594,-5.9969,-6.0576,-6.095,-6.1093,-6.0793,-6.0405,-5.9879,-5.908,-5.8388,-5.7685,0.0,0.0,0.0,0.0,0.0,0.0,0.0,-3.8391,-3.8616,-3.9164,-3.9272,-3.9272,-3.9272,-3.9272,-3.9272,0.0,0.0,0.0,0.0,0.0,0.0,0.0,0.0,0.0,0.0,0.0,0.0,-4.597,-4.6704,0.0,0.0,0.0,0.0,0.0,0.0,-4.6137,-4.6087,-4.5615,0.0,0.0,0.0,0.0,0.0,0.0,0.0,0.0,0.0,-4.6742,-4.659,-4.659,-4.6731,-4.7059,-4.7811,-4.8413,-4.9053,-5.0008,-5.1075,-5.1969,-5.2018,-5.2286,-5.2545,-5.259,-5.2787,-5.3151,-5.3757,-5.4168,-5.4901,-5.6556,-5.7771,-5.8855,-5.9837,-6.0721,-6.1305,-6.1307,-6.1306,-6.1245,-6.1058,-6.1037,-6.0983,-6.0853,-6.0831,-6.0831,-6.0827,-6.0827,-6.0804,-6.08,-6.0411,-6.0227,-6.0321,-5.9687,-5.927,-5.9196,-5.8545,-5.8194,-5.8168,-5.7867,-5.7679,-5.7631,-5.7289,-5.7087,-5.7054,-5.6725,-5.6937,-5.7634,-5.7795,-5.8613,0.0,-5.9987,-6.0451,-6.1111,-6.1034,-6.0432,-5.9499,-5.9265,-5.8157,-5.6757,0.0,0.0,0.0,0.0,0.0,0.0,-3.8075,-3.8432,-3.8711,-3.8985,-3.9148,-3.9272,-3.9272,-3.9379,-3.9448,-3.9448,0.0,0.0,0.0,0.0,0.0,0.0,0.0,0.0,0.0,0.0,-4.4724,-4.5172,-4.644,0.0,0.0,0.0,0.0,0.0,0.0,-4.6186,-4.6186,-4.5615,0.0,0.0,0.0,0.0,0.0,0.0,0.0,0.0,0.0,0.0,-4.7071,-4.7071,-4.7428,-4.8065,-4.9423,-5.0044,-5.032,-5.0731,-5.1531,-5.2286,-5.2379,-5.2563,-5.2743,-5.2806,-5.312,-5.366,-5.475,-5.4947,-5.5479,-5.7379,-5.7834,-5.8288,-5.9695,-6.0303,-6.0756,-6.1329,-6.1383,-6.1338,-6.1257,-6.1175,-6.107,-6.0943,-6.0923,-6.088,-6.0823,-6.08,-6.069,-6.0411,-5.983,-5.9518,-5.9553,-5.9289,-5.9064,-5.8887,-5.8369,-5.8105,-5.8105,-5.7774,-5.7504,-5.7257,-5.7105,-5.6899,-5.6653,-5.6492,-5.6561,-5.6882,-5.7382,-5.7935,0.0,-5.9523,-5.9823,-5.9743,-6.0238,-5.9744,-5.8806,-5.8353,-5.752,-5.6603,0.0,0.0,0.0,0.0,0.0,-3.8184,-3.8148,-3.8511,-3.886,-3.8914,-3.9148,-3.9272,-3.9272,-3.9448,-3.9501,-3.9537,-3.9677,0.0,0.0,0.0,0.0,0.0,0.0,0.0,0.0,0.0,-4.3558,-4.4414,-4.5965,-4.6652,0.0,0.0,-4.765,-4.7309,0.0,0.0,0.0,0.0,0.0,0.0,0.0,0.0,0.0,0.0,0.0,0.0,0.0,0.0,0.0,0.0,0.0,-4.8825,-5.0564,-5.1174,-5.1306,-5.1694,-5.2225,-5.2707,-5.2698,-5.2761,-5.2893,-5.2999,-5.3555,-5.439,-5.5535,-5.5701,-5.6088,-5.7757,-5.7733,-5.7776,-5.9032,-5.9717,-6.0331,-6.1029,-6.1326,-6.146,-6.1426,-6.1354,-6.1239,-6.109,-6.1019,-6.0964,-6.0856,-6.0719,-6.043,-5.9861,-5.9378,-5.9006,-5.8788,-5.8788,-5.8684,-5.8511,-5.8033,-5.7784,-5.7784,-5.7419,-5.7087,-5.6847,-5.6847,-5.6689,-5.6401,-5.6401,-5.6273,-5.6123,-5.673,-5.6972,0.0,-5.816,-5.8545,-5.8526,-5.9102,-5.8872,-5.8174,-5.7668,-5.7089,-5.6541,0.0,0.0,0.0,0.0,0.0,0.0,-3.8792,-3.8805,-3.8914,-3.9272,-3.9272,-3.9272,-3.9272,-3.9448,-3.9537,-3.9677,-3.9833,0.0,0.0,0.0,0.0,0.0,0.0,0.0,0.0,0.0,-4.2549,-4.3688,-4.5312,-4.6454,-4.7094,-4.7939,-4.8306,-4.8249,0.0,0.0,0.0,0.0,0.0,0.0,0.0,0.0,0.0,0.0,0.0,0.0,0.0,0.0,0.0,0.0,0.0,0.0,0.0,-5.1593,-5.1828,-5.3008,-5.3388,-5.3285,-5.2919,-5.2912,-5.2999,-5.2999,-5.41,-5.5299,-5.5718,-5.6205,-5.6691,-5.714,-5.7306,-5.742,-5.7519,-5.8937,-6.0141,-6.0291,-6.1035,-6.1573,-6.1517,-6.149,-6.1412,-6.122,-6.107,-6.1002,-6.1002,-6.0594,-5.9962,-5.9159,-5.9083,0.0,-5.8042,-5.7997,-5.8024,-5.8105,-5.7419,-5.7003,-5.7003,-5.66,-5.6401,-5.6401,-5.6401,-5.6401,-5.6401,-5.6401,-5.6032,-5.5385,-5.5402,-5.5427,0.0,-5.5541,-5.6439,-5.7803,-5.782,-5.7826,-5.7814,-5.7594,-5.7013,-5.6307,0.0,0.0,0.0,0.0,0.0,0.0,0.0,-4.0449,-4.0618,-4.0729,-4.0746,-4.0619,-4.0247,-4.0304,-4.0247,-3.9883,-3.9901,0.0,0.0,0.0,0.0,0.0,0.0,0.0,0.0,0.0,-4.147,-4.1921,-4.4277,-4.5558,-4.5927,-4.7549,-4.8306,-4.8267,-4.7632,-4.7464,0.0,0.0,0.0,0.0,0.0,0.0,0.0,0.0,0.0,0.0,0.0,0.0,0.0,0.0,0.0,0.0,0.0,0.0,0.0,-5.4025,-5.4274,-5.4032,-5.3887,-5.3923,-5.4032,-5.4032,-5.5018,-5.6216,-5.6976,-5.7546,-5.7949,-5.8123,-5.7746,-5.7412,-5.748,-5.8039,-5.8866,-6.0097,-6.0561,-6.0971,-6.1562,-6.1315,-6.1025,-6.0893,-6.0469,-6.017,-6.017,-5.9779,-5.9413,-5.9121,-5.8624,-5.8231,-5.7997,-5.7504,-5.7338,-5.7774,-5.7289,-5.7003,-5.7003,-5.66,-5.6401,-5.6383,-5.5957,-5.5711,-5.5711,-5.5266,-5.4887,-5.4703,-5.4703,-5.47,-5.477,-5.5317,-5.551,-5.5621,-5.6626,-5.6761,-5.6363,-5.6787,-5.6757,-5.6385,0.0,0.0,0.0,0.0,0.0,0.0,0.0,-4.1312,-4.1409,-4.1409,-4.1481,-4.1372,-4.105,-4.1163,-4.1124,-4.0776,-4.0778,0.0,0.0,0.0,0.0,0.0,0.0,0.0,0.0,-4.11,-4.1612,-4.1945,-4.3952,-4.5094,-4.5462,-4.7215,-4.8035,-4.8035,-4.7715,-4.7733,0.0,0.0,0.0,0.0,0.0,0.0,-4.9101,0.0,0.0,0.0,0.0,0.0,0.0,0.0,0.0,0.0,0.0,0.0,0.0,0.0,-5.5053,-5.4838,-5.4459,-5.4459,-5.4541,-5.4541,-5.5532,-5.6728,-5.7666,-5.8284,-5.8663,-5.87,-5.8042,-5.741,-5.7123,-5.7417,-5.8059,-5.9177,-5.994,-6.0534,-6.089,-6.0919,-6.0771,-6.0473,-6.01,-5.9811,-5.9605,-5.9361,-5.9121,-5.8966,-5.8388,-5.7978,-5.7857,-5.7239,-5.6951,-5.7138,-5.6899,-5.6794,-5.6794,-5.6546,-5.6273,-5.6014,-5.5578,-5.5266,-5.5009,-5.4579,-5.4264,-5.4008,-5.4008,-5.3895,0.0,-5.4108,-5.4211,-5.4216,-5.5408,-5.577,-5.5719,-5.6432,-5.6603,-5.6463,0.0,0.0,0.0,0.0,0.0,0.0,0.0,-4.1574,-4.1574,-4.1574,-4.1704,-4.1816,-4.1822,-4.2026,-4.2156,-4.2105,0.0,0.0,0.0,0.0,0.0,0.0,0.0,0.0,-4.1288,-4.1948,-4.2672,-4.3339,-4.422,-4.4975,-4.5686,-4.6956,-4.7591,-4.7632,-4.7632,-4.7955,0.0,0.0,0.0,0.0,0.0,0.0,0.0,0.0,0.0,0.0,0.0,0.0,0.0,0.0,0.0,0.0,0.0,0.0,0.0,0.0,0.0,0.0,0.0,-5.4665,-5.4705,-5.4705,-5.5728,-5.6996,-5.7876,-5.8541,0.0,-5.8912,-5.8257,-5.7424,-5.6554,-5.7069,-5.7656,-5.7785,-5.9163,-6.01,-5.975,-6.0328,-6.0596,-6.0015,-5.9922,-5.9722,-5.927,-5.9178,-5.9006,-5.8698,-5.8319,-5.7941,-5.7601,-5.7206,-5.6794,-5.6401,-5.6328,-5.6328,-5.6328,-5.6328,-5.6014,-5.5325,-5.5266,-5.4948,-5.4328,-5.4264,-5.3895,0.0,-5.3332,-5.2956,-5.2373,-5.2373,-5.2771,-5.3417,-5.4162,-5.4816,-5.5544,-5.6272,-5.6553,-5.6525,0.0,0.0,0.0,0.0,0.0,0.0,0.0,0.0,0.0,0.0,-4.3248,-4.3222,-4.2735,-4.2836,-4.2783,0.0,0.0,0.0,0.0,0.0,0.0,0.0,0.0,0.0,-4.2033,-4.2291,-4.2585,-4.2843,-4.4121,-4.4879,-4.5182,-4.647,-4.7291,-4.7733,-4.7733,-4.8132,0.0,0.0,0.0,0.0,0.0,0.0,0.0,0.0,0.0,0.0,-4.9593,-4.975,0.0,0.0,0.0,0.0,0.0,0.0,0.0,0.0,-5.5857,-5.5901,-5.5816,0.0,-5.5621,-5.5797,-5.6554,-5.7487,0.0,-5.9232,-5.9649,-5.9033,-5.8733,-5.8133,-5.6675,-5.6601,-5.701,-5.7688,-5.8148,-5.8708,-5.9575,-5.9752,-5.971,-5.9405,-5.9159,-5.9046,-5.9215,-5.8947,-5.8661,-5.8257,-5.7914,-5.7534,-5.7138,-5.6742,-5.6492,-5.6401,-5.5901,-5.5636,-5.5636,-5.5636,-5.5325,-5.4641,-5.4136,-5.3764,-5.3649,-5.306,-5.2747,-5.264,-5.264,-5.257,-5.2373,-5.2373,-5.2473,-5.2688,-5.34,-5.3741,-5.3831,-5.461,-5.5196,-5.5474,0.0,0.0,0.0,0.0,0.0,0.0,0.0,0.0,0.0,0.0,0.0,-4.3905,-4.3642,-4.3721,0.0,0.0,0.0,0.0,0.0,0.0,0.0,0.0,0.0,-4.2864,-4.2935,-4.3365,-4.3642,-4.3853,-4.4595,-4.5041,-4.5209,-4.64,-4.7142,-4.7446,-4.8017,-4.8458,0.0,0.0,0.0,0.0,-4.9131,0.0,0.0,0.0,0.0,0.0,-4.9663,-4.9816,0.0,-5.0082,-5.0231,-5.0699,0.0,0.0,0.0,0.0,-5.6001,-5.613,-5.6289,-5.6217,-5.6102,-5.6209,-5.6617,-5.7308,-5.86,-5.9295,-5.9559,-5.9096,-5.8984,-5.8476,-5.6793,-5.6471,-5.6634,-5.7153,-5.7342,-5.7877,-5.9109,-5.9163,-5.9091,-5.9196,-5.9045,-5.8868,0.0,-5.854,-5.8275,-5.7895,-5.7534,-5.7257,-5.7003,-5.66,-5.6273,-5.5957,-5.5578,-5.5385,-5.5385,-5.5069,-5.4579,-5.396,-5.3566,-5.3264,-5.2956,-5.257,-5.2373,-5.2373,-5.2373,-5.2373,-5.2373,-5.2373,-5.2373,-5.244,-5.2754,-5.3008,-5.3258,-5.3616,-5.4143,-5.4553,0.0,0.0,0.0,0.0,0.0,0.0,0.0,0.0,0.0,0.0,0.0,0.0,0.0,0.0,0.0,0.0,0.0,0.0,0.0,0.0,0.0,0.0,-4.3305,-4.3715,-4.3858,-4.4507,-4.4978,-4.5177,-4.5247,-4.53,-4.5476,-4.6358,-4.6882,-4.7132,-4.8289,-4.8822,0.0,0.0,-4.9101,-4.9135,-4.9244,0.0,0.0,0.0,0.0,0.0,0.0,0.0,0.0,-5.0133,-5.0278,-5.0747,-5.25,0.0,0.0,0.0,0.0,0.0,-5.6455,-5.6427,-5.6359,-5.6362,-5.6424,-5.6936,-5.8634,-5.9119,-5.9175,-5.9107,-5.9101,-5.8577,-5.687,-5.6491,-5.6459,-5.6553,-5.6761,-5.7236,-5.8181,-5.8235,-5.8333,-5.8782,-5.8878,0.0,-5.8061,-5.8076,-5.7941,-5.7534,-5.7188,-5.7003,-5.6899,-5.6474,-5.6014,-5.5402,-5.5207,-5.5069,-5.5069,-5.4516,-5.3895,-5.3264,-5.3264,-5.2956,-5.2373,-5.2373,-5.2373,-5.2373,0.0,0.0,-5.2373,-5.223,-5.2214,-5.2208,-5.1918,-5.2181,-5.2589,-5.2622,-5.3065,-5.3577,0.0,0.0,0.0,0.0,0.0,0.0,0.0,0.0,0.0,0.0,0.0,0.0,0.0,0.0,0.0,0.0,0.0,0.0,0.0,0.0,0.0,-4.4436,-4.4538,-4.4606,-4.4606,-4.4964,-4.5177,-4.5177,-4.53,-4.5423,-4.5563,-4.5752,-4.6376,-4.7367,-4.8402,-4.8962,-4.9068,-4.9101,-4.9116,-4.9197,-4.9276,0.0,0.0,0.0,0.0,0.0,0.0,0.0,0.0,-5.0298,-5.0485,-5.0969,-5.2701,0.0,0.0,0.0,0.0,0.0,-5.6538,-5.6563,-5.6554,-5.6559,-5.6534,-5.6966,-5.8768,-5.9198,-5.9176,-5.9117,-5.9109,-5.8548,-5.6751,-5.6517,-5.6548,-5.6459,-5.6466,-5.6437,-5.6206,-5.6434,-5.678,-5.715,0.0,-5.7683,-5.7534,-5.7864,-5.7831,-5.7138,-5.7036,-5.6847,-5.6492,-5.5883,-5.5519,-5.5385,-5.4328,-5.3698,-5.3698,-5.3566,-5.3196,-5.257,-5.257,-5.2516,-5.2373,-5.2373,-5.2373,-5.2373,0.0,-5.2373,-5.2373,-5.1582,-5.1268,-5.1194,-5.0496,-5.0165,-5.0127,-5.0638,-5.1317,-5.1997,0.0,0.0,0.0,0.0,0.0,0.0,0.0,0.0,0.0,0.0,0.0,0.0,0.0,0.0,0.0,0.0,0.0,0.0,0.0,0.0,-4.4737,-4.4793,-4.4923,-4.5032,-4.5032,-4.514,-4.5247,-4.53,-4.5406,-4.5528,-4.5632,-4.6038,-4.6781,-4.7897,-4.8402,-4.8785,-4.9101,-4.9183,-4.923,-4.9276,0.0,0.0,0.0,0.0,0.0,0.0,0.0,0.0,0.0,0.0,-5.0914,-5.1653,-5.2981,0.0,0.0,0.0,0.0,0.0,-5.658,-5.6595,-5.6602,-5.6601,-5.6571,-5.7011,-5.8806,-5.8848,-5.8612,-5.9054,-5.8753,-5.7997,-5.6652,-5.6394,-5.6211,-5.5669,-5.5787,-5.5859,-5.5656,-5.5936,-5.6303,0.0,0.0,-5.667,-5.6258,-5.663,-5.6617,-5.6043,-5.6455,-5.642,-5.5901,-5.5578,-5.5087,-5.4328,-5.3698,-5.3196,-5.2886,-5.2886,-5.2694,-5.2373,-5.2373,-5.2142,-5.1745,-5.2214,-5.2142,-5.1745,0.0,-5.2142,-5.1672,-5.1268,-5.0783,-5.029,-4.9503,-4.929,-4.9527,-4.9986,-5.0532,-5.0951,0.0,0.0,0.0,0.0,0.0,0.0,0.0,0.0,0.0,0.0,0.0,0.0,0.0,0.0,0.0,0.0,0.0,0.0,0.0,0.0,-4.4831,-4.4831,-4.5086,-4.5177,-4.5177,-4.523,-4.53,-4.5423,-4.5581,-4.5632,-4.5718,-4.6519,-4.736,-4.8153,-4.8458,-4.8785,-4.915,-4.9244,-4.934,-4.9402,0.0,0.0,0.0,0.0,0.0,0.0,0.0,0.0,0.0,0.0,0.0,0.0,0.0,0.0,0.0,-5.6188,-5.6522,-5.6605,-5.6601,-5.6601,-5.6601,-5.6601,-5.6601,-5.6992,-5.8535,-5.8377,-5.8072,-5.8729,-5.829,-5.7492,-5.6541,-5.628,-5.5932,-5.5103,-5.5197,-5.5333,-5.5175,-5.5371,-5.5645,-5.6065,-5.5977,-5.5595,-5.4948,-5.5281,-5.5371,-5.4937,-5.5669,-5.5804,-5.518,-5.5161,-5.4641,-5.3449,-5.3264,-5.2956,-5.239,-5.2373,-5.2373,-5.2373,-5.2373,-5.2053,-5.1434,-5.2069,-5.1908,-5.1118,-5.1818,-5.1582,-5.0783,-5.0554,-5.0151,-4.9423,-4.8641,-4.8653,-4.9215,-4.9568,-4.9878,-5.0184,0.0,0.0,0.0,0.0,0.0,0.0,0.0,0.0,0.0,0.0,0.0,0.0,0.0,0.0,0.0,0.0,0.0,0.0,0.0,0.0,-4.4831,-4.4978,-4.5123,-4.5177,-4.5177,-4.53,-4.5476,-4.5581,-4.5581,-4.5736,-4.5972,-4.7053,-4.7614,-4.7802,-4.866,-4.9131,-4.9276,-4.9308,-4.9434,-4.9663,-4.9663,0.0,0.0,0.0,0.0,0.0,0.0,0.0,0.0,0.0,0.0,0.0,0.0,0.0,-5.547,-5.6333,-5.6585,-5.6601,-5.6601,-5.6601,-5.6601,-5.6601,-5.6601,-5.6836,-5.7773,-5.7957,-5.7872,-5.7825,-5.7747,-5.7418,-5.6485,-5.6247,-5.5985,-5.5283,-5.5097,-5.479,-5.4037,0.0,-5.3963,-5.3999,-5.4374,-5.4485,-5.4027,-5.4381,-5.4543,-5.4099,-5.4848,-5.4987,-5.4314,-5.4365,-5.4136,-5.3449,-5.2834,-5.2445,-5.2373,-5.2373,-5.2373,-5.2373,-5.2373,-5.2373,-5.2302,-5.2373,-5.1908,-5.1118,-5.1194,-5.0707,-4.9821,-4.9116,-4.8723,-4.8573,-4.7694,-4.7683,-4.806,-4.8713,-4.9105,-4.9253,0.0,0.0,0.0,0.0,0.0,0.0,0.0,0.0,0.0,0.0,0.0,0.0,0.0,0.0,0.0,0.0,0.0,0.0,0.0,-4.4831,-4.4978,-4.514,-4.5247,-4.53,-4.53,-4.5371,-4.5476,-4.5632,-4.5787,-4.6105,-4.6554,-4.7008,-4.7554,-4.8157,-4.8604,-4.899,-4.9289,-4.9464,-4.9604,-4.9692,-4.9788,-4.9898,0.0,0.0,0.0,0.0,0.0,0.0,0.0,0.0,-5.2363,-5.3428,-5.4429,-5.5372,-5.6165,-5.6495,-5.66,-5.6601,-5.6601,-5.6572,-5.6552,-5.6595,-5.695,-5.7371,-5.7702,-5.7414,-5.7216,-5.7631,-5.7261,-5.6764,-5.6333,-5.6073,-5.5768,-5.5163,-5.4962,-5.4621,-5.3889,-5.3813,-5.3813,-5.3813,-5.3576,-5.3376,-5.3243,-5.3412,-5.3501,-5.3314,-5.3673,-5.3774,-5.3584,-5.3134,-5.2892,-5.2817,-5.2445,-5.223,-5.2373,-5.2373,-5.2373,-5.2373,-5.2373,-5.1818,-5.0767,-5.1343,-5.0876,-4.9599,-5.0057,-4.9821,-4.9035,-4.8723,-4.8256,-4.7779,-4.7467,-4.7523,-4.7926,-4.8014,-4.8492,-4.9121,0.0,0.0,0.0,0.0,0.0,0.0,0.0,0.0,0.0,0.0,0.0,0.0,0.0,0.0,0.0,0.0,0.0,0.0,-4.4831,-4.4978,-4.5069,-4.5194,-4.5318,-4.5423,-4.5476,-4.5476,-4.5528,-4.5667,-4.6105,-4.6507,-4.6936,-4.7281,-4.7824,-4.8477,-4.8709,-4.9038,-4.9434,-4.9634,-4.975,-4.9816,-4.9925,-5.0038,0.0,0.0,0.0,0.0,0.0,0.0,0.0,0.0,-5.2869,-5.3969,-5.4922,-5.5868,-5.6607,-5.6601,-5.6588,-5.6567,-5.6567,-5.6503,-5.6444,-5.6491,-5.6879,-5.7239,-5.7242,-5.7075,-5.7003,-5.7192,-5.6759,-5.6319,-5.6168,-5.6029,-5.5711,0.0,-5.4895,-5.456,-5.3889,-5.3813,-5.3813,-5.3813,-5.3235,-5.2806,-5.2806,-5.26,-5.2511,-5.2511,-5.2624,-5.2625,-5.2494,-5.2,-5.1866,-5.208,-5.19,-5.2015,-5.2373,-5.2373,-5.2373,-5.2373,-5.2373,-5.1655,-5.0213,-5.0538,-4.9915,-4.8641,-4.9197,-4.8953,-4.8172,-4.8172,-4.7864,-4.7309,-4.7309,-4.7389,-4.7526,-4.7479,-4.7838,-4.8457,0.0,0.0,0.0,0.0,0.0,0.0,0.0,0.0,0.0,0.0,0.0,0.0,0.0,0.0,0.0,0.0,0.0,0.0,-4.4978,-4.514,-4.5177,-4.5177,-4.5318,-4.5476,-4.5581,-4.5615,-4.5667,-4.577,-4.6554,-4.6918,-4.7017,-4.7962,-4.8477,-4.862,-4.909,-4.9464,-4.9692,-4.9692,-4.9843,-5.0108,-5.0108,-5.0182,-5.0302,0.0,0.0,0.0,0.0,0.0,0.0,0.0,-5.2811,-5.3955,-5.4833,-5.5799,-5.6601,-5.6601,-5.6558,-5.6493,-5.6495,-5.6402,-5.6294,-5.6311,-5.63,-5.6294,-5.6233,-5.6977,-5.7383,-5.6399,-5.6238,-5.6232,-5.6036,-5.6117,-5.5921,-5.5131,-5.4895,-5.456,-5.3889,-5.3813,-5.3813,-5.3813,-5.3235,-5.2806,-5.2806,-5.2114,-5.169,-5.169,-5.1812,-5.1595,-5.0959,-5.1089,-5.1226,-5.1317,-5.128,-5.1628,-5.2373,-5.2373,-5.2373,-5.2373,-5.2373,-5.1908,-5.1043,-5.0213,-4.9343,-4.8573,-4.8573,-4.8103,-4.7309,-4.7309,-4.7309,-4.7309,-4.7309,-4.7033,-4.6668,-4.7302,-4.719,-4.7013,0.0,0.0,0.0,0.0,0.0,0.0,0.0,0.0,0.0,0.0,0.0,0.0,0.0,0.0,0.0,0.0,0.0,0.0,-4.514,-4.5177,-4.5247,-4.5318,-4.5371,-4.5476,-4.5581,-4.577,-4.5871,-4.5922,-4.6429,-4.6981,-4.7494,-4.7838,-4.8384,-4.909,-4.9169,-4.9396,-4.9721,-4.9898,-5.0031,-5.0108,-5.0207,-5.0278,-5.0371,0.0,0.0,0.0,0.0,0.0,0.0,0.0,0.0,0.0,-5.5736,-5.6287,-5.6601,-5.6601,-5.6591,-5.6569,-5.6567,-5.644,-5.6328,-5.6424,-5.6796,-5.6977,-5.6353,-5.6505,-5.6678,-5.6286,-5.6134,-5.6072,-5.6004,-5.5915,-5.5653,-5.5096,-5.4895,-5.456,-5.3889,-5.3813,-5.3717,-5.3481,-5.3048,-5.2698,-5.2408,-5.1951,-5.169,-5.169,-5.0906,-5.0564,-5.0865,-5.0045,-5.0091,-5.1231,-5.114,-5.1487,-5.2373,-5.2373,-5.2373,-5.2373,-5.1745,-5.1027,-5.0213,-4.99,-4.9035,-4.7709,-4.7709,-4.7538,-4.7309,-4.7309,-4.7309,-4.7309,-4.7309,-4.7033,-4.6624,-4.6815,-4.681,-4.6882,0.0,0.0,0.0,0.0,0.0,0.0,0.0,0.0,0.0,0.0,-4.4737,0.0,0.0,0.0,0.0,0.0,0.0,0.0,0.0,-4.53,-4.5353,-4.5476,-4.5476,-4.5581,-4.577,-4.5972,-4.6122,-4.6253,-4.6684,-4.7178,-4.7738,-4.8017,-4.844,-4.9075,-4.909,-4.922,-4.9457,-4.9778,-4.994,-5.0044,-5.0236,-5.0581,-5.0974,0.0,0.0,0.0,0.0,0.0,0.0,0.0,0.0,0.0,-5.6047,-5.6387,-5.6495,-5.6538,-5.6504,-5.6445,-5.6442,-5.6304,-5.6204,-5.6278,-5.6614,-5.6757,-5.6244,-5.6188,-5.6214,-5.6096,-5.6059,-5.5982,-5.5903,-5.5744,-5.547,-5.5004,-5.4731,-5.4397,-5.387,-5.3813,-5.3678,-5.3359,-5.3023,-5.2654,-5.225,-5.1902,-5.169,-5.169,-5.0515,-5.0011,-5.0418,-4.9214,-4.9042,-5.0301,-5.0562,-5.1074,-5.1855,-5.2224,-5.2373,-5.2373,-5.1908,-5.1177,-5.029,-4.9978,-4.9262,-4.824,-4.7934,-4.7624,-4.7309,-4.7309,-4.7309,-4.7309,-4.7207,-4.6946,-4.6594,-4.6491,-4.6473,-4.649,0.0,0.0,0.0,0.0,0.0,0.0,0.0,0.0,0.0,0.0,-4.4831,-4.4886,0.0,0.0,0.0,0.0,0.0,0.0,0.0,0.0,-4.5476,-4.5632,-4.5632,-4.5718,-4.5972,-4.6172,-4.6368,-4.6637,-4.7035,-4.7475,-4.7834,-4.8326,-4.8569,-4.8713,-4.882,-4.8974,-4.9137,-4.945,-4.975,-5.0024,-5.0307,-5.1025,-5.188,-5.1886,0.0,0.0,0.0,0.0,0.0,0.0,0.0,0.0,-5.5942,-5.6252,-5.6343,-5.6466,-5.6377,-5.6219,-5.6203,-5.611,-5.6016,-5.6001,-5.6005,-5.5979,-5.5995,-5.6,-5.5962,-5.5924,-5.5943,-5.5921,-5.5744,-5.5585,-5.5331,-5.4874,-5.4528,-5.4177,-5.3832,-5.3813,-5.3678,-5.3318,-5.298,-5.2608,-5.2203,-5.1853,-5.169,-5.169,-5.0515,-4.9804,-4.9746,-4.8623,-4.8266,-4.8775,-4.9689,-5.04,-5.102,-5.1855,-5.2324,-5.2373,-5.2373,-5.198,-5.1194,-5.0306,-4.99,-4.9726,-4.9035,-4.8256,-4.7538,-4.7538,-4.7467,-4.7381,-4.7091,-4.6829,-4.6506,-4.6314,-4.6046,-4.5967,0.0,0.0,0.0,0.0,0.0,0.0,0.0,0.0,0.0,0.0,0.0,0.0,0.0,0.0,0.0,0.0,0.0,0.0,0.0,0.0,-4.5632,-4.5718,-4.5871,-4.5922,-4.5972,-4.635,-4.6655,-4.6888,-4.7025,-4.732,-4.7793,-4.797,-4.8267,-4.8694,-4.8748,-4.8922,-4.9289,-4.9439,-4.9946,-5.06,-5.0676,-5.1391,-5.2412,-5.2436,-5.2759,0.0,0.0,0.0,0.0,0.0,0.0,0.0,-5.6178,-5.6359,-5.6468,-5.6492,-5.6478,-5.6412,-5.6317,-5.6217,-5.6133,-5.6093,-5.5996,-5.5919,-5.5904,-5.5885,-5.5845,-5.5901,-5.5862,-5.5825,-5.5724,-5.5499,-5.5222,-5.4855,-5.4528,-5.4177,-5.3832,-5.3813,-5.36,-5.298,-5.285,-5.2536,-5.1871,-5.174,-5.169,-5.169,-5.0515,-4.9746,-4.9646,-4.8623,-4.8266,-4.8775,-4.9125,-4.9887,-5.0982,-5.1359,-5.1652,0.0,-5.223,-5.223,-5.1851,-5.1118,-5.0461,-4.9805,-4.9662,-4.9423,-4.9262,-4.9262,-4.8774,-4.8042,-4.7943,-4.7204,-4.6314,-4.621,-4.6046,-4.5909,0.0,0.0,0.0,0.0,0.0,0.0,0.0,0.0,0.0,0.0,0.0,0.0,0.0,0.0,0.0,0.0,0.0,0.0,0.0,0.0,-4.5667,-4.5871,-4.6023,-4.6073,-4.6073,-4.6447,-4.6731,-4.6998,-4.7116,-4.7363,-4.7847,-4.7907,-4.813,-4.8439,-4.8514,-4.866,-4.8962,-4.9566,-5.0121,-5.066,-5.1247,-5.2144,-5.3133,-5.327,-5.3752,-5.4432,-5.5017,0.0,0.0,0.0,0.0,0.0,0.0,0.0,-5.5654,-5.5314,-5.5454,-5.5723,-5.5661,-5.5854,-5.6102,-5.6017,-5.5962,-5.5885,-5.5826,-5.5785,-5.5765,-5.5801,-5.5763,-5.5745,-5.5703,-5.5345,-5.4981,-5.4836,-5.4364,-5.4,-5.3832,-5.3639,-5.3381,-5.285,-5.2608,-5.2286,-5.174,-5.169,-5.169,-5.169,-5.0822,-5.0124,-4.9705,-4.89,-4.8377,-4.8264,-4.8694,-4.942,-5.0314,-5.0801,-5.1273,-5.1778,-5.2086,-5.2247,-5.2247,-5.1908,-5.1268,-5.0384,-5.0306,-5.0057,-4.9647,-4.9583,-4.8938,-4.8042,-4.7958,-4.7219,-4.621,-4.6135,-4.597,-4.588,0.0,0.0,0.0,0.0,0.0,0.0,0.0,0.0,0.0,0.0,0.0,0.0,0.0,0.0,0.0,0.0,0.0,0.0,0.0,0.0,0.0,-4.6023,-4.6122,-4.6172,-4.6172,-4.6512,-4.6795,-4.6998,-4.7276,-4.7597,-4.7943,-4.797,-4.809,-4.8187,-4.8286,-4.8493,-4.879,-4.9765,-5.0384,-5.0871,-5.1876,-5.2915,-5.3831,-5.4089,-5.4733,-5.5551,-5.5826,-5.5961,-5.5998,-5.5995,0.0,0.0,0.0,0.0,-5.456,-5.3972,-5.4219,-5.4684,-5.469,-5.5229,-5.5802,-5.588,-5.5885,-5.5846,-5.5724,-5.5703,-5.5703,-5.5703,-5.5703,-5.5703,-5.5703,-5.5198,-5.4806,-5.4806,-5.4246,-5.3813,-5.3813,-5.3521,-5.3193,-5.285,-5.2454,-5.2078,-5.174,-5.169,-5.169,-5.169,-5.114,-5.0495,-4.9821,-4.9171,-4.848,-4.7704,-4.8297,-4.882,-4.9403,-5.0124,-5.0877,-5.1525,-5.1875,-5.2175,-5.2302,-5.2302,-5.198,-5.1285,-5.1043,-5.0554,-4.99,-4.9678,-4.9116,-4.8225,-4.7888,-4.7219,-4.6284,-4.606,-4.588,-4.588,0.0,0.0,0.0,0.0,0.0,0.0,0.0,0.0,0.0,0.0,-4.5159,-4.5615,0.0,0.0,0.0,0.0,0.0,0.0,0.0,0.0,0.0,-4.6172,-4.6172,-4.6172,-4.6172,-4.6702,-4.6934,-4.6998,-4.7529,-4.7884,-4.801,-4.7992,-4.809,-4.8187,-4.8381,-4.8919,-4.9713,-4.9954,-5.0916,-5.2344,-5.2528,-5.3312,-5.4307,-5.4472,-5.4969,-5.5596,-5.566,-5.5808,-5.5995,-5.6012,-5.5548,0.0,0.0,0.0,-5.3781,-5.3795,-5.383,-5.3857,-5.3866,-5.4355,-5.5034,-5.5727,-5.5865,-5.5787,-5.5724,-5.5703,-5.5703,-5.5703,-5.5703,-5.5703,-5.5703,-5.5198,-5.4806,-5.4806,-5.4246,-5.3813,-5.3813,-5.3521,-5.3193,-5.285,-5.2454,-5.2078,-5.174,-5.169,-5.169,-5.169,-5.114,-5.0439,-4.9646,-4.8989,-4.8336,-4.7704,-4.7686,-4.8013,-4.8649,-4.937,-4.9965,-5.0334,-5.1337,-5.1851,-5.1851,-5.2086,-5.2102,-5.1941,-5.1778,-5.1614,-5.145,-5.145,-5.08,-4.9726,-4.8922,-4.8027,-4.6944,-4.621,-4.588,-4.588,0.0,0.0,0.0,0.0,0.0,0.0,0.0,0.0,0.0,0.0,0.0,-4.577,0.0,0.0,0.0,0.0,0.0,0.0,0.0,0.0,0.0,-4.6172,-4.6172,-4.627,-4.6398,-4.6795,-4.707,-4.7143,-4.7675,-4.7925,-4.7992,-4.8111,-4.8247,-4.8381,-4.8475,-4.903,-4.9991,-5.0472,-5.1454,-5.2679,-5.3144,-5.3664,-5.4246,-5.443,-5.4727,-5.5145,-5.5446,-5.5647,-5.5808,-5.5958,-5.547,-5.4716,-5.4252,0.0,0.0,0.0,-5.264,-5.3103,-5.3491,-5.3806,-5.4095,-5.4379,-5.4419,-5.438,-5.432,-5.4299,-5.4299,-5.4299,-5.4299,-5.4545,-5.5312,-5.5091,-5.4746,-5.456,-5.4106,-5.3813,-5.3813,-5.3341,-5.298,-5.2806,-5.2286,-5.1853,-5.169,-5.169,-5.169,-5.169,-5.114,-5.0495,-4.9763,-4.911,-4.848,-4.7919,-4.7721,-4.7933,-4.8486,-4.9099,-4.9886,-5.0879,-5.141,-5.1721,-5.1778,-5.1794,-5.1811,-5.1941,-5.1721,-5.1647,-5.1647,-5.1483,-5.0908,-4.9931,-4.9004,-4.8012,-4.7118,-4.621,-4.588,-4.588,0.0,0.0,0.0,0.0,0.0,0.0,0.0,0.0,0.0,0.0,0.0,0.0,0.0,0.0,0.0,0.0,0.0,0.0,0.0,0.0,0.0,-4.6172,-4.627,-4.6416,-4.659,-4.6916,-4.716,-4.7363,-4.7741,-4.7947,-4.805,-4.8247,-4.8401,-4.8532,-4.879,-4.94,-5.0343,-5.1232,-5.2159,-5.3069,-5.3665,-5.3981,-5.4127,-5.4281,-5.4495,-5.4758,-5.5167,-5.5455,-5.5628,-5.5827,-5.5262,-5.4368,-5.3691,-5.2801,0.0,0.0,0.0,-5.2361,-5.3077,-5.3262,-5.3256,-5.3314,-5.3358,-5.332,-5.3223,-5.3203,-5.3203,0.0,-5.3161,-5.3398,-5.4358,-5.4496,-5.4364,-5.4063,-5.3887,-5.3756,-5.3678,-5.3193,-5.2761,-5.2654,-5.2114,-5.169,-5.169,-5.169,-5.169,-5.169,-5.114,-5.0495,-4.9821,-4.9171,-4.8543,-4.8001,-4.7787,-4.7834,-4.8292,-4.8931,-4.9896,-5.1148,-5.1417,-5.1573,-5.1631,-5.1573,-5.1573,-5.1631,-5.1499,-5.1424,-5.1424,-5.1258,-5.0848,-5.012,-4.8922,-4.8095,-4.7362,-4.6299,-4.588,-4.588,0.0,0.0,0.0,0.0,0.0,0.0,0.0,0.0,0.0,0.0,0.0,0.0,-4.6172,-4.6172,-4.6172,-4.6172,-4.6172,0.0,0.0,0.0,0.0,-4.6172,-4.6447,0.0,-4.659,-4.7035,-4.7363,-4.7511,-4.7829,-4.805,-4.8187,-4.8399,-4.8513,-4.8624,-4.9528,-5.038,-5.1213,-5.2214,-5.3125,-5.3926,-5.4036,-5.4091,-5.4127,-5.4235,-5.4472,-5.4716,-5.4806,-5.516,-5.5607,-5.5628,-5.4728,-5.3556,-5.3517,-5.2388,-5.1087,0.0,0.0,0.0,-5.2439,-5.2595,-5.2707,-5.3319,-5.3488,-5.3442,-5.3244,-5.3203,-5.3203,-5.3203,-5.2992,-5.2736,-5.2484,-5.3063,-5.3475,-5.3217,-5.3513,-5.3678,-5.3381,-5.3023,-5.2654,-5.2297,-5.1902,-5.169,-5.169,-5.169,-5.169,-5.169,-5.114,-5.0495,-4.9821,-4.905,-4.8416,-4.8001,-4.7671,-4.7554,-4.7754,-4.8772,-4.9563,-5.0163,-5.1099,-5.1424,-5.1258,-5.1424,-5.1424,-5.1258,-5.1183,-5.1183,-5.1183,-5.1183,-5.1183,-5.094,-4.9166,-4.8512,-4.8263,-4.655,-4.588,-4.588,0.0,0.0,0.0,0.0,0.0,0.0,0.0,0.0,0.0,0.0,0.0,0.0,0.0,-4.6172,-4.6172,-4.6172,-4.6172,0.0,0.0,0.0,0.0,-4.6702,-4.6795,-4.6934,-4.7035,-4.7214,-4.745,-4.7759,-4.7929,-4.8072,-4.8286,-4.8458,-4.8901,-4.951,-4.9861,-5.0508,-5.147,-5.2325,-5.3272,-5.4183,-5.4146,-5.4146,-5.4235,-5.42,-5.4287,-5.4505,-5.4847,-5.5026,-5.516,-5.567,-5.4689,-5.3262,-5.3459,-5.2345,-5.1037,-5.1156,-5.1281,-5.1444,-5.1642,-5.1681,-5.1705,-5.1863,-5.1848,-5.1796,-5.1732,-5.1664,-5.1527,-5.1322,-5.1213,-5.1002,-5.0514,-5.1556,-5.2352,-5.2074,-5.2176,-5.2325,-5.2512,-5.2218,-5.1991,-5.2177,-5.1902,-5.169,-5.169,-5.169,-5.1521,-5.114,-5.0532,-4.9879,-4.9231,-4.8606,-4.8163,-4.8001,-4.7869,-4.8018,-4.8413,-4.8649,-4.936,-5.048,-5.0685,-5.0969,-5.1424,-5.1333,-5.1258,-5.1183,-5.1183,-5.1183,-5.1183,-5.1183,-5.1183,-5.1016,-4.9181,-4.8496,-4.8263,-4.6535,-4.588,-4.588,0.0,0.0,0.0,0.0,0.0,0.0,0.0,0.0,0.0,-4.5372,0.0,0.0,0.0,0.0,-4.6221,-4.6319,-4.6319,-4.6464,-4.6749,-4.6731,-4.6824,-4.6998,-4.707,-4.7143,-4.732,-4.7407,-4.7639,-4.7925,-4.801,-4.8169,-4.8363,-4.8532,-4.9103,-5.0009,-5.0341,-5.1025,-5.1951,-5.2862,-5.366,-5.4308,-5.4284,-5.4303,-5.4289,-5.4284,-5.4303,-5.434,-5.4817,-5.4971,-5.5026,-5.5649,-5.4882,-5.3648,-5.3536,-5.2366,-5.1097,-5.1193,-5.1316,-5.1385,-5.1288,-5.1278,-5.1218,-5.1042,-5.0991,-5.0965,-5.0858,-5.0793,-5.0664,-5.0294,-5.0135,-4.9936,-4.9488,-5.022,-5.0931,-5.0988,-5.1139,-5.1285,-5.1503,-5.1207,-5.1149,-5.1574,-5.141,-5.1405,-5.1672,-5.169,-5.1521,-5.114,-5.0293,0.0,-4.9231,-4.845,-4.8001,-4.8001,-4.8001,-4.8167,-4.8429,-4.8524,-4.9194,-5.032,-5.0438,-5.0872,-5.1515,-5.135,-5.1258,-5.1183,-5.1183,-5.1183,-5.1183,-5.1183,-5.1183,-5.1016,-4.9181,-4.8496,-4.8263,-4.6535,-4.588,-4.588,0.0,0.0,0.0,0.0,0.0,0.0,0.0,0.0,-4.4614,-4.5424,0.0,0.0,0.0,0.0,0.0,-4.659,-4.659,-4.6731,-4.698,-4.6998,-4.698,-4.7025,-4.7187,-4.7302,-4.7302,-4.7717,-4.7925,-4.7992,-4.8148,-4.8304,-4.8494,-4.8569,-4.9122,-5.0101,-5.1061,-5.1951,-5.2826,-5.3863,-5.4308,-5.4324,-5.4597,-5.4552,-5.4359,-5.4578,-5.4552,-5.4375,-5.4704,-5.4971,-5.5243,-5.55,-5.5229,-5.4619,-5.3723,-5.2421,-5.1215,-5.1279,-5.1359,-5.1406,0.0,0.0,0.0,-5.1063,-5.1094,-5.1103,-5.0773,0.0,-5.0769,-5.0298,-4.9968,-4.9721,-4.9427,-4.9127,-4.9187,-5.0023,-5.0546,-5.0717,-5.0428,-5.0043,-4.9991,-5.0419,-5.0495,-5.0816,-5.1583,-5.1672,-5.169,-5.169,-5.0515,-4.9804,-4.9746,-4.8623,-4.8001,-4.8001,-4.8001,-4.7919,-4.7704,-4.8413,-4.9069,-4.9567,-5.0304,-5.0968,-5.1483,-5.1499,-5.1424,-5.1183,-5.1183,-5.1183,-5.1183,-5.1183,-5.1183,-5.1016,-4.9181,-4.8496,-4.8263,-4.6535,-4.588,-4.588,0.0,0.0,0.0,0.0,0.0,-4.3396,-4.3756,-4.408,-4.4406,0.0,0.0,0.0,-4.5735,-4.6204,-4.6607,-4.6888,-4.6888,-4.6962,-4.7187,-4.7232,-4.7276,-4.7486,-4.7572,-4.7615,-4.7615,-4.7801,-4.7925,-4.7992,-4.819,-4.8401,-4.8569,-4.8697,-4.9581,-5.1098,-5.1481,-5.2447,-5.3882,-5.4161,-5.4324,-5.4375,-5.4439,-5.4552,-5.4692,-5.4746,-5.4847,-5.4998,-5.5287,-5.5293,-5.5243,-5.55,-5.4965,-5.3939,-5.2723,-5.1819,-5.1211,-5.1284,-5.1359,-5.1406,-5.1405,0.0,0.0,0.0,0.0,0.0,-5.0887,0.0,-5.0606,-5.0038,-4.9838,-4.9637,-4.9141,-4.8959,-4.8983,-4.9224,-4.9159,-4.9171,-4.9419,-4.9209,-4.9181,-4.9597,-5.0156,-5.0602,-5.0816,-5.1351,-5.1521,0.0,-5.0293,-4.9629,-4.9171,-4.8386,-4.8001,-4.8001,-4.8001,-4.8001,-4.7935,-4.8134,-4.853,-4.9273,-4.9862,-5.0446,-5.1185,-5.1418,-5.1499,-5.1424,-5.1258,-5.1183,-5.1183,-5.1183,-5.1183,-5.1016,-4.9181,-4.8496,-4.8263,-4.6535,-4.588,-4.588,0.0,0.0,0.0,0.0,0.0,-4.3628,-4.3628,-4.4023,-4.435,0.0,0.0,0.0,-4.6137,-4.6525,-4.687,-4.7098,-4.7116,-4.7232,-4.745,-4.7468,-4.7554,-4.7699,-4.7717,-4.7717,-4.7759,-4.7884,-4.7988,-4.809,-4.8286,-4.8458,-4.8587,-4.8768,-4.9782,-5.1486,-5.1678,-5.2701,-5.4308,-5.4324,-5.4375,-5.4424,-5.4642,-5.4746,-5.4836,-5.5053,-5.5141,-5.5243,-5.55,-5.5431,-5.5243,-5.55,-5.469,-5.333,-5.2281,-5.1547,-5.1133,-5.1249,-5.133,-5.1366,-5.1389,-5.1362,-5.1291,-5.115,0.0,0.0,-5.0659,-5.0587,-5.0406,0.0,-4.9627,-4.948,-4.8993,-4.8909,-4.8855,-4.8695,-4.8421,-4.8318,-4.8575,-4.8265,-4.8191,-4.8793,-4.9264,-4.9781,-5.0441,-5.0923,-5.1165,-5.1175,-5.0349,-4.9411,-4.856,-4.8163,-4.8001,-4.8001,-4.8001,-4.8001,-4.8001,-4.8001,-4.8382,-4.911,-4.9406,-5.008,-5.1015,-5.1228,-5.1443,-5.1647,-5.1408,-5.1092,-5.0739,-5.0679,-5.0695,-5.0525,-4.9085,-4.8263,-4.7773,-4.6373,-4.588,-4.588,0.0,0.0,-4.1773,-4.2518,-4.3181,-4.3628,-4.373,-4.4064,-4.4446,0.0,-4.5494,-4.6217,-4.6934,-4.7025,-4.7116,-4.732,-4.7345,-4.7468,-4.7657,-4.7717,-4.7717,-4.7717,-4.7717,-4.7759,-4.7902,-4.797,-4.809,-4.8187,-4.8419,-4.855,-4.8587,-4.882,-4.9852,-5.1521,-5.1712,-5.2716,-5.4308,-5.4375,-5.4424,-5.4472,-5.4971,-5.5026,-5.4905,-5.5408,-5.5477,-5.5317,-5.5544,-5.55,-5.5298,-5.5385,-5.4331,-5.289,-5.2165,-5.1515,-5.105,-5.1226,-5.1293,-5.131,-5.1377,-5.1302,-5.1159,-5.1031,-5.0996,0.0,-5.0366,-5.0349,-5.0248,0.0,-4.9408,-4.9302,-4.8925,-4.8874,-4.8785,-4.8458,-4.8172,-4.7951,-4.7951,-4.7407,-4.7265,-4.7961,-4.8122,-4.8728,-5.0102,-5.0405,-5.0798,-5.1512,-5.0462,-4.9291,-4.8049,-4.8001,-4.8001,-4.8001,-4.8001,-4.8001,-4.8001,-4.8001,-4.8332,-4.8978,-4.9077,-4.9771,-5.0883,-5.0966,-5.1322,-5.1794,-5.1499,-5.0908,-5.0057,-4.9852,-4.9789,-4.9614,-4.8677,-4.7843,-4.7118,-4.621,-4.588,-4.588,-4.1077,-4.1806,-4.2535,-4.328,-4.3529,-4.3772,-4.4322,-4.449,-4.4601,-4.4855,-4.532,-4.6017,-4.7125,-4.7232,-4.732,-4.7615,-4.7615,-4.7657,-4.7717,-4.7717,-4.7759,-4.7861,-4.7861,-4.7884,-4.797,-4.809,-4.8187,-4.8187,-4.8476,-4.8605,-4.8587,-4.882,-4.9852,-5.1486,-5.1644,-5.2666,-5.4308,-5.4375,-5.4519,-5.4735,-5.4836,-5.4971,-5.5141,-5.5477,-5.569,-5.5846,-5.5902,-5.5884,-5.5673,-5.4664,-5.3736,-5.2828,-5.1888,-5.1316,-5.1023,-5.1178,-5.1263,-5.1307,-5.1387,-5.1293,-5.1159,-5.1031,-5.0959,0.0,-5.0664,-5.0625,-5.0445,0.0,-4.9561,-4.9375,-4.8783,-4.866,-4.8623,-4.8587,-4.7959,-4.7567,-4.7578,-4.7249,-4.7051,-4.7212,-4.78,-4.83,-4.8603,-4.9763,-5.0584,-5.0727,-5.0148,-4.9291,-4.8049,-4.8001,-4.8001,-4.8001,-4.8001,-4.8001,-4.8001,-4.8001,-4.8084,-4.8216,-4.8829,-4.9574,-5.0367,-5.0806,-5.1394,-5.2013,-5.1075,-5.0493,-5.0057,-4.9358,-4.8953,-4.8677,-4.7773,-4.7362,-4.7118,-4.621,-4.588,-4.579,-4.1943,-4.2327,-4.275,-4.363,-4.3763,-4.3864,-4.4219,-4.4712,-4.5074,-4.5214,-4.5665,-4.6262,-4.7017,-4.6863,-4.6753,-4.6908,-4.7169,-4.732,-4.7407,-4.7657,-4.7842,-4.7947,-4.7947,-4.7988,-4.809,-4.8148,-4.8226,-4.8343,-4.8532,-4.8623,-4.8697,-4.8927,-4.9765,-5.1124,-5.1559,-5.2559,-5.3908,-5.4255,-5.4472,-5.4629,-5.4905,-5.5141,-5.5431,-5.571,-5.5884,-5.6012,-5.6012,-5.5902,-5.5537,-5.3872,-5.3135,-5.2679,-5.1387,-5.0932,-5.0913,-5.1123,-5.1252,-5.1304,-5.1386,-5.124,-5.1074,-5.102,-5.0908,0.0,0.0,-5.0272,-4.9999,-4.9464,-4.9221,-4.9015,-4.8641,-4.8421,-4.8212,-4.8038,-4.747,-4.7115,-4.7196,-4.6852,-4.659,-4.659,-4.6944,-4.7333,-4.774,-4.882,-4.9607,-4.992,-4.9842,-4.9291,-4.8049,-4.8001,-4.8001,-4.8001,-4.8001,-4.8001,-4.8001,-4.8001,-4.8001,-4.8001,-4.8382,-4.8945,-4.969,-4.9883,-5.0373,-5.1002,-5.0333,-4.9662,-4.9069,-4.8625,-4.8057,-4.7548,-4.7276,-4.6959,-4.6447,-4.5642,-4.5293,-4.5187,-4.2605,-4.2824,-4.3049,-4.3781,-4.3956,-4.3998,-4.4097,-4.4855,-4.5459,-4.5614,-4.6017,-4.6406,-4.6707,-4.6358,-4.6049,-4.6049,-4.6454,-4.6799,-4.7044,-4.7493,-4.7824,-4.8032,-4.8032,-4.809,-4.8226,-4.8226,-4.8304,-4.8513,-4.8569,-4.8678,-4.8787,-4.898,-4.9627,-5.0616,-5.1298,-5.2258,-5.3428,-5.3978,-5.4355,-5.4597,-5.5026,-5.5293,-5.5477,-5.5808,-5.5921,-5.5921,-5.6012,-5.5768,-5.5186,-5.3503,-5.2805,-5.2452,-5.1162,-5.0758,-5.0813,-5.1113,-5.1252,-5.1304,-5.1386,-5.123,-5.1031,-5.1008,-5.0863,-5.0625,0.0,0.0,0.0,-4.9164,0.0,-4.8605,-4.8458,0.0,0.0,0.0,0.0,0.0,0.0,-4.6257,0.0,-4.6315,-4.6284,-4.6449,-4.7099,-4.7994,-4.8694,-4.9154,-4.9519,-4.9188,-4.8049,-4.8001,-4.8001,-4.8001,-4.8001,-4.8001,-4.8001,-4.8001,-4.7919,-4.7787,-4.7787,-4.81,-4.8688,-4.8567,-4.899,-4.9753,-4.93,-4.8798,-4.8179,-4.7804,-4.7249,-4.6594,-4.6974,-4.6535,-4.5685,-4.4989,-4.4684,-4.442,-4.2806,-4.3413,-4.3939,-4.4039,-4.4114,-4.431,-4.4855,-4.5054,-4.5355,-4.595,-4.5699,-4.5597,-4.6165,-4.6,-4.59,-4.59,-4.595,-4.6244,-4.6791,-4.7089,-4.7475,-4.8148,-4.8187,-4.8208,-4.8267,-4.8267,-4.8363,-4.8513,-4.8569,-4.8678,-4.8787,-4.8874,-4.9371,-5.0203,-5.0704,-5.1675,-5.3016,-5.3428,-5.4192,-5.5115,-5.5167,-5.508,-5.4962,-5.5455,-5.5649,-5.567,-5.5975,-5.5565,-5.4801,-5.4278,-5.3242,-5.2124,-5.1761,-5.1333,-5.1009,-5.1152,-5.1252,-5.1304,-5.1386,-5.1293,-5.115,-5.1031,-5.0932,-5.0752,-5.0278,0.0,-4.9872,-4.9227,0.0,-4.862,-4.786,0.0,0.0,0.0,0.0,0.0,-4.5299,-4.5351,-4.5837,-4.6724,-4.6459,-4.6221,0.0,-4.7661,-4.8485,-4.8436,-4.9026,-4.8995,-4.8066,-4.8001,-4.8001,-4.8001,-4.8001,-4.8001,-4.8001,-4.8001,-4.7638,-4.6965,-4.6965,-4.6991,-4.705,-4.7056,-4.7712,-4.8855,-4.8166,-4.7989,-4.8111,-4.7321,-4.6844,-4.6594,-4.6668,-4.6016,-4.5173,-4.5067,-4.4527,-4.3586,-4.3742,-4.3879,-4.4097,-4.4196,-4.4196,-4.4293,-4.4597,-4.4964,-4.5407,-4.6,-4.5648,-4.5407,-4.5614,-4.532,-4.5159,-4.5159,-4.5372,-4.5699,-4.6014,-4.6746,-4.7317,-4.7733,-4.8053,-4.8286,-4.8306,-4.8363,-4.8476,-4.855,-4.866,-4.8768,-4.8839,-4.8962,-4.9299,-4.9776,-5.0538,-5.129,-5.2076,-5.308,-5.3784,-5.4258,-5.478,-5.4905,-5.4895,-5.5585,-5.5827,-5.5788,-5.5468,-5.5114,-5.4617,-5.3472,-5.2679,-5.2053,-5.1518,-5.118,-5.1042,-5.1152,-5.1252,-5.1304,-5.1386,-5.1294,-5.1161,-5.1033,-5.092,-5.0709,-5.0195,-4.9924,-4.9589,-4.9034,0.0,0.0,0.0,0.0,0.0,0.0,-4.586,0.0,0.0,0.0,-4.5563,0.0,0.0,0.0,-4.6413,0.0,0.0,-4.7988,-4.8209,-4.8231,-4.8033,-4.8001,-4.8001,-4.8001,-4.8001,-4.8001,-4.8001,-4.7555,-4.7101,-4.6811,-4.6394,-4.6128,-4.6155,-4.6103,-4.6593,-4.7434,-4.6997,-4.7144,-4.7578,-4.6609,-4.6166,-4.6091,-4.5537,-4.5173,-4.4975,-4.3923,-4.3286,-4.2833,-4.444,-4.4327,-4.427,-4.4384,-4.4367,-4.4367,-4.4367,-4.478,-4.5232,-4.5631,-4.532,-4.5125,-4.5125,-4.4742,-4.4514,-4.4514,-4.4835,-4.5161,-4.5407,-4.6305,-4.691,-4.7106,-4.7756,-4.8075,-4.8035,-4.8363,-4.8513,-4.8587,-4.8732,-4.8857,-4.8962,-4.9113,-4.9321,-4.9577,-5.0345,-5.0935,-5.144,-5.2463,-5.3109,-5.3457,-5.4085,-5.4387,-5.4556,-5.5536,-5.5822,-5.5603,-5.5033,-5.4526,-5.3948,-5.2911,-5.2253,0.0,-5.145,-5.1203,-5.1074,-5.1195,-5.1279,-5.1338,-5.1386,-5.131,-5.1174,-5.1033,-5.0914,-5.0666,-5.0083,-4.9719,-4.9375,-4.885,-4.8495,0.0,0.0,0.0,-4.6653,-4.5807,0.0,-4.5442,0.0,-4.5528,0.0,0.0,0.0,0.0,0.0,0.0,-4.6471,-4.7188,-4.7379,-4.7584,-4.7886,-4.8001,-4.8001,-4.8001,-4.8001,-4.7919,-4.7704,-4.7101,-4.6604,-4.6166,-4.5608,-4.5258,-4.5052,-4.4957,-4.5227,-4.5913,-4.5973,-4.6226,-4.6577,-4.6004,-4.5598,-4.5312,-4.4298,-4.4125,-4.4312,-4.2985,-4.2333,-4.2079,-4.457,-4.4587,-4.4587,-4.457,-4.457,-4.457,-4.457,-4.4626,-4.4626,-4.4626,-4.4626,-4.4626,-4.4626,-4.444,-4.431,-4.431,-4.4293,-4.4597,-4.525,-4.5597,-4.5933,-4.643,-4.7194,-4.7572,-4.7428,-4.8132,-4.8513,-4.8587,-4.8732,-4.8911,-4.9101,-4.9309,-4.9453,-4.9598,-4.9981,-5.0544,-5.1307,-5.1419,-5.2101,-5.3124,-5.3144,-5.3302,-5.3696,-5.5152,-5.5363,-5.4839,-5.4876,0.0,0.0,-5.3213,-5.2424,0.0,0.0,0.0,-5.1211,-5.1279,-5.1338,-5.1406,-5.1405,-5.1302,-5.1167,-5.1031,-5.0945,-5.0696,-4.9974,-4.9655,-4.9345,-4.873,-4.8439,-4.7995,-4.7071,-4.6908,-4.6336,-4.4628,-4.4941,0.0,0.0,-4.4958,-4.5615,-4.6087,0.0,0.0,0.0,-4.5196,-4.5865,-4.5761,-4.6616,-4.7284,-4.7671,-4.7919,-4.8001,-4.8001,-4.8001,-4.7638,-4.6828,-4.6811,-4.6024,-4.4586,-4.451,-4.4143,-4.3409,-4.3344,-4.3718,-4.4377,-4.5035,-4.5158,-4.4908,-4.5532,-4.5235,-4.4219,-4.3259,-4.2889,-4.2889,-4.2792,-4.2137,-4.1311,-4.4587,-4.4587,-4.4587,-4.4587,-4.4587,-4.4587,-4.4587,-4.4587,-4.4587,-4.4587,-4.4587,-4.4587,-4.4587,-4.4514,-4.4514,-4.4514,-4.4514,-4.4609,-4.4797,-4.5372,-4.5749,-4.5783,-4.6671,-4.723,-4.7476,-4.786,-4.8307,-4.8732,-4.8911,-4.9033,-4.9101,-4.942,-4.9637,-4.9684,-5.0206,-5.0579,-5.0867,-5.1423,-5.189,-5.2298,-5.2855,-5.3147,-5.3302,0.0,-5.4119,-5.3871,-5.3369,-5.2834,0.0,-5.2072,-5.1612,-5.1198,-5.1464,-5.1375,-5.1218,-5.1284,-5.1359,-5.1406,0.0,0.0,-5.1273,-5.1054,0.0,0.0,-4.986,-4.9589,-4.9314,-4.8678,-4.8401,-4.8093,-4.7464,-4.7115,-4.6589,-4.5688,-4.5493,-4.5337,0.0,-4.5251,-4.5353,-4.5232,-4.5035,-4.4818,0.0,0.0,0.0,-4.6062,-4.598,-4.6355,-4.7538,-4.7721,-4.7787,-4.7787,-4.7935,-4.7621,-4.6811,-4.6324,-4.5536,-4.451,-4.3927,-4.3551,-4.3329,-4.3329,-4.3688,-4.4265,-4.431,-4.4515,-4.4791,-4.4124,-4.364,-4.3177,-4.2248,-4.1782,-4.1782,-4.1782,-4.1597,-4.1311,-4.4587,-4.4703,-4.4814,-4.4626,-4.4587,-4.4587,-4.4587,-4.4587,-4.4587,-4.4587,-4.4587,-4.4587,-4.4587,-4.4587,-4.4587,-4.4587,-4.4587,-4.4587,-4.4587,-4.5106,-4.5337,-4.5232,-4.6067,-4.6671,-4.6937,-4.7578,-4.8078,-4.8476,-4.8892,-4.9101,-4.915,-4.9627,-4.9857,-4.991,-5.0363,-5.0644,-5.0739,-5.1183,-5.1414,-5.1529,-5.2088,-5.2319,-5.2356,0.0,-5.2759,-5.2914,0.0,-5.2182,-5.1884,-5.1365,-5.1202,-5.1202,-5.1202,-5.123,-5.1232,-5.1288,-5.1343,-5.14,-5.1402,-5.1363,0.0,-5.1054,-5.0973,0.0,-4.9983,0.0,-4.9416,-4.8967,-4.8623,-4.8327,-4.8066,-4.7458,-4.6809,-4.643,-4.5835,-4.5423,0.0,-4.5423,-4.5247,-4.4763,-4.4835,-4.4763,-4.4243,-4.4071,-4.4532,-4.5834,-4.5719,-4.6108,-4.7404,0.0,-4.777,-4.7704,-4.7638,-4.7202,-4.6394,-4.5681,-4.4887,-4.4082,-4.3551,-4.3329,-4.3329,-4.3329,-4.3569,-4.3922,-4.3621,-4.3632,-4.381,-4.2871,-4.2423,-4.2235,-4.1597,-4.1311,-4.1311,-4.1311,-4.1311,-4.1311,-4.457,-4.4981,-4.5178,-4.472,-4.4626,-4.4626,-4.457,0.0,-4.4587,-4.4587,-4.4587,-4.4587,-4.4587,-4.4587,-4.4587,-4.4587,-4.4587,-4.457,-4.4626,-4.4737,-4.4831,-4.4831,-4.5477,-4.5918,-4.59,-4.7176,-4.786,-4.7901,-4.8714,-4.915,-4.9211,-4.9803,-5.0135,-5.0206,-5.0467,-5.0718,-5.089,-5.07,-5.0736,-5.0906,-5.0906,-5.089,-5.089,-5.0971,-5.1393,-5.1966,-5.2233,-5.1843,-5.1202,-5.1202,-5.1202,-5.1202,-5.1202,-5.1253,-5.1297,-5.1301,-5.1348,-5.1394,-5.1394,-5.1316,-5.1187,-5.1031,-5.0945,0.0,0.0,0.0,-4.9626,-4.9599,-4.9062,-4.8657,-4.8777,-4.7801,-4.6928,-4.6748,-4.5961,-4.5423,-4.5423,-4.5423,-4.5247,-4.4763,-4.5123,-4.4835,-4.3486,-4.4128,-4.4766,-4.5145,-4.5656,-4.6411,0.0,0.0,-4.7853,-4.7704,-4.7118,-4.6464,-4.5697,-4.4887,-4.4066,-4.3329,-4.3329,-4.3329,-4.3329,-4.3329,-4.325,-4.32,-4.3006,-4.2668,-4.2203,-4.1934,-4.1616,-4.1311,-4.1311,-4.1311,-4.1311,-4.1311,-4.1311,-4.1311,-4.5018,-4.5214,-4.5267,-4.5125,-4.5125,-4.4981,0.0,0.0,0.0,-4.4587,-4.4587,-4.4587,-4.4587,-4.4587,-4.4587,-4.4587,-4.4587,-4.4626,-4.4737,-4.4886,-4.4923,-4.4923,-4.5336,-4.5666,-4.6049,-4.691,-4.7596,-4.8056,-4.8802,-4.9197,-4.9211,-4.9665,-4.9993,-5.0206,-5.0467,-5.0718,-5.089,-5.0839,-5.0839,-5.0906,-5.0906,-5.0805,-5.0718,0.0,-5.1057,-5.1059,-5.1333,-5.1334,-5.1202,-5.1202,-5.1202,-5.1194,-5.1201,-5.1258,-5.1301,-5.1363,-5.1384,-5.1394,-5.1394,-5.1367,-5.1291,-5.1053,-5.0984,-5.0831,0.0,0.0,0.0,0.0,0.0,0.0,-4.8674,-4.7729,-4.6963,-4.6928,-4.6098,-4.5423,-4.5423,-4.5423,-4.5371,-4.5247,-4.514,-4.4906,-4.4412,-4.4088,-4.443,-4.5789,-4.5513,-4.5832,-4.7169,0.0,0.0,-4.7704,-4.6997,-4.6356,-4.5697,-4.4887,-4.4066,-4.3329,-4.3329,-4.3329,-4.3329,-4.3329,-4.2915,-4.2281,-4.1981,-4.1719,-4.1333,-4.092,-4.0959,-4.1311,-4.1311,-4.1311,-4.1311,-4.1311,-4.1311,-4.1311,-4.4889,-4.5178,-4.5303,-4.5303,0.0,0.0,-4.4682,-4.4587,0.0,-4.4587,-4.4587,0.0,-4.4587,-4.4587,-4.4587,-4.4587,-4.4626,-4.4737,-4.4793,-4.494,-4.5032,-4.5086,-4.5247,-4.5441,-4.5819,-4.6484,-4.7106,-4.7697,-4.844,-4.8956,-4.9211,-4.9627,-4.9943,-5.0206,-5.0467,-5.0718,-5.0906,-5.0906,-5.0858,-5.0771,-5.0855,-5.0822,0.0,-5.101,-5.1005,-5.0887,-5.1069,-5.1171,-5.1214,-5.12,-5.1201,-5.122,-5.1225,-5.1288,-5.1359,-5.1386,-5.1398,-5.1394,-5.1394,-5.1362,-5.1258,-5.1053,-5.0979,-5.0855,-5.0488,-5.0202,-4.9917,0.0,-4.929,-4.9057,0.0,0.0,-4.691,-4.6389,-4.5819,-4.5423,-4.5423,-4.5423,-4.53,-4.5123,-4.4961,-4.4725,-4.4429,-4.4105,-4.4297,-4.5156,-4.4982,-4.5391,0.0,0.0,0.0,-4.7218,-4.6566,-4.5841,-4.5184,-4.4373,-4.3771,-4.3329,-4.3329,-4.3329,-4.325,-4.2915,-4.2496,-4.1922,-4.0896,-4.0666,-4.0949,-4.0285,-4.0553,-4.1311,-4.1311,-4.1311,-4.1311,-4.1311,-4.1311,-4.1311,-4.457,-4.4981,-4.5303,0.0,0.0,0.0,0.0,-4.4587,0.0,-4.4587,0.0,-4.4587,-4.4587,-4.4587,-4.4643,-4.4626,-4.472,-4.4831,-4.4831,-4.4978,-4.5086,-4.5247,-4.5247,-4.53,-4.5423,-4.6003,-4.6624,-4.7237,-4.7947,-4.8621,-4.923,-4.9569,-4.991,-5.0206,-5.0446,-5.0681,-5.0906,-5.0874,-5.0771,-5.0644,-5.0822,-5.0906,-5.0906,-5.1053,-5.1101,-5.1101,-5.1178,-5.1194,-5.1197,-5.1198,-5.1211,-5.1213,-5.1293,-5.134,-5.1406,-5.1406,-5.1396,-5.1394,-5.1386,-5.1291,-5.1178,-5.102,-5.0932,-5.0874,-5.074,-5.0268,-4.9891,-5.0111,-4.9502,-4.9108,0.0,0.0,-4.6927,-4.5819,-4.5598,-4.5563,-4.5563,-4.5511,-4.5336,-4.4927,-4.4763,0.0,-4.403,-4.4105,-4.4072,-4.3909,-4.4188,0.0,0.0,0.0,0.0,-4.6652,-4.5913,-4.5184,-4.451,0.0,-4.3329,-4.3329,-4.3329,-4.325,-4.3076,-4.2333,-4.1908,-4.1561,-3.9982,-3.988,-4.0763,-4.0034,-4.0344,-4.1311,-4.1311,-4.1311,-4.1311,-4.1311,-4.1311,-4.1311,-4.4872,-4.5161,-4.5303,-4.5303,0.0,-4.4665,-4.4626,-4.4587,-4.4587,-4.4587,-4.4587,-4.4587,-4.4587,-4.4587,-4.4626,-4.4737,-4.4793,-4.4886,-4.514,-4.514,-4.5247,-4.5371,-4.5353,-4.5423,-4.5581,-4.6151,-4.6763,-4.7385,-4.8101,-4.8711,-4.923,-4.9452,-4.9778,-5.0206,-5.0252,-5.0489,-5.089,-5.0736,0.0,-5.0858,-5.089,-5.0906,-5.0906,-5.1053,-5.1101,-5.1101,-5.1178,-5.121,-5.1198,-5.1195,-5.1245,-5.1293,-5.1363,-5.1386,-5.1406,-5.1391,-5.1398,-5.1386,-5.1278,-5.1211,-5.1141,-5.0965,-5.0917,-5.0874,-5.074,-5.0399,-5.0087,-4.991,-4.9569,-4.9239,-4.9075,0.0,0.0,-4.7017,-4.6642,-4.6472,-4.6472,-4.6217,-4.5938,-4.5615,-4.5089,-4.4541,-4.403,-4.3663,-4.3465,-4.346,-4.3607,0.0,0.0,0.0,0.0,0.0,-4.5243,0.0,0.0,0.0,-4.3329,-4.3329,-4.3329,-4.2915,-4.2237,-4.2073,-4.1127,-3.9664,-3.9843,-3.9945,-3.9912,-4.0179,-4.0684,-4.1311,-4.1311,-4.1311,-4.1311,-4.1311,-4.1311,-4.1311,-4.4652,-4.5001,-4.5214,-4.4855,0.0,0.0,0.0,-4.444,-4.4497,-4.4587,-4.4587,-4.4587,-4.4587,-4.4682,-4.4737,-4.4776,-4.494,-4.5086,-4.5177,-4.5247,-4.53,-4.5423,-4.5423,-4.5476,-4.5581,-4.5887,-4.6454,-4.7385,-4.7828,-4.844,-4.9179,-4.9427,-4.9741,-5.0206,-5.0448,-5.0548,-5.0548,0.0,0.0,-5.0754,-5.0858,-5.0921,-5.0956,-5.1053,-5.1095,-5.1121,-5.1178,-5.121,-5.1258,-5.1258,-5.1293,-5.1363,-5.1384,-5.1398,-5.1396,-5.1398,-5.1394,-5.1367,-5.1245,-5.115,-5.1072,-5.0928,-5.0841,-5.072,-5.0504,-5.0202,-4.9936,-4.9655,-4.9346,-4.9008,-4.8587,-4.8269,0.0,0.0,-4.69,-4.6707,-4.6707,-4.6394,-4.607,-4.57,-4.532,-4.4766,-4.3922,-4.3284,-4.2951,-4.3021,-4.3368,0.0,0.0,0.0,0.0,0.0,0.0,0.0,0.0,0.0,0.0,-4.325,-4.2835,-4.2415,-4.199,-4.1029,-4.0073,-3.9237,-3.9331,-3.9507,-3.9677,-4.054,-4.105,-4.1311,-4.1311,-4.1311,-4.1311,-4.1311,-4.101,-4.0694,-4.431,-4.4652,-4.491,0.0,-4.4253,-4.4253,-4.431,-4.431,-4.4367,-4.457,-4.4587,-4.4587,-4.4587,-4.4682,-4.4776,-4.4831,-4.5032,-4.5177,-4.5247,-4.5371,-4.5423,-4.5423,-4.5423,-4.5476,-4.5632,-4.5752,-4.6328,-4.7428,-4.7666,0.0,0.0,-4.9352,-4.9741,-5.0206,0.0,0.0,0.0,0.0,-5.0771,-5.0682,-5.0858,-5.0956,-5.1005,-5.1081,-5.1089,-5.1108,-5.1186,-5.1242,-5.1297,-5.1327,-5.1364,-5.1403,-5.1405,-5.1394,-5.1394,-5.1394,-5.1394,-5.1362,-5.1203,-5.1074,-5.0991,-5.0887,-5.0794,-5.0604,-5.0272,-4.9993,-4.9721,-4.9457,-4.9127,-4.8785,-4.8345,-4.8269,0.0,0.0,-4.7186,-4.6936,-4.6908,-4.6602,-4.6217,-4.5784,-4.5494,-4.5108,-4.4377,-4.3251,-4.2751,0.0,0.0,0.0,-4.4888,0.0,0.0,0.0,0.0,-4.3927,-4.325,0.0,-4.3329,-4.325,-4.2415,-4.1908,-4.1645,-3.9986,-3.9121,-3.8908,-3.8939,-3.9311,-4.0043,-4.0945,-4.1311,-4.1311,-4.1311,-4.1311,-4.1311,-4.1311,-4.0795,-4.0173,0.0,0.0,0.0,0.0,0.0,-4.4155,-4.431,-4.431,-4.4367,-4.457,-4.4587,-4.4587,-4.4587,-4.4626,-4.4737,-4.4978,-4.4978,-4.514,-4.5371,-4.5371,-4.5423,-4.5423,-4.5423,-4.5528,-4.5787,-4.62,-4.6827,-4.7591,-4.8157,-4.8305,0.0,-4.904,-4.9741,0.0,0.0,0.0,0.0,-5.07,-5.0718,-5.0874,-5.0956,-5.0986,-5.102,-5.1069,-5.1095,-5.112,-5.1171,-5.1245,-5.1301,-5.1364,-5.1382,-5.1398,-5.1394,-5.1394,-5.1394,-5.1394,-5.1394,-5.1333,-5.1084,-5.1008,-5.0946,-5.0775,-5.0702,-5.0604,-5.0272,-4.9993,-4.9721,-4.9457,-4.9127,-4.889,-4.882,-4.882,-4.8714,0.0,0.0,-4.777,-4.745,-4.716,-4.6842,-4.6525,-4.5528,-4.5297,-4.6305,-4.4085,0.0,0.0,-4.2911,0.0,0.0,0.0,0.0,-4.4297,0.0,-4.3329,-4.3076,-4.325,-4.3329,-4.325,-4.2415,-4.1561,-4.0689,-3.9637,-3.8805,-3.8044,-3.905,-4.0148,-4.1167,-4.1272,-4.1311,-4.1311,-4.1311,-4.1311,-4.1311,-4.1311,-4.0795,-4.007,0.0,0.0,0.0,0.0,0.0,0.0,0.0,-4.4212,-4.427,-4.457,-4.4587,-4.4587,-4.4587,-4.4682,-4.4793,-4.4978,-4.5086,-4.5194,-4.5371,-4.5423,-4.5423,-4.5423,-4.5701,-4.5871,-4.577,-4.6548,-4.7168,-4.7591,-4.8196,-4.8563,0.0,0.0,0.0,0.0,0.0,-5.0528,-5.0718,-5.0771,-5.0841,-5.0906,-5.0971,-5.102,-5.1067,-5.1102,-5.1127,-5.1163,-5.1189,-5.1232,-5.1304,-5.1385,-5.14,-5.1394,-5.1394,-5.1394,-5.1394,-5.1394,-5.1394,-5.1333,-5.1074,-5.1008,-5.0946,-5.0757,-5.0702,-5.0565,-5.0062,-4.9884,-4.9665,-4.9206,-4.8993,-4.8909,-4.8909,-4.8909,-4.8874,-4.8731,0.0,-4.7951,-4.7829,-4.732,-4.6934,-4.6842,-4.6848,-4.6722,-4.6424,-4.4832,-4.3952,0.0,0.0,0.0,0.0,0.0,0.0,-4.4358,0.0,-4.325,-4.317,-4.325,-4.2996,-4.2496,-4.163,-4.0689,-3.9724,-3.8805,-3.8609,-3.8972,-3.9756,-4.0553,-4.1311,-4.1311,-4.1311,-4.1311,-4.1311,-4.1311,-4.1311,-4.1311,-4.0478,-3.9324,-4.3805,0.0,-4.4373,0.0,-4.3822,-4.3881,-4.4039,-4.4097,-4.4212,-4.4587,-4.4587,-4.4587,-4.4587,-4.4737,-4.4831,-4.4978,-4.5123,-4.5247,-4.5371,-4.5423,-4.5476,-4.5615,-4.6038,0.0,-4.62,-4.7035,-4.7572,-4.7816,-4.8384,0.0,0.0,0.0,0.0,0.0,-5.032,-5.0567,-5.07,-5.0839,-5.0906,-5.0941,-5.1005,-5.1067,-5.1095,-5.1114,-5.1159,-5.1206,-5.1222,-5.1263,-5.1304,-5.1387,-5.1394,-5.1394,-5.1394,-5.1394,-5.1394,-5.1394,-5.1394,-5.1333,-5.1074,-5.1008,-5.0946,-5.0757,-5.0624,-5.0421,-4.991,-4.9749,-4.9521,-4.9027,-4.8909,-4.8909,-4.8909,-4.882,-4.875,-4.8642,0.0,0.0,-4.7705,-4.7276,-4.7023,-4.6986,-4.7289,-4.7366,-4.6897,-4.559,0.0,0.0,0.0,0.0,0.0,0.0,0.0,0.0,0.0,0.0,-4.325,-4.2996,-4.2578,-4.199,-4.0774,-3.9812,-3.921,-3.8476,-3.8671,-3.9638,-4.0187,-4.0762,-4.1311,-4.1311,-4.1311,-4.1311,-4.1311,-4.111,-4.0909,-4.0909,-3.984,-3.8477,-4.3552,-4.3628,-4.3628,-4.3628,-4.3628,-4.3747,-4.4039,-4.4097,-4.4212,-4.4587,-4.4587,-4.4587,-4.4587,-4.4737,-4.4831,-4.4978,-4.5123,-4.5247,-4.5371,-4.5423,-4.5615,0.0,0.0,-4.6578,-4.7194,-4.7779,-4.8153,-4.8306,-4.8822,0.0,-4.7816,0.0,-4.8872,-5.0206,-5.0206,-5.0469,-5.089,-5.0906,-5.0941,-5.1005,-5.1067,-5.1095,-5.1095,-5.1171,-5.1202,-5.1217,-5.1277,-5.1297,-5.1307,-5.1377,-5.1394,-5.1394,-5.1394,-5.1394,-5.1394,-5.1394,-5.1394,-5.1333,-5.1074,-5.1008,-5.0946,-5.0757,-5.0442,-5.0135,-4.9865,-4.9598,-4.9321,-4.8959,-4.8909,-4.8909,-4.8909,-4.8623,-4.8307,-4.8053,0.0,0.0,0.0,-4.6998,-4.7015,-4.7017,-4.6352,-4.6549,-4.8209,-4.6306,0.0,0.0,0.0,0.0,0.0,0.0,0.0,-4.2996,-4.317,0.0,-4.2996,-4.2319,-4.199,-4.199,-4.0073,-3.921,-3.9224,-3.8873,-3.9037,-3.9638,-4.0187,-4.0762,-4.1311,-4.1311,-4.1311,-4.1311,-4.1311,-4.0795,-4.007,-4.007,-3.9013,-3.7512,-4.3492,-4.3628,-4.3628,-4.3628,-4.3628,-4.3687,-4.4039,-4.4097,-4.4212,-4.4587,-4.4587,-4.4626,-4.4737,-4.4776,-4.4831,0.0,-4.5123,-4.5247,0.0,-4.5423,-4.5667,-4.6186,-4.6578,-4.691,-4.7176,-4.8117,-4.8495,-4.8306,0.0,0.0,0.0,-4.9202,-4.9695,-5.0467,-5.0467,-5.0644,-5.0906,-5.0906,-5.0906,-5.0941,-5.1053,-5.1101,-5.1108,-5.1159,-5.1189,-5.1217,-5.1274,-5.1333,-5.1366,-5.1391,-5.1394,-5.1394,-5.1394,-5.1394,-5.1394,-5.1394,-5.1394,-5.1333,-5.1074,-5.1008,-5.0946,-5.0757,-5.0442,-5.0135,-4.9865,-4.942,-4.9027,-4.8943,-4.8909,-4.8909,-4.8909,-4.8623,-4.8383,-4.8269,-4.7852,0.0,-4.7338,-4.7644,-4.7666,-4.7189,-4.7893,-4.8259,-4.7954,-4.7106,0.0,0.0,0.0,0.0,0.0,0.0,0.0,0.0,-4.325,0.0,-4.325,-4.24,-4.1645,-4.1029,-3.9812,-3.8881,-3.8344,-3.8961,-3.9429,-3.9664,-4.0618,-4.1141,-4.1311,-4.1311,-4.1311,-4.1224,-4.0694,-4.0287,-4.007,-3.9428,-3.8477,-3.7512,-4.3295,-4.3492,-4.3628,-4.3628,-4.3628,-4.3687,-4.4039,-4.4097,-4.4212,-4.4587,-4.4587,-4.4626,-4.4793,-4.4831,0.0,-4.5086,-4.5194,-4.53,-4.5371,-4.5563,-4.5938,-4.6472,-4.7062,-4.7494,-4.7802,-4.8458,0.0,-4.8532,-4.8974,-4.9365,-4.9655,-4.983,-5.0164,-5.0587,-5.0587,-5.0718,-5.0906,-5.0906,-5.0941,-5.0971,-5.1073,-5.1114,-5.114,-5.119,-5.1208,-5.12,-5.1245,-5.132,-5.1365,-5.1382,-5.1405,-5.1394,-5.1394,-5.1394,-5.1394,-5.1394,-5.1394,-5.1333,-5.1074,-5.1008,-5.0946,-5.0757,-5.0377,-4.9943,-4.9531,-4.9188,-4.8909,-4.8909,-4.8909,-4.8855,-4.875,-4.8476,-4.821,-4.8075,-4.7645,-4.7401,-4.7707,-4.7818,-4.777,-4.763,-4.8335,0.0,0.0,-4.7618,-4.7055,0.0,0.0,0.0,0.0,0.0,0.0,-4.325,-4.3329,0.0,-4.282,-4.1893,-4.1029,-4.0073,-3.9135,-3.8501,-3.824,-3.9181,-3.9716,-3.9965,-4.0906,-4.1311,-4.1311,-4.1311,-4.1311,-4.1211,-4.0389,-3.9865,-3.9544,-3.8582,-3.7737,-3.7,-4.3035,-4.3372,-4.3628,0.0,-4.3628,0.0,-4.4039,-4.4097,-4.4212,-4.4587,-4.4587,-4.4626,-4.4793,-4.494,-4.5032,-4.5177,0.0,0.0,0.0,-4.5905,-4.6472,-4.7044,-4.7596,-4.8174,-4.8787,-4.8874,-4.8909,-4.8909,-4.9259,-4.9483,-4.9655,-4.9968,-5.032,-5.0606,-5.0606,-5.0736,-5.0906,-5.0906,-5.0971,-5.1101,-5.1101,-5.114,-5.1202,-5.1202,-5.1194,-5.1197,-5.1198,-5.1238,-5.133,-5.1386,-5.1398,-5.1394,-5.1398,-5.1398,-5.1394,-5.1394,-5.1394,-5.1333,-5.1074,-5.1008,-5.0946,-5.0757,-5.0245,-4.9646,-4.9042,-4.8909,-4.8909,-4.8909,-4.8909,-4.8785,-4.8458,-4.8172,-4.787,-4.7536,-4.7259,-4.7337,-4.8021,-4.7696,-4.7579,-4.8283,0.0,0.0,-4.7704,-4.7704,-4.7404,0.0,0.0,0.0,0.0,0.0,-4.3076,-4.325,-4.3329,-4.2915,-4.199,-4.1029,-4.0073,-3.9121,-3.8317,-3.8187,-3.8723,-3.9324,-3.9899,-4.0448,-4.105,-4.1311,-4.1311,-4.1311,-4.1311,-4.1211,-4.0389,-3.9531,-3.8687,-3.7737,-3.6893,-3.6266,0.0,0.0,-4.3628,-4.3628,-4.3628,-4.3687,-4.4039,-4.4097,-4.4212,-4.4587,-4.4587,-4.4626,-4.4793,-4.494,-4.5032,-4.5177,-4.53,-4.5563,-4.5988,-4.6137,-4.6631,-4.7548,-4.7797,-4.8174,-4.8787,-4.8874,-4.8962,-4.9049,-4.9377,-4.9721,-4.9993,-5.032,-5.0606,-5.0822,-5.0822,-5.0858,-5.0906,-5.0906,-5.0956,-5.102,-5.1087,-5.1108,-5.1127,-5.1171,-5.123,-5.1283,-5.1274,-5.132,-5.1377,-5.1391,-5.1402,-5.1398,-5.1402,-5.1396,-5.1394,-5.1394,-5.1394,-5.1333,-5.1074,-5.1008,-5.0946,-5.0757,-5.0245,-4.9646,-4.9042,-4.8909,-4.8909,-4.8909,-4.8909,-4.8785,-4.8458,-4.8172,-4.787,-4.7536,-4.7707,-4.7785,-4.7474,-4.8361,-4.8727,0.0,-4.8274,-4.8404,-4.7968,-4.7935,-4.7354,0.0,0.0,0.0,0.0,-4.3329,-4.325,-4.3329,-4.3329,-4.2915,-4.199,-4.1029,-3.9752,-3.8239,-3.7992,-3.8187,-3.8723,-3.9324,-3.9899,-4.0448,-4.105,-4.1311,-4.1311,-4.1311,-4.1311,-4.111,-3.9634,-3.9,-3.8582,-3.7108,-3.6472,-3.6266,-4.2867,-4.3251,-4.3628,-4.3628,-4.3628,-4.3687,-4.3939,-4.4056,-4.4212,-4.444,-4.4514,-4.4626,-4.4793,-4.494,-4.5123,-4.5494,-4.5684,-4.5905,-4.6186,-4.6584,-4.7142,-4.7816,-4.8096,-4.8421,-4.8857,-4.8874,-4.9027,-4.9239,-4.957,-4.9905,-5.024,-5.0587,-5.0789,-5.0906,-5.0906,-5.0906,-5.0906,-5.0906,-5.0956,-5.1053,-5.1087,-5.1108,-5.1159,-5.119,-5.121,-5.1244,-5.1244,-5.1316,-5.1396,-5.1396,-5.1408,-5.1398,-5.1396,-5.1391,-5.1394,-5.1394,-5.1394,-5.1333,-5.1074,-5.1008,-5.0901,-5.0548,-5.0111,-4.9693,-4.9239,-4.8993,-4.8909,-4.8909,-4.8909,-4.875,-4.8326,-4.8093,-4.7829,-4.7338,-4.7796,-4.8075,-4.7817,-4.8574,-4.8951,-4.8301,-4.8354,-4.8339,-4.8001,-4.7704,-4.6981,-4.5769,-4.5332,0.0,-4.3409,-4.3329,-4.3329,-4.3329,-4.2915,-4.2237,-4.138,-4.0014,-3.8832,-3.79,-3.8161,-3.8566,-3.9141,-3.9716,-4.0292,-4.084,-4.1167,-4.1311,-4.1311,-4.1311,-4.1311,-4.111,-3.9428,-3.8792,-3.8582,-3.6904,-3.6266,-3.6266,-4.2618,-4.3129,-4.3552,-4.3568,-4.3628,-4.3687,-4.3898,-4.4056,-4.4155,-4.431,-4.4514,-4.4682,-4.4869,-4.5015,-4.5354,-4.5968,-4.6231,-4.6411,-4.6411,-4.716,-4.7715,-4.798,-4.8383,-4.8695,-4.8909,-4.8909,-4.909,-4.9435,-4.9762,-5.0111,-5.0431,-5.075,-5.0906,-5.0906,-5.0906,-5.0906,-5.0906,-5.0906,-5.099,-5.1101,-5.1101,-5.114,-5.1202,-5.1206,-5.122,-5.1218,-5.1232,-5.1304,-5.1406,-5.1406,-5.1398,-5.1394,-5.1402,-5.1398,-5.1394,-5.1402,-5.1398,-5.1333,-5.1074,-5.0972,-5.0831,-5.0325,-5.0012,-4.9721,-4.9457,-4.916,-4.8909,-4.8909,-4.8855,-4.8678,-4.8111,-4.7951,-4.7741,-4.7122,-4.7725,-4.825,-4.8277,0.0,-4.8726,-4.8771,-4.8339,-4.7935,-4.7853,-4.7186,-4.6464,-4.5551,-4.4887,-4.4143,-4.3329,-4.3329,-4.3329,-4.3329,-4.2415,-4.1463,-4.0418,-3.8742,-3.79,-3.7913,-3.8449,-3.9024,-3.9625,-4.0174,-4.0749,-4.1311,-4.1311,-4.1311,-4.1311,-4.1311,-4.1211,-4.0997,-3.9428,-3.8687,-3.8372,-3.6904,-3.6266,-3.6266,-4.2522,-4.2912,-4.3235,-4.3568,-4.3763,-4.3839,-4.3898,-4.4097,-4.4253,-4.431,-4.4514,-4.4759,-4.5178,-4.5459,-4.5817,-4.6358,-4.7008,-4.736,-4.736,-4.7506,-4.7879,-4.8458,-4.855,-4.8695,-4.8909,-4.9015,-4.9244,-4.9569,-4.9898,-5.0233,-5.0567,-5.0805,-5.0906,-5.0906,-5.0906,-5.0906,-5.0906,-5.0906,-5.099,-5.1101,-5.1101,-5.114,-5.1194,-5.121,-5.1232,-5.1293,-5.1359,-5.1386,-5.1402,-5.1402,-5.1398,-5.1402,-5.1403,-5.1396,-5.1402,-5.1403,-5.1396,-5.1333,-5.1074,-5.0894,-5.0664,-5.0275,-5.0012,-4.9721,-4.9457,-4.916,-4.8909,-4.8909,-4.866,-4.8383,-4.8072,-4.7747,-4.7473,-4.7192,-4.7849,-4.826,-4.7892,0.0,-4.872,-4.8211,-4.8066,-4.7704,-4.7033,-4.688,-4.6237,-4.4812,-4.4586,-4.4143,-4.3329,-4.3329,-4.3329,-4.3329,-4.2415,-4.1212,-3.9461,-3.8395,-3.79,-3.7913,-3.8449,-3.9024,-3.9625,-4.0174,-4.0749,-4.1311,-4.1311,-4.1311,-4.1311,-4.1311,-4.0896,-4.0173,-3.9221,-3.8372,-3.7619,-3.6688,-3.6266,-3.6266,-4.2522,-4.2851,-4.3235,-4.3552,-4.3763,-4.3898,-4.3898,-4.4155,-4.431,-4.431,-4.4669,-4.4998,-4.5052,-4.5683,-4.6262,-4.6566,-4.723,-4.7715,-4.7955,-4.8035,-4.8249,-4.8587,-4.8678,-4.8768,-4.8909,-4.9141,-4.9431,-4.9773,-5.0102,-5.043,-5.0771,-5.0858,-5.0906,-5.0906,-5.0906,-5.0906,-5.0906,-5.0906,-5.0956,-5.1053,-5.1101,-5.1113,-5.1152,-5.118,-5.1252,-5.1301,-5.1335,-5.1367,-5.1394,-5.1394,-5.1394,-5.1398,-5.1394,-5.1408,-5.1398,-5.1394,-5.1299,-5.115,-5.1031,-5.0848,-5.0663,-5.0504,-5.013,-4.9776,-4.9655,-4.9252,-4.8855,-4.866,-4.8495,-4.8269,-4.7829,-4.7578,-4.7527,-4.7695,-4.8111,0.0,0.0,-4.8591,-4.8668,-4.8049,-4.7638,-4.7186,-4.6828,-4.6024,-4.5227,-4.451,-4.4066,-4.3708,-4.3329,-4.3329,-4.3329,-4.3329,-4.1976,-4.0346,-3.8562,-3.8057,-3.8057,-3.8344,-3.8919,-3.9494,-4.0069,-4.0644,-4.105,-4.1311,-4.1311,-4.0997,-4.0694,-4.0694,-4.0173,-3.9324,-3.8477,-3.7832,-3.7406,-3.658,-3.6266,-3.6312,-4.2648,-4.2912,-4.3235,-4.3552,-4.3822,-4.3956,-4.3898,-4.4155,-4.4367,-4.431,-4.4763,-4.5089,-4.4978,-4.5885,-4.6595,-4.6863,-4.7421,-4.7955,-4.8306,-4.8438,-4.855,-4.8587,-4.8732,-4.8874,-4.8993,-4.9309,-4.9617,-5.0016,-5.0327,-5.0605,-5.0906,-5.0906,-5.0906,-5.0906,-5.0906,-5.0906,-5.0906,-5.0906,-5.0956,-5.1034,-5.1086,-5.1117,-5.112,-5.118,-5.1252,-5.1297,-5.1327,-5.1367,-5.1394,-5.1394,-5.1394,-5.1394,-5.1394,-5.1394,-5.139,-5.1362,-5.1178,-5.0979,-5.0979,-5.0835,-5.0683,-5.0604,-5.0178,-4.9757,-4.9721,-4.9296,-4.882,-4.8458,-4.8345,-4.8153,-4.7578,-4.7569,-4.7725,-4.7997,0.0,0.0,0.0,-4.8623,-4.8497,-4.8066,-4.727,-4.6742,-4.6534,-4.53,-4.4434,-4.422,-4.363,-4.3329,-4.3329,-4.3329,-4.3076,-4.2659,-4.1281,-3.9752,-3.79,-3.79,-3.8174,-3.8723,-3.9324,-3.9899,-4.0435,-4.1036,-4.1311,-4.1311,-4.111,-4.0694,-4.007,-3.9865,-3.9324,-3.8465,-3.7725,-3.7418,-3.7096,-3.6472,-3.6346,-3.6507,-4.2912,-4.3096,-4.3235,-4.3552,-4.3864,-4.4039,-4.3898,-4.4286,-4.4514,-4.431,-4.4497,-4.4886,-4.5494,-4.6049,-4.6699,-4.7363,-4.7951,-4.8324,-4.8457,-4.8532,-4.8587,-4.8587,-4.8785,-4.9027,-4.9352,-4.9529,-4.9838,-5.0363,-5.0508,-5.0681,-5.0906,-5.0906,-5.0906,-5.0906,-5.0906,-5.0906,-5.0906,-5.0906,-5.0971,-5.1101,-5.1114,-5.1153,-5.1194,-5.1209,-5.1252,-5.1301,-5.1364,-5.1402,-5.1394,-5.1394,-5.1394,-5.1394,-5.1394,-5.1394,-5.1386,-5.1252,-5.107,-5.0917,-5.0917,-5.081,-5.0624,-5.0317,-5.0038,-4.9721,-4.9488,-4.9141,-4.882,-4.8458,-4.821,-4.7911,-4.7554,-4.786,-4.8014,-4.7607,0.0,0.0,-4.8108,-4.8081,-4.8066,-4.8001,-4.727,-4.6534,-4.5841,-4.502,-4.422,-4.3394,-4.3329,-4.3329,-4.3329,-4.3329,-4.2563,-4.0859,-4.0689,-3.9752,-3.79,-3.79,-3.8174,-3.8723,-3.9324,-3.9899,-4.0435,-4.1036,-4.1311,-4.1211,-4.0491,-4.0173,-4.007,-3.9221,-3.836,-3.7619,-3.7512,-3.6989,-3.6375,-3.6266,-3.6576,-3.6989,-4.271,-4.2974,-4.3235,-4.3552,-4.3822,-4.3998,-4.3998,-4.427,-4.444,-4.4497,-4.4923,-4.5319,-4.5649,-4.6501,-4.7222,-4.7524,-4.7995,-4.8363,-4.8513,-4.8532,-4.8624,-4.8785,-4.8874,-4.9061,-4.9396,-4.9655,-4.998,-5.0404,-5.0663,-5.0841,-5.0906,-5.0906,-5.0906,-5.0906,-5.0906,-5.0906,-5.0906,-5.0937,-5.1005,-5.1053,-5.1125,-5.1147,-5.1163,-5.1225,-5.1279,-5.1301,-5.1385,-5.14,-5.1394,-5.1394,-5.1394,-5.1394,-5.1394,-5.1333,-5.1245,-5.1058,-5.097,-5.0871,-5.0793,-5.074,-5.0624,-5.0294,-5.0012,-4.9721,-4.9457,-4.899,-4.8514,-4.821,-4.7911,-4.7578,-4.7249,-4.7732,-4.8151,-4.805,0.0,-4.8665,-4.8568,-4.8227,-4.7787,-4.7337,-4.655,-4.5825,-4.5036,-4.422,-4.363,-4.3329,-4.3329,-4.3329,-4.3329,-4.2835,-4.1893,-4.0689,-4.0073,-3.9149,-3.79,-3.824,-3.8697,-3.9272,-3.9847,-4.0409,-4.0984,-4.1206,-4.1311,-4.1224,-4.0491,-3.975,-3.9221,-3.836,-3.7524,-3.6796,-3.6796,-3.658,-3.6266,-3.6266,-3.6599,-3.7081,-4.271,-4.3035,-4.3312,-4.3568,-4.3822,-4.3998,-4.4114,-4.427,-4.444,-4.457,-4.5032,-4.5459,-4.5665,-4.6613,-4.7327,-4.7591,-4.8093,-4.8401,-4.8513,-4.8606,-4.8715,-4.8874,-4.8909,-4.9075,-4.9529,-4.9711,-5.0054,-5.0527,-5.0699,-5.0841,-5.0906,-5.0906,-5.0906,-5.0906,-5.0906,-5.0906,-5.0921,-5.0971,-5.1,-5.1042,-5.1139,-5.1139,-5.1132,-5.1225,-5.1284,-5.1301,-5.1385,-5.14,-5.1394,-5.1394,-5.1394,-5.1394,-5.1394,-5.1284,-5.1103,-5.0956,-5.0874,-5.0827,-5.0721,-5.0624,-5.0483,-5.0159,-4.9884,-4.955,-4.9188,-4.873,-4.8307,-4.7911,-4.7663,-4.7381,-4.707,-4.7678,-4.8222,-4.8138,-4.848,-4.8745,-4.8664,-4.8275,-4.7704,-4.6896,-4.6111,-4.5405,-4.4586,-4.3771,-4.3329,-4.3329,-4.3329,-4.3329,-4.3329,-4.2496,-4.1561,-4.0603,-3.9724,-3.8886,-3.8148,-3.8527,-3.9011,-3.9625,-4.0161,-4.0736,-4.1311,-4.1311,-4.1311,-4.1211,-4.0173,-3.9324,-3.8687,-3.7631,-3.6796,-3.6266,-3.6266,-3.6266,-3.6289,-3.6449,-3.6828,-3.7345,-4.3035,-4.3372,-4.3628,-4.3628,-4.3864,-4.4097,-4.4097,-4.44,-4.4587,-4.4587,-4.4737,-4.5069,-4.5665,-4.631,-4.6936,-4.7548,-4.8132,-4.8532,-4.8587,-4.8785,-4.8874,-4.8787,-4.8874,-4.9188,-4.9784,-4.9684,-4.9993,-5.0793,-5.0663,-5.07,-5.0906,-5.0906,-5.0906,-5.0906,-5.0906,-5.0941,-5.1005,-5.1005,-5.1029,-5.1095,-5.1095,-5.1139,-5.1194,-5.1209,-5.1252,-5.1301,-5.1385,-5.14,-5.1394,-5.1394,-5.1394,-5.1394,-5.1394,-5.1211,-5.1004,-5.0913,-5.081,-5.0702,-5.0702,-5.0442,-5.0135,-4.9884,-4.9598,-4.922,-4.855,-4.8383,-4.8231,-4.7621,-4.7511,-4.7381,-4.707,-4.778,-4.8172,-4.7596,-4.8277,-4.8668,-4.8049,-4.8001,-4.7704,-4.6896,-4.6111,-4.5405,-4.4586,-4.3786,-4.3329,-4.3329,-4.3329,-4.3329,-4.3329,-4.2496,-4.1561,-4.0603,-3.9637,-3.906,-3.8697,-3.871,-3.9024,-3.9625,-4.0161,-4.0736,-4.1311,-4.1311,-4.1311,-4.1211,-3.9531,-3.8792,-3.8687,-3.7012,-3.6277,-3.6266,-3.6266,-3.6266,-3.6335,-3.6851,-3.7356,-3.7862,-4.2743,-4.319,-4.3628,-4.3763,-4.3881,-4.3998,-4.4196,-4.431,-4.444,-4.457,-4.5106,-4.5614,-4.6161,-4.6882,-4.7548,-4.8035,-4.8324,-4.8569,-4.8732,-4.8839,-4.8909,-4.8874,-4.8909,-4.9108,-4.9569,-4.9598,-4.9936,-5.0586,-5.0606,-5.07,-5.0906,-5.0906,-5.0906,-5.0906,-5.0906,-5.0941,-5.1005,-5.1005,-5.1029,-5.1095,-5.1095,-5.1139,-5.1206,-5.1252,-5.1284,-5.1304,-5.1384,-5.1405,-5.1394,-5.1394,-5.1394,-5.1362,-5.1187,-5.1027,-5.0913,-5.0793,-5.074,-5.0663,-5.0421,-5.0135,-4.9891,-4.983,-4.9598,-4.922,-4.855,-4.8231,-4.8014,-4.7597,-4.7294,-4.7116,-4.7043,-4.778,-4.8172,-4.7596,-4.8277,-4.8668,-4.8049,-4.8001,-4.7504,-4.6198,-4.5841,-4.5184,-4.3771,-4.3394,-4.3329,-4.3329,-4.3329,-4.3329,-4.3329,-4.1879,-4.0859,-4.0603,-3.9073,-3.8412,-3.871,-3.9128,-3.9625,-4.0187,-4.0762,-4.1141,-4.1311,-4.1311,-4.1311,-4.1211,-4.0173,-3.9337,-3.8687,-3.7631,-3.6796,-3.6266,-3.6266,-3.6266,-3.6335,-3.6851,-3.7356,-3.7862,-4.2601,-4.3113,-4.3628,-4.3763,-4.3881,-4.4056,-4.4212,-4.431,-4.444,-4.457,-4.5232,-4.5883,-4.6336,-4.7106,-4.7816,-4.8306,-4.8532,-4.8679,-4.8822,-4.8874,-4.8909,-4.8909,-4.8909,-4.9075,-4.9499,-4.9469,-4.9749,-5.0342,-5.0404,-5.0548,-5.0789,-5.0874,-5.0906,-5.0906,-5.0906,-5.0941,-5.1005,-5.1005,-5.1029,-5.1095,-5.1095,-5.1144,-5.1211,-5.1263,-5.1327,-5.1342,-5.1394,-5.1394,-5.1394,-5.1394,-5.1362,-5.1284,-5.1027,-5.0923,-5.0855,-5.074,-5.0604,-5.0462,-5.0272,-4.9936,-4.9655,-4.9655,-4.9327,-4.8887,-4.8345,-4.8014,-4.7705,-4.7381,-4.7116,-4.6952,-4.6731,-4.7415,-4.7852,-4.7261,-4.7953,-4.8386,-4.8066,-4.8001,-4.7437,-4.5913,-4.5697,-4.5036,-4.3488,-4.3329,-4.3329,-4.3329,-4.3329,-4.3329,-4.3329,-4.1976,-4.0944,-4.0603,-3.9392,-3.8846,-3.9063,-3.9638,-4.0095,-4.0422,-4.1023,-4.1311,-4.1311,-4.1311,-4.1311,-4.1224,-4.0491,-3.9647,-3.8687,-3.7832,-3.7,-3.6266,-3.6266,-3.6392,-3.6633,-3.7138,-3.7666,-3.8183,-4.2585,-4.3174,-4.3628,-4.3628,-4.3864,-4.4097,-4.4097,-4.44,-4.4626,-4.4682,-4.5337,-4.5933,-4.643,-4.7194,-4.7915,-4.8457,-4.8679,-4.8822,-4.8909,-4.8909,-4.8909,-4.8909,-4.8909,-4.9108,-4.9469,-4.9289,-4.9499,-5.0068,-5.0159,-5.0339,-5.0587,-5.0805,-5.0906,-5.0906,-5.0906,-5.0941,-5.1005,-5.1005,-5.1029,-5.1095,-5.1095,-5.115,-5.1211,-5.1279,-5.1338,-5.1406,-5.1408,-5.1394,-5.1394,-5.139,-5.1291,-5.1152,-5.097,-5.0887,-5.0858,-5.0702,-5.0442,-5.0183,-5.0135,-4.9776,-4.9384,-4.9334,-4.8834,-4.8307,-4.8072,-4.7747,-4.7425,-4.707,-4.6998,-4.686,-4.6372,-4.6951,-4.7335,-4.6861,-4.75,-4.8001,-4.8001,-4.7935,-4.7354,-4.5841,-4.5624,-4.4962,-4.3488,-4.3329,-4.325,-4.317,-4.317,-4.317,-4.3076,-4.2237,-4.138,-4.0504,-4.0165,-3.98,-3.9599,-4.0148,-4.0448,-4.0501,-4.105,-4.1311,-4.1311,-4.1311,-4.1311,-4.1211,-4.0491,-3.9647,-3.8687,-3.7938,-3.7108,-3.6266,-3.6266,-3.6587,-3.7092,-3.7598,-3.8126,-3.8654,-4.2585,-4.3174,-4.3628,-4.3822,-4.3998,-4.4155,-4.4253,-4.444,-4.4759,-4.5232,-4.5883,-4.6478,-4.7088,-4.7756,-4.8229,-4.8457,-4.8679,-4.8822,-4.8909,-4.8996,-4.9068,-4.9068,-4.9098,-4.9211,-4.9352,-4.9244,-4.9427,-4.9884,-5.0087,-5.0339,-5.0587,-5.0805,-5.0906,-5.0906,-5.0906,-5.0956,-5.1067,-5.102,-5.1029,-5.1095,-5.1095,-5.1139,-5.1206,-5.1274,-5.1338,-5.1406,-5.1408,-5.1394,-5.139,-5.1284,-5.1123,-5.0956,-5.0917,-5.0844,-5.0702,-5.0402,-5.0272,-5.0111,-4.9684,-4.9488,-4.927,-4.8748,-4.8345,-4.8072,-4.8032,-4.7747,-4.7425,-4.707,-4.6998,-4.702,-4.6991,-4.7281,-4.7506,-4.7505,-4.7738,-4.8001,-4.8001,-4.7488,-4.6689,-4.5841,-4.511,-4.4373,-4.3394,-4.3329,-4.2996,-4.2319,-4.2252,-4.1976,-4.1197,-4.0332,-3.9724,-3.9549,-3.92,-3.9186,-3.9599,-4.0148,-4.0657,-4.1115,-4.1259,-4.1311,-4.1311,-4.1311,-4.1311,-4.1311,-4.111,-4.016,-3.8792,-3.8582,-3.7631,-3.6266,-3.6266,-3.6587,-3.7092,-3.7598,-3.8126,-3.8538,-4.2585,-4.3174,-4.3628,-4.3763,-4.3939,-4.4097,-4.4196,-4.4631,-4.4998,-4.5142,-4.59,-4.6607,-4.699,-4.7591,-4.8114,-4.8495,-4.8732,-4.8874,-4.8909,-4.9015,-4.9101,-4.9101,-4.9164,-4.9244,-4.9308,-4.9276,-4.9384,-4.9655,-4.9884,-5.0159,-5.0425,-5.0644,-5.0805,-5.0906,-5.0906,-5.0941,-5.1005,-5.1005,-5.1034,-5.1089,-5.1095,-5.1152,-5.1245,-5.1284,-5.1343,-5.1398,-5.1402,-5.1362,-5.1284,-5.1113,-5.0992,-5.0906,-5.0808,-5.0758,-5.0624,-5.0294,-5.0111,-4.9936,-4.9499,-4.9289,-4.9042,-4.8532,-4.821,-4.7951,-4.7788,-4.7493,-4.7205,-4.7043,-4.6795,-4.6658,-4.6777,-4.6969,-4.7172,-4.7273,-4.768,-4.7853,-4.7488,-4.705,-4.6394,-4.5243,-4.4737,-4.422,-4.3409,-4.3329,-4.2915,-4.2073,-4.199,-4.1561,-4.0689,-3.9724,-3.9346,-3.9644,-3.9269,-3.9416,-3.9991,-4.0566,-4.0997,-4.1311,-4.1311,-4.1311,-4.1311,-4.1311,-4.1311,-4.1311,-4.1311,-4.0364,-3.8792,-3.8792,-3.7844,-3.6266,-3.6266,-3.6736,-3.7425,-3.7689,-3.7906,-3.7847,-4.2585,-4.3113,-4.3552,-4.3628,-4.3923,-4.4097,-4.4155,-4.4763,-4.5125,-4.4961,-4.5885,-4.6613,-4.6845,-4.7403,-4.7999,-4.8587,-4.8785,-4.8909,-4.8909,-4.9049,-4.9135,-4.9135,-4.9197,-4.9295,-4.934,-4.9209,-4.924,-4.9509,-4.957,-4.9727,-4.9926,-5.0235,-5.0469,-5.0626,-5.0813,-5.0906,-5.0921,-5.1005,-5.1053,-5.1081,-5.1108,-5.1189,-5.1293,-5.1304,-5.1347,-5.1394,-5.1394,-5.1297,-5.1132,-5.097,-5.0871,-5.0841,-5.074,-5.0663,-5.0544,-5.0225,-4.9943,-4.9665,-4.9396,-4.9094,-4.875,-4.8421,-4.8132,-4.7829,-4.7511,-4.7205,-4.698,-4.6888,-4.6495,-4.625,-4.6439,-4.6567,-4.6784,-4.7068,-4.7456,-4.7555,-4.688,-4.6604,-4.5953,-4.4662,-4.4373,-4.3989,-4.3329,-4.317,-4.2739,-4.1811,-4.1645,-4.1127,-4.0173,-3.9482,-3.9334,-3.9846,-3.9744,-3.9965,-4.0409,-4.101,-4.1311,-4.1311,-4.1311,-4.1311,-4.1311,-4.1311,-4.1311,-4.1311,-4.111,-4.016,-3.8675,-3.8582,-3.7524,-3.6048,-3.6139,-3.6744,-3.7463,-3.7748,-3.7479,-3.6692,-4.2555,-4.2929,-4.3295,-4.3763,-4.3998,-4.4155,-4.4253,-4.4592,-4.5069,-4.5528,-4.6213,-4.689,-4.7421,-4.8078,-4.855,-4.8732,-4.8839,-4.8909,-4.8909,-4.9079,-4.9197,-4.9197,-4.9345,-4.9459,-4.9459,-4.8739,-4.8739,-4.9509,-4.9003,-4.8787,-4.884,-4.9271,-4.9489,-4.9546,-5.0494,-5.0921,-5.0986,-5.1053,-5.1053,-5.1015,-5.1142,-5.1199,-5.123,-5.1342,-5.1384,-5.1394,-5.1394,-5.1245,-5.1008,-5.0928,-5.0808,-5.0721,-5.0721,-5.0504,-5.0206,-4.9936,-4.9655,-4.9396,-4.9061,-4.8731,-4.8383,-4.8132,-4.7829,-4.7468,-4.716,-4.7025,-4.6888,-4.6381,-4.6235,-4.6306,-4.6584,-4.6709,-4.6935,-4.7749,-4.7339,-4.688,-4.6828,-4.5665,-4.4721,-4.451,-4.3927,-4.3409,-4.3329,-4.2659,-4.1811,-4.0859,-4.0073,-3.9224,-3.8317,-3.8596,-3.8805,-3.8884,-3.9839,-4.0344,-4.0409,-4.101,-4.1311,-4.1311,-4.1311,-4.1311,-4.1311,-4.1311,-4.1311,-4.1211,-4.0593,-3.9415,-3.8007,-3.782,-3.6534,-3.4858,-3.5737,-3.6137,-3.6391,-3.7713,-3.6738,-3.4871,-4.2492,-4.2867,-4.3235,-4.3839,-4.3998,-4.4155,-4.431,-4.4852,-4.5372,-4.5665,-4.631,-4.6918,-4.753,-4.8212,-4.8642,-4.8787,-4.8874,-4.8909,-4.9015,-4.9083,-4.9164,-4.9244,-4.8896,-4.8734,-4.8776,-4.795,-4.7725,-4.8101,-4.7853,-4.7767,-4.7934,-4.8261,-4.872,-4.9317,-4.9937,-5.05,-5.0956,-5.102,-5.102,-5.1,-5.1163,-5.1191,-5.12,-5.1355,-5.1403,-5.1386,-5.1238,-5.1072,-5.0937,-5.0825,-5.074,-5.0663,-5.0483,-5.0317,-5.0111,-4.9712,-4.9499,-4.927,-4.8748,-4.8495,-4.8307,-4.7811,-4.7597,-4.7425,-4.7088,-4.6795,-4.6495,-4.6235,-4.592,-4.5891,-4.6605,-4.6421,-4.6433,-4.7242,-4.7033,-4.6534,-4.5665,-4.4946,-4.4358,-4.3849,-4.3551,-4.3329,-4.3329,-4.2496,-4.1645,-4.0689,-3.9724,-3.8792,-3.7992,-3.841,-3.8867,-3.9207,-3.9991,-4.0579,-4.0919,-4.118,-4.1311,-4.1311,-4.1097,-4.1097,-4.1097,-4.1211,-4.111,-4.0808,-3.9943,-3.8871,-3.7607,-3.6846,-3.5772,-3.4524,-3.5354,-3.5901,-3.6306,-3.6729,-3.5735,-3.4123]}]]